     2.11           OBSERVATION DATA    G (GPS)             RINEX VERSION / TYPE
teqc 2010Oct21 OPUS Account 20111027 15:29:59UTC            PGM / RUN BY / DATE
Q 1524                                                      MARKER NAME
1219                                                        MARKER NUMBER
CSMIDDLETON NGS                                             OBSERVER / AGENCY
4624K01647 TRIMBLE NETR5 4.41                               REC # / TYPE / VERS
12694052 TRM41249.00 NONE                                   ANT # / TYPE
  -760253.7040 -5532823.4609  3070497.9200                  APPROX POSITION XYZ
        2.0040        0.0000        0.0000                  ANTENNA: DELTA H/E/N
     1     1                                                WAVELENGTH FACT L1/2
     5    L1    L2    C1    P1    P2                        # / TYPES OF OBSERV
    15                                                      LEAP SECONDS
  2011     8    15     0     0    0.0000000     GPS         TIME OF FIRST OBS
                                                            END OF HEADER
 11  8 15  0  0  0.0000000  0  8G28G09G02G17G10G04G05G12
 125174972.751 6  97538997.20543  23820016.664                    23820026.625
 118820564.321 6  92587415.83044  22610783.250                    22610792.586
 109394365.324 8  85242475.85246  20817035.539                    20817040.988
 117844204.466 7  91826746.884 7  22424999.227                    22425006.863
 111967071.244 8  87247181.40545  21306611.125                    21306618.859
 108322739.552 8  84407472.80846  20613116.047                    20613124.098
 123850780.647 7  96507175.574 6  23568018.695                    23568029.359
 118615851.865 7  92428019.445 7  22571849.148                    22571856.453
 11  8 15  0  0 30.0000000  0  8G28G09G02G17G10G04G05G12
 125271504.879 6  97614216.96443  23838385.695                    23838396.203
 118875006.261 7  92629838.07444  22621143.352                    22621152.160
 109366655.660 8  85220883.93546  20811762.523                    20811767.992
 117886695.282 7  91859856.581 7  22433084.648                    22433092.043
 111917677.546 8  87208692.83945  21297211.719                    21297219.586
 108380364.705 8  84452375.49846  20624081.359                    20624089.723
 123745723.529 7  96425313.054 6  23548027.117                    23548037.680
 118529684.155 7  92360875.797 7  22555452.172                    22555459.574
 11  8 15  0  1  0.0000000  0  8G28G09G02G17G10G04G05G12
 125368277.291 6  97689623.95543  23856801.695                    23856811.621
 118929881.543 6  92672597.98744  22631585.141                    22631595.270
 109339306.801 8  85199573.16846  20806558.133                    20806563.742
 117929294.552 7  91893050.795 7  22441191.281                    22441199.016
 111868797.763 8  87170604.72845  21287910.297                    21287918.254
 108438316.129 8  84497532.43546  20635109.219                    20635117.074
 123640725.668 7  96343496.682 6  23528046.563                    23528056.934
 118443743.089 7  92293908.732 7  22539097.836                    22539105.344
 11  8 15  0  1 30.0000000  0  8G28G09G02G17G10G04G05G12
 125465288.160 6  97765216.70742  23875263.125                    23875272.930
 118985187.083 7  92715693.18444  22642109.438                    22642119.281
 109312318.020 8  85178542.97646  20801422.461                    20801427.797
 117972002.822 7  91926329.958 7  22449318.336                    22449326.508
 111820434.043 8  87132918.74845  21278707.313                    21278714.801
 108496591.792 8  84542942.01946  20646198.570                    20646206.512
 123535789.811 7  96261728.620 6  23508078.172                    23508088.301
 118358031.238 7  92227120.311 7  22522787.195                    22522795.309
 11  8 15  0  2  0.0000000  0  8G28G09G02G17G10G04G05G12
 125562535.722 6  97840993.93842  23893767.602                    23893777.965
 119040919.890 7  92759121.29644  22652715.891                    22652724.793
 109285688.763 8  85157792.93346  20796354.906                    20796360.406
 118014820.541 7  91959694.398 7  22457466.680                    22457473.832
 111772588.589 8  87095636.59745  21269602.203                    21269610.242
 108555188.953 8  84588602.11646  20657349.102                    20657357.496
 123430918.620 7  96180010.954 6  23488121.109                    23488131.777
 118272551.137 7  92160512.472 7  22506521.414                    22506529.109
 11  8 15  0  2 30.0000000  0  8G28G09G02G17G10G04G05G12
 125660017.640 6  97916953.76143  23912318.266                    23912327.922
 119097076.940 7  92802879.99444  22663401.422                    22663411.348
 109259418.562 8  85137322.66946  20791356.156                    20791361.414
 118057748.181 7  91993144.484 7  22465635.641                    22465643.238
 111725263.675 8  87058760.06745  21260596.672                    21260604.410
 108614105.187 8  84634510.85546  20668560.813                    20668568.547
 123326115.232 7  96098346.122 6  23468178.375                    23468188.500
 118187305.304 7  92094087.156 6  22490299.625                    22490306.309
 11  8 15  0  3  0.0000000  0  8G28G09G02G17G10G04G05G12
 125757732.034 6  97993094.70343  23930913.195                    23930921.809
 119153654.569 7  92846966.41444  22674168.172                    22674177.691
 109233506.630 8  85117131.57646  20786424.898                    20786430.859
 118100786.284 7  92026680.651 7  22473825.102                    22473832.523
 111678461.673 8  87022290.99945  21251690.398                    21251698.781
 108673338.042 8  84680666.31046  20679832.625                    20679840.422
 123221382.263 7  96016736.169 6  23448248.289                    23448258.156
 118102296.343 7  92027846.421 7  22474122.750                    22474130.344
 11  8 15  0  3 30.0000000  0  8G28G09G02G17G10G04G05G12
 125855677.183 6  98069415.51943  23949550.992                    23949560.395
 119210650.103 7  92891378.46944  22685015.102                    22685023.371
 109207952.588 8  85097219.35946  20781562.023                    20781567.922
 118143935.571 7  92060303.458 7  22482036.172                    22482044.254
 111632185.193 8  86986231.42346  21242884.320                    21242891.961
 108732885.245 8  84727066.71746  20691164.023                    20691171.602
 123116722.789 7  95935183.476 6  23428331.539                    23428342.105
 118017526.893 7  91961792.353 7  22457991.625                    22457999.430
 11  8 15  0  4  0.0000000  0  8G28G09G02G17G10G04G05G12
 125953851.479 6  98145914.84343  23968233.414                    23968242.527
 119268061.061 7  92936114.24244  22695939.039                    22695948.746
 109182756.555 8  85077586.11446  20776767.094                    20776773.008
 118187196.728 7  92094013.435 7  22490268.531                    22490276.270
 111586437.055 8  86950583.55846  21234178.719                    21234186.484
 108792744.770 8  84773710.48246  20702555.055                    20702562.645
 123012139.869 7  95853690.412 6  23408430.211                    23408440.039
 117932999.614 7  91895926.961 7  22441906.367                    22441913.977
 11  8 15  0  4 30.0000000  0  8G28G09G02G17G10G04G05G12
 126052252.902 6  98222591.15743  23986958.242                    23986968.387
 119325883.883 6  92981170.94244  22706942.758                    22706952.031
 109157917.669 8  85058231.15846  20772040.875                    20772046.418
 118230570.198 7  92127810.917 7  22498522.188                    22498530.266
 111541218.964 8  86915348.71145  21225573.938                    21225581.992
 108852913.883 8  84820595.49246  20714004.453                    20714012.453
 122907636.466 7  95772259.299 6  23388544.742                    23388553.629
 117848717.030 7  91830252.261 7  22425867.633                    22425876.457
 11  8 15  0  5  0.0000000  0  8G28G09G02G17G10G04G05G12
 126150879.430 6  98299442.85843  24005726.086                    24005736.211
 119384115.201 7  93026545.96444  22718023.492                    22718033.660
 109133435.089 8  85039153.84346  20767381.953                    20767387.371
 118274056.548 7  92161696.366 7  22506797.789                    22506805.500
 111496532.953 8  86880528.47045  21217070.539                    21217078.641
 108913390.016 8  84867719.73446  20725512.961                    20725520.867
 122803215.053 7  95690892.095 6  23368673.258                    23368682.664
 117764681.546 7  91764770.129 7  22409876.625                    22409884.332
 11  8 15  0  5 30.0000000  0  8G28G09G02G17G10G04G05G12
 126249729.256 6  98376468.58743  24024536.773                    24024547.125
 119442752.390 7  93072237.24944  22729182.359                    22729191.535
 109109308.795 8  85020354.16346  20762790.773                    20762796.059
 118317656.543 7  92195670.344 7  22515094.633                    22515102.180
 111452381.850 8  86846125.04245  21208668.766                    21208676.836
 108974171.445 8  84915081.87146  20737079.203                    20737087.281
 122698878.983 7  95609591.408 6  23348818.203                    23348827.996
 117680896.328 7  91699482.954 7  22393933.109                    22393940.105
 11  8 15  0  6  0.0000000  0  8G28G09G02G17G10G04G05G12
 126348800.412 6  98453666.75343  24043390.125                    24043399.520
 119501791.903 7  93118242.01344  22740416.930                    22740426.383
 109085537.554 8  85001831.13346  20758267.000                    20758272.875
 118361370.293 7  92229732.982 7  22523412.875                    22523420.520
 111408767.270 8  86812139.67345  21200369.047                    21200377.348
 109035255.322 8  84962679.68346  20748703.102                    20748711.012
 122594631.221 7  95528359.535 6  23328980.086                    23328989.965
 117597363.024 7  91634392.122 7  22378037.148                    22378045.230
 11  8 15  0  6 30.0000000  0  8G28G09G02G17G10G04G05G12
 126448091.354 6  98531036.18243  24062284.703                    24062294.344
 119561231.049 7  93164558.19944  22751727.594                    22751737.406
 109062121.608 8  84983584.95546  20753811.430                    20753816.918
 118405199.142 7  92263885.307 7  22531753.219                    22531760.949
 111365691.854 8  86778574.44046  21192172.133                    21192179.953
 109096639.473 8  85010511.47146  20760384.117                    20760391.773
 122490474.074 7  95447198.245 6  23309159.336                    23309169.809
 117514084.894 7  91569500.123 7  22362189.516                    22362196.840
 11  8 15  0  7  0.0000000  0  8G28G09G02G17G10G04G05G12
 126547599.387 6  98608574.79843  24081219.969                    24081230.363
 119621066.466 6  93211183.16144  22763114.250                    22763123.094
 109039059.533 8  84965614.52646  20749422.609                    20749427.938
 118449142.898 7  92298127.141 7  22540115.367                    22540123.340
 111323157.587 8  86745430.87645  21184078.148                    21184085.949
 109158321.160 8  85058575.10246  20772121.734                    20772129.586
 122386411.039 7  95366110.262 6  23289357.219                    23289366.855
 117431064.105 7  91504808.628 7  22346391.133                    22346398.879
 11  8 15  0  7 30.0000000  0  8G28G09G02G17G10G04G05G12
 126647322.797 5  98686281.22943  24100196.945                    24100207.336
 119681295.158 7  93258114.54444  22774575.055                    22774584.406
 109016351.356 8  84947919.86446  20745101.438                    20745107.016
 118493202.416 7  92332459.185 7  22548499.352                    22548507.578
 111281166.982 8  86712710.94345  21176087.414                    21176095.754
 109220298.518 8  85106869.13946  20783915.820                    20783923.902
 122282445.393 7  95285098.181 6  23269573.313                    23269583.012
 117348303.649 7  91440320.012 7  22330642.180                    22330649.898
 11  8 15  0  8  0.0000000  0  8G28G09G02G17G10G04G05G12
 126747260.011 5  98764154.25943  24119214.273                    24119225.602
 119741913.947 7  93305349.92644  22786110.852                    22786120.195
 108993996.198 8  84930500.27346  20740847.711                    20740852.883
 118537378.476 7  92366882.047 7  22556905.969                    22556914.285
 111239722.041 8  86680416.19646  21168200.922                    21168209.035
 109282568.978 8  85155391.55446  20795765.586                    20795773.301
 122178579.312 7  95204163.692 7  23249807.695                    23249818.105
 117265805.873 7  91376036.060 7  22314943.484                    22314950.957
 11  8 15  0  8 30.0000000  0  8G28G09G02G17G10G04G05G12
 126847408.642 5  98842191.99442  24138272.336                    24138282.977
 119802919.654 7  93352886.78444  22797719.320                    22797728.637
 108971993.425 8  84913355.26846  20736660.336                    20736666.109
 118581671.239 7  92401395.832 7  22565334.641                    22565342.699
 111198824.935 8  86648548.34046  21160418.320                    21160426.332
 109345130.056 8  85204140.43346  20807670.516                    20807678.641
 122074816.011 7  95123309.275 7  23230062.094                    23230072.605
 117183573.541 8  91311958.942 7  22299295.805                    22299302.770
 11  8 15  0  9  0.0000000  0  8G28G09G02G17G10G04G05G12
 126947766.560 6  98920392.86642  24157369.125                    24157380.086
 119864309.124 6  93400722.68344  22809401.922                    22809411.379
 108950342.423 8  84896484.36546  20732540.375                    20732546.270
 118626081.599 7  92436001.254 7  22573785.523                    22573793.383
 111158477.256 8  86617108.60445  21152740.305                    21152748.203
 109407979.158 8  85253113.74046  20819630.141                    20819638.281
 121971158.523 7  95042537.319 7  23210337.172                    23210346.969
 117101608.855 7  91248090.402 7  22283698.289                    22283705.473
 11  8 15  0  9 30.0000000  0  8G28G09G02G17G10G04G05G12
 127048332.239 6  98998755.61942  24176507.023                    24176517.863
 119926079.136 7  93448855.11844  22821156.039                    22821165.891
 108929042.635 8  84879887.14546  20728487.094                    20728492.734
 118670610.182 7  92470698.789 7  22582259.328                    22582267.305
 111118681.564 8  86586098.99145  21145167.609                    21145175.285
 109471114.393 8  85302310.00346  20831644.602                    20831652.398
 121867609.621 7  94961849.971 7  23190632.719                    23190642.645
 117019914.638 7  91184432.602 7  22268151.797                    22268159.367
 11  8 15  0 10  0.0000000  0  8G28G09G02G17G10G04G05G12
 127149103.566 6  99077278.67843  24195682.875                    24195694.227
 119988226.291 7  93497281.41244  22832982.273                    22832992.145
 108908093.405 8  84863563.07246  20724500.539                    20724506.277
 118715257.479 7  92505488.830 7  22590755.250                    22590763.652
 111079439.614 8  86555520.87346  21137699.922                    21137707.801
 109534533.100 8  85351727.16546  20843712.758                    20843720.676
 121764172.328 7  94881249.568 7  23170948.984                    23170958.625
 116938493.480 7  91120987.568 7  22252658.141                    22252665.535
 11  8 15  0 10 30.0000000  0  8G28G09G02G17G10G04G05G12
 127250078.624 6  99155960.45743  24214898.281                    24214908.961
 120050747.888 7  93545999.49244  22844879.406                    22844888.855
 108887493.985 8  84847511.58846  20720580.945                    20720585.863
 118760024.037 7  92540371.807 7  22599274.250                    22599282.086
 111040753.684 8  86525376.00646  21130338.047                    21130346.480
 109598233.048 8  85401363.47146  20855833.977                    20855842.324
 121660849.643 7  94800738.487 7  23151287.039                    23151296.734
 116857347.755 7  91057757.149 7  22237216.602                    22237223.840
 11  8 15  0 11  0.0000000  0  8G28G09G02G17G10G04G05G12
 127351255.623 6  99234799.60743  24234151.680                    24234162.309
 120113640.710 7  93595006.81244  22856848.539                    22856857.496
 108867244.132 8  84831732.49246  20716727.508                    20716732.840
 118804911.154 7  92575348.734 7  22607816.203                    22607823.734
 111002626.234 8  86495666.34045  21123082.430                    21123090.902
 109662212.096 8  85451217.25546  20868009.305                    20868016.840
 121557644.877 7  94720319.328 6  23131647.773                    23131657.445
 116776480.539 7  90994743.753 7  22221827.781                    22221835.402
 11  8 15  0 11 30.0000000  0  8G28G09G02G17G10G04G05G12
 127452632.687 6  99313794.62843  24253442.672                    24253453.633
 120176901.511 6  93644300.88344  22868886.148                    22868895.930
 108847343.122 8  84816225.22746  20712940.391                    20712945.672
 118849919.045 7  92610419.767 7  22616380.797                    22616388.086
 110965059.038 8  86466393.22246  21115934.250                    21115942.102
 109726467.975 8  85501286.75946  20880236.469                    20880244.699
 121454560.912 7  94639994.266 6  23112031.070                    23112041.199
 116695894.545 7  90931949.506 7  22206492.688                    22206500.613
 11  8 15  0 12  0.0000000  0  8G28G09G02G17G10G04G05G12
 127554207.692 6  99392943.86843  24272771.758                    24272782.465
 120240527.241 7  93693879.32144  22880994.250                    22881003.230
 108827790.479 8  84800989.41646  20709219.461                    20709225.020
 118895048.166 7  92645585.280 6  22624968.797                    22624976.195
 110928054.309 8  86437558.38246  21108892.531                    21108900.000
 109790998.588 8  85551570.32446  20892516.914                    20892524.676
 121351600.838 7  94559765.732 6  23092438.656                    23092447.973
 116615592.233 7  90869376.285 7  22191212.133                    22191219.125
 11  8 15  0 12 30.0000000  0  8G28G09G02G17G10G04G05G12
 127655978.266 6  99472245.55943  24292137.727                    24292148.582
 120304513.684 7  93743738.82344  22893169.766                    22893179.617
 108808584.677 8  84786023.86446  20705564.625                    20705570.137
 118940298.664 7  92680845.356 6  22633579.898                    22633587.484
 110891612.631 8  86409162.28546  21101957.875                    21101965.789
 109855800.709 8  85602065.46946  20904847.773                    20904856.020
 121248766.714 7  94479635.340 7  23072870.156                    23072879.387
 116535575.658 7  90807025.730 7  22175984.734                    22175992.539
 11  8 15  0 13  0.0000000  0  8G28G09G02G17G10G04G05G12
 127757941.899 6  99551697.67043  24311541.117                    24311551.910
 120368857.952 7  93793877.16844  22905414.531                    22905424.207
 108789725.104 8  84771328.11646  20701975.672                    20701981.520
 118985671.257 7  92716200.601 7  22642213.664                    22642221.508
 110855736.280 8  86381206.71246  21095130.406                    21095138.574
 109920871.908 8  85652770.28246  20917230.461                    20917238.750
 121146062.095 7  94399605.877 6  23053325.875                    23053335.094
 116455847.509 7  90744899.917 7  22160813.188                    22160821.000
 11  8 15  0 13 30.0000000  0  8G30G09G02G17G10G04G05G12
 128026485.40814                  24362641.641
 120433557.500 7  93844292.31544  22917726.313                    22917735.867
 108771211.742 8  84756902.13046  20698453.305                    20698458.430
 119031167.420 7  92751652.117 7  22650871.719                    22650878.887
 110820428.295 8  86353694.01646  21088411.672                    21088419.672
 109986210.705 8  85703683.61446  20929664.055                    20929672.105
 121043490.438 7  94319680.000 7  23033806.641                    23033816.219
 116376410.910 7  90683001.267 7  22145697.227                    22145704.438
 11  8 15  0 14  0.0000000  0  8G30G09G02G17G10G04G05G12
 127920143.08014                  24342405.609
 120498608.664 7  93894981.46344  22930105.086                    22930114.574
 108753043.534 8  84742745.10346  20694995.516                    20695001.320
 119076787.178 7  92787199.954 7  22659552.828                    22659560.559
 110785689.971 8  86326625.21046  21081801.398                    21081809.387
 110051814.338 8  85754803.29646  20942148.328                    20942156.457
 120941053.984 7  94239859.487 6  23014314.180                    23014323.320
 116297268.152 8  90621331.601 7  22130636.656                    22130644.344
 11  8 15  0 14 30.0000000  0  7G09G02G17G10G04G05G12
 120564008.077 7  93945941.98044  22942550.188                    22942560.020
 108735219.770 8  84728856.47246  20691603.680                    20691609.387
 119122530.972 7  92822844.430 7  22668256.773                    22668265.246
 110751523.038 8  86300001.64146  21075299.297                    21075307.320
 110117680.460 8  85806127.52946  20954682.102                    20954690.152
 120838755.849 7  94160146.747 6  22994847.422                    22994856.523
 116218421.923 7  90559892.996 7  22115632.820                    22115640.000
 11  8 15  0 15  0.0000000  0  7G09G02G17G10G04G05G12
 120629752.031 7  93997170.98044  22955061.102                    22955070.883
 108717739.257 8  84715235.30946  20688277.188                    20688282.738
 119168399.538 7  92858586.145 7  22676985.828                    22676993.918
 110717928.960 8  86273824.45946  21068906.633                    21068915.012
 110183806.273 8  85857654.12146  20967265.445                    20967273.684
 120736598.792 7  94080543.947 7  22975407.453                    22975416.523
 116139874.287 7  90498687.058 7  22100685.570                    22100693.117
 11  8 15  0 15 30.0000000  0  7G09G02G17G10G04G05G12
 120695837.893 7  94048666.38744  22967637.047                    22967646.801
 108700602.101 8  84701881.70946  20685016.477                    20685021.766
 119214393.478 7  92894425.557 7  22685738.297                    22685746.516
 110684910.250 8  86248095.60646  21062622.984                    21062631.777
 110250190.112 8  85909381.76546  20979897.781                    20979905.941
 120634586.269 7  94001053.781 7  22955994.945                    22956004.719
 116061628.643 7  90437716.434 7  22085796.398                    22085803.625
 11  8 15  0 16  0.0000000  0  7G09G02G17G10G04G05G12
 120762261.899 7  94100425.26244  22980277.398                    22980286.559
 108683806.638 8  84688794.35446  20681819.930                    20681825.711
 119260513.272 7  92930363.033 7  22694514.578                    22694522.527
 110652467.867 8  86222815.84346  21056449.891                    21056457.738
 110316829.187 8  85961308.29946  20992578.664                    20992587.234
 120532720.767 7  93921678.171 7  22936610.492                    22936619.691
 115983686.602 7  90376982.394 7  22070964.336                    22070971.707
 11  8 15  0 16 30.0000000  0  7G09G02G17G10G04G05G12
 120829020.998 7  94152445.29044  22992981.320                    22992990.922
 108667352.582 8  84675973.02146  20678688.898                    20678694.418
 119306759.540 7  92966399.047 7  22703314.766                    22703323.238
 110620604.230 8  86197987.05446  21050386.250                    21050394.418
 110383721.371 8  86013432.05646  21005308.203                    21005316.148
 120431005.613 7  93842419.707 7  22917254.695                    22917264.211
 115906051.407 8  90316487.439 7  22056190.758                    22056198.391
 11  8 15  0 17  0.0000000  0  7G09G02G17G10G04G05G12
 120896111.906 7  94204723.85344  23005748.273                    23005757.488
 108651239.042 8  84663417.03146  20675622.469                    20675627.910
 119353132.940 7  93002534.128 7  22712139.508                    22712147.383
 110589320.749 8  86173610.33646  21044433.141                    21044441.559
 110450864.345 8  86065751.24846  21018084.789                    21018092.766
 120329443.675 7  93763280.620 7  22897927.867                    22897937.438
 115828725.488 7  90256233.478 7  22041475.977                    22041483.438
 11  8 15  0 17 30.0000000  0  7G09G02G17G10G04G05G12
 120963531.113 7  94257258.21244  23018577.188                    23018587.387
 108635464.974 8  84651125.56346  20672621.188                    20672626.668
 119399633.789 7  93038768.528 7  22720988.172                    22720996.719
 110558618.966 8  86149686.88546  21038591.000                    21038599.180
 110518255.519 8  86118263.83746  21030908.906                    21030916.984
 120228037.639 7  93684263.014 7  22878630.773                    22878640.680
 115751711.435 7  90196222.543 7  22026820.625                    22026828.609
 11  8 15  0 18  0.0000000  0  8G30G09G02G17G10G04G05G12
 127075020.19415                  24181587.359
 121031275.804 7  94310046.24744  23031468.758                    23031478.363
 108620030.176 8  84639098.45946  20669683.797                    20669689.434
 119446263.277 7  93075103.160 7  22729861.273                    22729870.035
 110528501.011 8  86126218.36246  21032859.547                    21032867.602
 110585893.077 8  86170968.40946  21043779.914                    21043788.086
 120126790.851 7  93605369.460 7  22859364.219                    22859373.414
 115675011.816 7  90136456.636 7  22012225.039                    22012232.887
 11  8 15  0 18 30.0000000  0  8G30G09G02G17G10G04G05G12
 126970129.46215                  24161626.891
 121099341.643 7  94363084.48944  23044422.203                    23044431.355
 108604932.984 8  84627334.42946  20666811.047                    20666816.492
 119493021.371 7  93111537.994 7  22738759.305                    22738767.660
 110498967.851 8  86103205.53346  21027239.539                    21027247.863
 110653774.065 8  86223862.68046  21056697.617                    21056705.609
 120025706.278 7  93526602.393 7  22840128.219                    22840137.668
 115598628.964 7  90076937.523 7  21997690.047                    21997697.473
 11  8 15  0 19  0.0000000  0  8G30G09G02G17G10G04G05G12
 126865414.14015                  24141699.469
 121167726.354 7  94416371.22944  23057434.719                    23057444.484
 108590173.656 8  84615833.66646  20664002.383                    20664007.750
 119539909.393 7  93148074.094 7  22747681.930                    22747690.055
 110470021.836 8  86080650.20846  21021731.477                    21021739.598
 110721897.111 8  86276945.55746  21069660.781                    21069669.000
 119924786.904 7  93447964.007 7  22820924.227                    22820933.152
 115522565.962 7  90017667.686 7  21983215.836                    21983223.766
 11  8 15  0 19 30.0000000  0  8G30G09G02G17G10G04G05G12
 126760876.58115                  24121805.992
 121236426.177 7  94469903.49344  23070507.539                    23070517.359
 108575751.114 8  84604595.32546  20661257.883                    20661263.609
 119586927.710 7  93184711.708 7  22756629.227                    22756637.500
 110441664.243 7  86058553.40446  21016334.750                    21016343.145
 110790259.250 8  86330214.74646  21082669.531                    21082677.488
 119824035.857 7  93369456.780 7  22801751.273                    22801760.656
 115446825.415 7  89958649.090 7  21968802.797                    21968810.168
 11  8 15  0 20  0.0000000  0  8G30G09G02G17G10G04G05G12
 126656518.57115                  24101948.664
 121305436.873 7  94523678.00644  23083640.664                    23083649.910
 108561662.771 8  84593617.40946  20658576.938                    20658582.195
 119634076.000 7  93221450.602 7  22765601.641                    22765610.020
 110413895.668 7  86036915.57546  21011051.031                    21011058.898
 110858857.575 8  86383667.98546  21095723.609                    21095731.320
 119723455.276 7  93291082.384 7  22782611.727                    22782620.375
 115371408.791 7  89899882.909 7  21954451.297                    21954459.246
 11  8 15  0 20 30.0000000  0  8G30G09G02G17G10G04G05G12
 126552344.11215                  24082124.125
 121374756.322 7  94577693.10844  23096831.875                    23096841.566
 108547909.910 8  84582900.89646  20655959.813                    20655965.570
 119681356.024 7  93258292.132 7  22774598.344                    22774606.629
 110386718.814 8  86015738.81846  21005879.258                    21005887.191
 110927690.762 8  86437304.23246  21108821.766                    21108830.145
 119623049.119 7  93212843.877 7  22763505.398                    22763513.762
 115296319.701 7  89841371.942 7  21940162.633                    21940170.129
 11  8 15  0 21  0.0000000  0  8G30G09G02G17G10G04G05G12
 126448355.926 6  98531276.31552  24062335.164                    24062345.211
 121444381.189 7  94631946.19944  23110081.211                    23110090.586
 108534491.574 8  84572445.05346  20653406.242                    20653411.660
 119728768.175 7  93295236.618 7  22783620.617                    22783628.465
 110360135.155 7  85995024.30746  21000820.477                    21000828.500
 110996756.631 8  86491121.79246  21121965.016                    21121973.090
 119522820.365 7  93134743.637 7  22744432.547                    22744441.297
 115221560.781 7  89783118.259 7  21925935.773                    21925943.855
 11  8 15  0 21 30.0000000  0  8G30G09G02G17G10G04G05G12
 126344556.848 6  98450393.95743  24042583.523                    24042592.992
 121514308.178 7  94686434.69844  23123387.766                    23123397.070
 108521407.038 8  84562249.30846  20650916.508                    20650921.902
 119776313.161 7  93332284.623 7  22792668.516                    22792676.180
 110334146.497 8  85974773.42946  20995875.102                    20995882.863
 111066052.922 8  86545118.89446  21135151.219                    21135159.625
 119422771.918 7  93056783.890 7  22725393.453                    22725401.871
 115147134.985 8  89725124.138 7  21911773.664                    21911781.090
 11  8 15  0 22  0.0000000  0  8G30G09G02G17G10G04G05G12
 126240948.768 6  98369660.40242  24022867.477                    24022876.664
 121584533.261 7  94741155.48044  23136750.641                    23136760.184
 108508653.892 8  84552311.79146  20648489.617                    20648495.027
 119823990.879 7  93369436.051 7  22801741.672                    22801749.098
 110308752.891 8  85954986.22046  20991042.703                    20991051.211
 111135576.327 8  86599292.96146  21148381.625                    21148389.250
 119322905.826 7  92978966.226 7  22706389.609                    22706398.855
 115073043.405 7  89667390.467 7  21897674.133                    21897682.191
 11  8 15  0 22 30.0000000  0  8G30G09G02G17G10G04G05G12
 126137535.061 5  98289078.33242  24003189.117                    24003197.199
 121655053.459 7  94796106.21044  23150170.234                    23150179.957
 108496232.396 8  84542632.70546  20646125.422                    20646131.121
 119871802.569 7  93406691.879 6  22810839.555                    22810846.875
 110283956.892 8  85935664.67546  20986324.359                    20986332.367
 111205325.231 8  86653642.75046  21161654.180                    21161662.586
 119223225.913 7  92901293.648 7  22687421.281                    22687429.828
 114999289.411 7  89609919.840 7  21883639.086                    21883647.082
 11  8 15  0 23  0.0000000  0  7G09G02G17G10G04G05G12
 121725865.304 6  94851284.22944  23163645.391                    23163655.602
 108484141.452 8  84533211.18446  20643824.766                    20643830.484
 119919748.584 7  93444052.345 7  22819963.063                    22819970.758
 110259759.891 8  85916809.87646  20981719.633                    20981727.871
 111275297.327 8  86708166.45746  21174969.516                    21174977.590
 119123735.250 7  92823768.533 7  22668488.930                    22668497.840
 114925875.842 8  89552714.479 7  21869669.180                    21869676.188
 11  8 15  0 23 30.0000000  0  8G30G09G02G17G10G04G05G12
 125931298.53915                  23963944.133
 121796964.987 7  94906686.50144  23177175.336                    23177185.465
 108472379.834 8  84524046.29146  20641586.828                    20641592.328
 119967829.573 7  93481518.013 6  22829112.523                    22829120.906
 110236162.589 8  85898422.37846  20977229.297                    20977237.613
 111345490.205 8  86762862.18746  21188326.602                    21188334.887
 119024436.279 7  92746392.785 7  22649592.453                    22649601.766
 114852804.853 7  89495776.057 7  21855764.531                    21855772.004
 11  8 15  0 24  0.0000000  0  8G30G09G02G17G10G04G05G12
 125828484.686 6                  23944378.391
 121868349.975 7  94962311.10644  23190759.953                    23190769.012
 108460947.522 8  84515137.99246  20639411.234                    20639417.086
 120016046.337 7  93519089.480 6  22838287.805                    22838295.961
 110213167.111 7  85880503.84546  20972853.891                    20972861.223
 111415902.076 8  86817728.57046  21201725.367                    21201733.652
 118925332.950 7  92669169.492 7  22630733.773                    22630742.703
 114780079.300 8  89439106.816 7  21841925.305                    21841932.742
 11  8 15  0 24 30.0000000  0  8G30G09G02G17G10G04G05G12
 125725875.975 5                  23924852.805
 121940016.236 7  95018154.88144  23204397.203                    23204406.938
 108449842.793 8  84506484.95146  20637298.133                    20637303.734
 120064399.083 7  93556766.916 6  22847489.289                    22847497.176
 110190773.995 7  85863054.67746  20968591.938                    20968599.918
 111486530.084 8  86872763.36745  21215165.633                    21215173.703
 118826427.309 7  92592100.242 7  22611912.750                    22611921.676
 114707701.404 7  89382708.472 7  21828152.008                    21828159.410
 11  8 15  0 25  0.0000000  0  8G30G09G02G17G10G04G05G12
 125623475.950 5                  23905366.383
 122011961.068 7  95074215.70244  23218088.227                    23218097.805
 108439065.452 8  84498087.02046  20635247.391                    20635252.926
 120112889.049 7  93594551.261 6  22856716.633                    22856724.383
 110168985.623 7  85846076.74046  20964445.680                    20964453.949
 111557372.755 8  86927965.43346  21228646.570                    21228654.859
 118727722.793 7  92515187.721 7  22593129.922                    22593138.410
 114635673.984 7  89326583.223 7  21814445.578                    21814452.965
 11  8 15  0 25 30.0000000  0  8G30G09G02G17G10G04G05G12
 125521286.692 5  97808877.44552  23885920.406                    23885927.547
 122084180.260 7  95130490.34544  23231830.211                    23231841.414
 108428613.873 8  84489942.94046  20633258.234                    20633264.055
 120161516.296 7  93632442.569 6  22865970.547                    22865978.480
 110147802.283 7  85829570.24746  20960414.734                    20960422.922
 111628427.110 8  86983332.44046  21242167.930                    21242175.734
 118629222.028 7  92438433.929 7  22574385.672                    22574394.180
 114563999.351 7  89270732.882 7  21800806.641                    21800813.484
 11  8 15  0 26  0.0000000  0  8G30G09G02G17G10G04G05G12
 125419311.335 6  97729416.24742  23866515.805                    23866523.289
 122156670.633 6  95186976.29244  23245625.000                    23245635.012
 108418487.354 8  84482052.14446  20631331.227                    20631336.613
 120210281.593 7  93670441.479 6  22875249.719                    22875257.996
 110127225.575 7  85813536.45346  20956499.367                    20956507.465
 111699691.085 7  87038862.78246  21255728.984                    21255736.836
 118530928.438 7  92361841.592 7  22555681.133                    22555689.867
 114492680.271 8  89215159.567 7  21787235.227                    21787242.051
 11  8 15  0 26 30.0000000  0  8G30G09G02G17G10G04G05G12
 125317552.963 6  97650124.05842  23847151.609                    23847160.277
 122229429.166 7  95243671.17044  23259471.430                    23259481.000
 108408685.473 8  84474414.32046  20629466.594                    20629471.980
 120259185.694 7  93708548.523 7  22884555.914                    22884564.566
 110107256.815 8  85797976.38845  20952699.031                    20952707.281
 111771162.769 8  87094554.97945  21269329.242                    21269337.625
 118432844.851 7  92285412.885 7  22537016.469                    22537025.387
 114421719.396 8  89159865.400 7  21773731.305                    21773738.641
 11  8 15  0 27  0.0000000  0  8G30G09G02G17G10G04G05G12
 125216013.892 6  97571002.73242  23827828.828                    23827838.090
 122302452.134 7  95300572.10544  23273366.953                    23273376.836
 108399206.877 8  84467028.40446  20627662.313                    20627667.945
 120308228.974 7  93746764.028 6  22893888.641                    22893897.219
 110087896.644 8  85782890.55946  20949015.203                    20949023.152
 111842839.669 8  87150407.08145  21282969.109                    21282977.371
 118334974.165 7  92209150.079 7  22518391.828                    22518400.242
 114351118.955 8  89104852.080 7  21760296.641                    21760303.848
 11  8 15  0 27 30.0000000  0  8G30G09G02G17G10G04G05G12
 125114696.999 6  97492054.52442  23808549.047                    23808558.078
 122375736.418 7  95357676.68644  23287311.516                    23287321.926
 108390050.539 8  84459893.60046  20625919.883                    20625925.738
 120357411.933 7  93785088.378 6  22903248.023                    22903256.211
 110069146.429 8  85768280.01446  20945446.609                    20945454.633
 111914719.521 8  87206417.33245  21296647.680                    21296655.426
 118237319.248 7  92133055.401 7  22499808.828                    22499817.320
 114280881.340 7  89050121.483 7  21746930.594                    21746937.715
 11  8 15  0 28  0.0000000  0  8G30G09G02G17G10G04G05G12
 125013605.434 6  97413281.87842  23789312.242                    23789320.555
 122449278.664 6  95414982.27344  23301306.789                    23301317.297
 108381215.976 8  84453009.52646  20624238.766                    20624244.371
 120406735.605 7  93823522.377 7  22912633.852                    22912642.441
 110051007.897 8  85754146.09246  20941995.227                    20942003.590
 111986800.486 8  87262584.28745  21310364.102                    21310371.863
 118139883.621 7  92057131.610 7  22481266.781                    22481276.359
 114211009.415 8  88995675.846 7  21733634.625                    21733642.129
 11  8 15  0 28 30.0000000  0  8G30G09G02G17G10G04G05G12
 124912741.893 6  97334686.97343  23770118.094                    23770127.195
 122523075.316 7  95472486.08844  23315350.039                    23315360.008
 108372701.790 8  84446375.10146  20622618.578                    20622624.211
 120456200.312 7  93862066.275 7  22922047.047                    22922055.453
 110033481.776 8  85740489.37846  20938660.641                    20938668.102
 112059079.927 8  87318905.89645  21324118.523                    21324126.184
 118042669.878 7  91981380.693 7  22462768.039                    22462776.516
 114141505.558 7  88941516.998 7  21720408.453                    21720415.535
 11  8 15  0 29  0.0000000  0  8G30G09G02G17G10G04G05G12
 124812108.799 6  97256271.60643  23750968.773                    23750977.191
 122597122.568 7  95530185.18244  23329440.961                    23329450.473
 108364506.816 8  84439989.41946  20621059.859                    20621064.863
 120505806.586 7  93900720.470 7  22931487.023                    22931495.277
 110016568.823 8  85727310.46646  20935441.844                    20935449.914
 112131555.632 8  87375380.44845  21337910.328                    21337918.129
 117945680.793 7  91905804.845 7  22444311.195                    22444320.363
 114072372.182 7  88887646.840 7  21707252.859                    21707260.086
 11  8 15  0 29 30.0000000  0  8G30G09G02G17G10G04G05G12
 124711709.313 6  97178038.29843  23731863.156                    23731872.035
 122671417.304 7  95588077.10344  23343578.609                    23343588.301
 108356630.478 8  84433852.00946  20619560.539                    20619565.902
 120555555.234 7  93939485.602 7  22940953.773                    22940962.051
 110000270.336 8  85714610.35446  20932340.156                    20932348.148
 112204225.583 8  87432006.34745  21351739.078                    21351747.250
 117848919.676 7  91830406.637 7  22425898.305                    22425907.266
 114003611.879 7  88834067.394 7  21694168.094                    21694175.973
 11  8 15  0 30  0.0000000  0  8G30G09G02G17G10G04G05G12
 124611546.289 6  97099989.16243  23712802.789                    23712811.402
 122745956.227 7  95646159.31744  23357763.211                    23357772.855
 108349071.610 8  84427961.99246  20618122.008                    20618127.754
 120605446.544 7  93978361.924 6  22950447.797                    22950456.121
 109984587.196 8  85702389.72846  20929355.906                    20929363.871
 112277087.760 8  87488782.04345  21365604.313                    21365612.113
 117752389.344 7  91755188.256 7  22407529.203                    22407538.051
 113935227.244 7  88780780.686 7  21681154.836                    21681162.277
 11  8 15  0 30 30.0000000  0  8G30G09G02G17G10G04G05G12
 124511622.303 6  97022126.33943  23693787.430                    23693796.137
 122820735.838 7  95704429.09744  23371993.594                    23372002.961
 108341829.128 8  84422318.51246  20616743.719                    20616749.203
 120655481.176 7  94017349.898 7  22959969.148                    22959977.363
 109969520.626 8  85690649.55846  20926488.891                    20926496.461
 112350139.598 8  87545705.51845  21379504.914                    21379513.262
 117656092.662 7  91680151.935 7  22389204.766                    22389213.695
 113867220.544 8  88727788.459 7  21668213.664                    21668221.516
 11  8 15  0 31  0.0000000  0  9G30G25G09G02G17G10G04G05G12
 124411940.782 6  96944452.46943  23674818.938                    23674828.023
 128725329.54815 100305534.12415  24495624.883
 122895752.880 7  95762883.86544  23386268.375                    23386278.441
 108334902.614 8  84416921.23546  20615425.820                    20615431.309
 120705660.003 7  94056450.234 7  22969517.805                    22969526.430
 109955071.772 7  85679390.71646  20923739.383                    20923747.246
 112423379.387 7  87602775.43545  21393442.484                    21393450.723
 117560033.092 7  91605300.372 7  22370924.906                    22370933.934
 113799594.710 7  88675093.028 7  21655344.938                    21655352.371
 11  8 15  0 31 30.0000000  0  9G30G25G09G02G17G10G04G05G12
 124312504.156 6  96866969.41943  23655896.438                    23655906.172
 128622987.309 5 100225786.972 4  24476149.031
 122971003.462 6  95821520.66244  23400588.297                    23400598.391
 108328290.849 8  84411769.22546  20614167.414                    20614172.980
 120755983.290 7  94095663.147 7  22979094.070                    22979102.465
 109941240.889 8  85668613.40746  20921107.688                    20921115.285
 112496804.722 7  87659989.95945  21407414.930                    21407422.988
 117464213.139 7  91530635.541 7  22352691.133                    22352699.766
 113732351.787 7  88622695.933 7  21642548.977                    21642556.668
 11  8 15  0 32  0.0000000  0  9G30G25G09G02G17G10G04G05G12
 124213314.526 6  96789678.81143  23637021.680                    23637030.793
 128520769.943 5 100146137.054 4  24456697.523
 123046483.859 6  95880336.47644  23414951.961                    23414962.258
 108321991.996 8  84406861.03646  20612969.063                    20612974.531
 120806451.160 7  94134988.707 6  22988697.563                    22988705.613
 109928028.521 8  85658318.06946  20918593.008                    20918600.969
 112570412.647 8  87717346.74645  21421422.070                    21421430.246
 117368635.296 7  91456159.352 7  22334503.281                    22334511.879
 113665493.721 7  88570598.762 7  21629826.383                    21629834.133
 11  8 15  0 32 30.0000000  0  9G30G25G09G02G17G10G04G05G12
 124114375.741 6  96712583.65443  23618193.805                    23618202.684
 128418680.952 6 100066587.175 5  24437270.828
 123122191.726 6  95939329.54944  23429359.188                    23429368.695
 108316006.007 8  84402196.64246  20611829.711                    20611835.332
 120857064.954 7  94174427.960 6  22998329.422                    22998337.523
 109915436.450 8  85648506.07846  20916197.141                    20916205.066
 112644202.034 8  87774844.93445  21435463.789                    21435472.086
 117273303.201 7  91381874.658 7  22316362.219                    22316370.930
 113599023.934 8  88518804.135 7  21617177.445                    21617184.945
 11  8 15  0 33  0.0000000  0  9G30G25G09G02G17G10G04G05G12
 124015690.274 6  96635685.86643  23599415.078                    23599423.836
 128316722.168 6  99987138.785 5  24417868.930                    24417881.816
 123198123.210 7  95998496.87144  23443808.070                    23443817.645
 108310331.310 8  84397774.80246  20610750.023                    20610755.402
 120907825.098 7  94213981.275 6  23007988.539                    23007997.074
 109903464.982 8  85639177.67446  20913918.672                    20913926.891
 112718170.348 8  87832482.54045  21449539.422                    21449547.563
 117178219.601 7  91307783.597 7  22298268.266                    22298277.066
 113532944.208 8  88467313.455 7  21604603.086                    21604610.090
 11  8 15  0 33 30.0000000  0  9G30G25G09G02G17G10G04G05G12
 123917260.854 6  96558987.65943  23580684.211                    23580692.719
 128214896.252 6  99907793.956 5  24398492.547                    24398504.559
 123274274.907 6  96057835.81244  23458299.078                    23458308.906
 108304966.738 8  84393594.61946  20609729.086                    20609734.691
 120958732.172 7  94253649.081 6  23017675.992                    23017684.211
 109892115.036 8  85630333.57046  20911759.281                    20911766.855
 112792315.609 8  87890258.02945  21463648.992                    21463656.703
 117083387.426 7  91233888.441 7  22280222.305                    22280230.984
 113467257.247 8  88416128.818 7  21592103.289                    21592110.805
 11  8 15  0 34  0.0000000  0  9G30G25G09G02G17G10G04G05G12
 123819090.832 6  96482491.60343  23562003.406                    23562012.008
 128113206.308 6  99828555.074 6  24379141.125                    24379153.004
 123350643.493 6  96117343.74344  23472831.117                    23472842.395
 108299912.332 8  84389656.13246  20608767.359                    20608772.957
 121009787.077 7  94293432.066 6  23027392.102                    23027399.680
 109881388.082 8  85621974.91746  20909717.953                    20909725.555
 112866636.021 8  87948169.99745  21477791.445                    21477799.664
 116988810.303 7  91160192.035 7  22262224.695                    22262233.973
 113401966.446 8  88365252.883 7  21579678.750                    21579686.414
 11  8 15  0 34 30.0000000  0  9G30G25G09G02G17G10G04G05G12
 123721183.016 6  96406199.85043  23543371.531                    23543381.000
 128011654.628 6  99749423.894 6  24359817.719                    24359828.238
 123427225.717 7  96177018.12044  23487404.484                    23487415.070
 108295166.616 8  84385958.17646  20607864.156                    20607869.559
 121060990.103 7  94333330.462 6  23037134.883                    23037143.160
 109871284.749 8  85614102.20146  20907795.063                    20907803.180
 112941129.226 8  88006216.60945  21491967.133                    21491975.777
 116894490.730 7  91086696.321 7  22244276.297                    22244284.926
 113337073.566 8  88314687.015 7  21567329.992                    21567337.152
 11  8 15  0 35  0.0000000  0  9G30G25G09G02G17G10G04G05G12
 123623539.866 6  96330114.34743  23524790.391                    23524800.383
 127910243.581 6  99670402.325 6  24340518.563                    24340530.520
 123504017.724 7  96236855.99344  23502017.695                    23502027.629
 108290728.249 8  84382499.72046  20607019.781                    20607025.289
 121112341.693 7  94373344.644 6  23046907.000                    23046915.445
 109861805.167 8  85606715.51746  20905991.188                    20905999.461
 113015792.801 8  88064395.99145  21506174.930                    21506183.688
 116800431.594 7  91013403.545 7  22226377.492                    22226386.020
 113272580.386 8  88264432.596 7  21555057.773                    21555064.602
 11  8 15  0 35 30.0000000  0  9G30G25G09G02G17G10G04G05G12
 123526164.491 6  96254237.49643  23506261.148                    23506269.973
 127808975.848 6  99591492.421 6  24321248.148                    24321260.020
 123581016.497 7  96296854.98344  23516669.766                    23516680.984
 108286596.720 8  84379280.34846  20606233.594                    20606239.215
 121163842.900 7  94413475.397 7  23056707.570                    23056716.156
 109852950.490 8  85599815.78446  20904306.219                    20904314.422
 113090625.230 8  88122706.92445  21520415.313                    21520423.719
 116706635.913 7  90940316.066 7  22208528.461                    22208537.117
 113208490.073 8  88214492.097 7  21542861.250                    21542868.418
 11  8 15  0 36  0.0000000  0  9G30G25G09G02G17G10G04G05G12
 123429059.561 6  96178571.40444  23487783.102                    23487791.781
 127707853.737 6  99512695.996 6  24302004.805                    24302017.152
 123658218.272 6  96357012.14844  23531361.305                    23531371.738
 108282770.187 8  84376298.64146  20605505.008                    20605510.590
 121215493.825 7  94453722.828 6  23066536.422                    23066544.488
 109844721.183 8  85593403.34746  20902740.383                    20902747.910
 113165623.910 8  88181147.40645  21534687.117                    21534694.863
 116613106.562 7  90867436.109 7  22190730.836                    22190738.793
 113144804.750 8  88164867.179 7  21530742.719                    21530749.922
 11  8 15  0 36 30.0000000  0  9G30G25G09G02G17G10G04G05G12
 123332228.255 6  96103118.48144  23469356.570                    23469364.898
 127606880.232 5  99434015.425 6  24282789.711                    24282802.520
 123735620.166 7  96417325.22543  23546089.961                    23546100.430
 108279248.353 8  84373554.36146  20604835.063                    20604840.688
 121267295.508 7  94494087.728 6  23076393.992                    23076401.906
 109837118.096 8  85587478.87646  20901293.414                    20901301.258
 113240786.991 8  88239716.00545  21548989.930                    21548998.699
 116519846.870 7  90794766.279 7  22172983.281                    22172992.426
 113081527.212 8  88115560.029 7  21518701.539                    21518708.609
 11  8 15  0 37  0.0000000  0  9G30G25G09G02G17G10G04G05G12
 123235673.170 6  96027880.80443  23450981.977                    23450990.738
 127506057.592 6  99355452.382 6  24263604.594                    24263616.371
 123813218.402 7  96477791.34144  23560857.086                    23560867.086
 108276029.872 8  84371046.44946  20604222.461                    20604228.281
 121319248.046 7  94534570.160 6  23086280.461                    23086288.684
 109830141.511 7  85582042.58246  20899966.172                    20899973.945
 113316112.522 8  88298411.18145  21563324.227                    21563332.270
 116426859.167 7  90722308.383 7  22155288.867                    22155297.191
 113018659.564 8  88066572.261 7  21506737.570                    21506745.035
 11  8 15  0 37 30.0000000  0  9G30G25G09G02G17G10G04G05G12
 123139397.002 6  95952860.47243  23432661.414                    23432670.109
 127405388.458 6  99277008.883 6  24244448.016                    24244459.359
 123891009.238 7  96538407.52144  23575659.844                    23575670.391
 108273113.659 8  84368774.08346  20603667.750                    20603672.828
 121371352.090 7  94575170.675 6  23096195.445                    23096204.078
 109823791.980 8  85577094.90946  20898757.703                    20898765.605
 113391598.062 8  88357231.04845  21577688.820                    21577696.852
 116334146.658 7  90650064.919 7  22137646.477                    22137654.672
 112956204.201 7  88017905.759 7  21494853.031                    21494860.063
 11  8 15  0 38  0.0000000  0  9G30G25G09G02G17G10G04G05G12
 123043402.460 6  95878059.57343  23414394.492                    23414402.707
 127304875.187 6  99198686.848 6  24225321.570                    24225332.590
 123968989.497 7  96599171.28044  23590499.508                    23590509.363
 108270498.269 7  84366736.11446  20603170.008                    20603175.266
 121423608.203 7  94615889.683 7  23106139.531                    23106147.910
 109818069.963 7  85572636.20346  20897668.570                    20897676.738
 113467241.414 8  88416173.88745  21592082.813                    21592091.355
 116241711.983 7  90578037.956 7  22120056.195                    22120064.941
 112894163.214 7  87969562.145 7  21483046.742                    21483054.719
 11  8 15  0 38 30.0000000  0  9G30G25G09G02G17G10G04G05G12
 122947692.773 6  95803480.66144  23396181.711                    23396189.918
 127204520.560 5  99120488.488 6  24206222.555                    24206235.563
 124047156.140 7  96660080.27044  23605373.953                    23605384.559
 108268183.147 8  84364932.12846  20602729.414                    20602734.840
 121476016.951 7  94656727.625 6  23116112.453                    23116121.082
 109812976.488 8  85568667.27346  20896699.383                    20896707.281
 113543041.046 8  88475238.49545  21606506.969                    21606515.973
 116149558.370 7  90506230.004 7  22102519.773                    22102528.520
 112832539.359 8  87921543.581 7  21471320.438                    21471327.691
 11  8 15  0 39  0.0000000  0  9G30G25G09G02G17G10G04G05G12
 122852270.654 6  95729125.81444  23378023.211                    23378031.688
 127104327.147 6  99042415.794 6  24187157.305                    24187169.473
 124125505.414 6  96721131.57944  23620283.367                    23620293.805
 108266167.100 7  84363361.17946  20602345.680                    20602351.273
 121528579.102 7  94697685.082 6  23126114.742                    23126122.992
 109808511.769 7  85565188.27746  20895850.125                    20895857.746
 113618994.623 7  88534423.07045  21620960.547                    21620969.133
 116057688.662 7  90434643.280 7  22085037.695                    22085046.352
 112771334.793 7  87873851.730 7  21459673.602                    21459680.680
 11  8 15  0 39 30.0000000  0  9G30G25G09G02G17G10G04G05G12
 122757138.829 6  95654997.16844  23359919.664                    23359928.883
 127004297.486 6  98964470.640 6  24168123.047                    24168134.434
 124204033.831 7  96782322.49144  23635227.016                    23635237.254
 108264449.038 8  84362022.43346  20602019.031                    20602024.539
 121581294.999 7  94738762.348 7  23136146.539                    23136155.258
 109804675.952 7  85562199.32646  20895119.813                    20895127.508
 113695100.020 8  88593725.93845  21635443.297                    21635451.793
 115966105.830 7  90363280.090 7  22067610.250                    22067618.457
 112710552.086 7  87826488.615 7  21448106.992                    21448114.016
 11  8 15  0 40  0.0000000  0  9G30G25G09G02G17G10G04G05G12
 122662300.209 6  95581096.98344  23341872.977                    23341881.367
 126904434.176 6  98886655.119 6  24149118.969                    24149131.383
 124282737.852 7  96843650.22044  23650204.484                    23650214.430
 108263027.570 8  84360914.79546  20601748.438                    20601753.707
 121634165.100 7  94779959.789 7  23146208.055                    23146216.031
 109801469.710 7  85559700.97246  20894509.977                    20894517.789
 113771355.181 8  88653145.51045  21649954.164                    21649962.840
 115874812.711 7  90292142.643 7  22050237.734                    22050246.023
 112650193.424 8  87779455.909 7  21436620.828                    21436628.551
 11  8 15  0 40 30.0000000  0  9G30G25G09G02G17G10G04G05G12
 122567757.698 6  95507427.54644  23323882.055                    23323890.461
 126804739.881 6  98808971.259 5  24130148.258                    24130159.449
 124361614.300 6  96905112.29044  23665213.430                    23665223.953
 108261901.939 8  84360037.67046  20601534.180                    20601539.641
 121687190.141 7  94821277.945 7  23156297.695                    23156306.133
 109798893.351 8  85557693.42446  20894019.227                    20894027.328
 113847758.189 7  88712680.29645  21664493.039                    21664501.891
 115783812.078 7  90221233.113 7  22032921.305                    22032929.313
 112590261.399 8  87732755.646 7  21425216.070                    21425223.145
 11  8 15  0 41  0.0000000  0  9G30G25G09G02G17G10G04G05G12
 122473514.053 6  95433990.99244  23305947.992                    23305956.645
 126705217.012 6  98731421.021 6  24111209.789                    24111221.277
 124440659.728 7  96966706.04944  23680255.469                    23680266.133
 108261070.863 8  84359390.07646  20601376.344                    20601381.816
 121740370.635 7  94862717.240 7  23166417.742                    23166425.898
 109796947.376 8  85556177.08746  20893649.227                    20893657.016
 113924306.944 8  88772328.64745  21679060.125                    21679068.734
 115693106.839 7  90150553.751 7  22015659.758                    22015668.391
 112530757.685 7  87686389.140 7  21413893.000                    21413899.992
 11  8 15  0 41 30.0000000  0  9G30G25G09G02G17G10G04G05G12
 122379572.226 6  95360789.58644  23288071.461                    23288079.680
 126605868.378 6  98654006.541 6  24092303.617                    24092315.012
 124519870.774 7  97028428.86744  23695329.133                    23695339.145
 108260533.310 8  84358971.20646  20601273.891                    20601279.559
 121793706.994 7  94904277.982 7  23176566.773                    23176575.594
 109795632.011 8  85555152.12146  20893398.906                    20893406.555
 114000999.410 8  88832088.99245  21693654.375                    21693662.777
 115602700.160 7  90080107.031 7  21998455.969                    21998464.902
 112471685.292 7  87640358.731 7  21402651.953                    21402659.055
 11  8 15  0 42  0.0000000  0  9G30G25G09G02G17G10G04G05G12
 122285935.004 6  95287825.54644  23270253.281                    23270261.227
 126506696.547 6  98576729.850 6  24073432.172                    24073443.293
 124599244.193 6  97090278.20644  23710433.242                    23710443.809
 108260288.337 8  84358780.31346  20601227.281                    20601232.879
 121847199.843 7  94945960.679 7  23186746.094                    23186755.391
 109794947.527 8  85554618.75846  20893268.586                    20893276.305
 114077833.806 7  88891959.92245  21708275.156                    21708283.680
 115512594.607 7  90009894.965 7  21981309.977                    21981318.133
 112413046.146 7  87594665.911 7  21391493.320                    21391500.402
 11  8 15  0 42 30.0000000  0  9G30G25G09G02G17G10G04G05G12
 122192605.272 6  95215101.09943  23252492.961                    23252501.039
 126407704.170 6  98499592.993 6  24054594.852                    24054605.969
 124678776.600 7  97152251.41544  23725567.273                    23725578.117
 108260334.854 8  84358816.55646  20601236.266                    20601241.801
 121900849.701 7  94987765.724 7  23196955.492                    23196964.477
 109794894.351 8  85554577.33646  20893258.188                    20893266.086
 114154808.132 8  88951939.88845  21722923.016                    21722931.352
 115422793.386 7  89939920.052 7  21964221.117                    21964229.496
 112354842.764 7  87549312.641 7  21380417.398                    21380425.027
 11  8 15  0 43  0.0000000  0  9G30G25G09G02G17G10G04G05G12
 122099585.564 6  95142618.25044  23234791.313                    23234799.988
 126308893.534 6  98422597.748 6  24035791.305                    24035802.930
 124758464.049 7  97214345.46444  23740732.469                    23740742.051
 108260671.401 8  84359078.80046  20601299.766                    20601305.559
 121954657.451 7  95029693.790 6  23207194.813                    23207203.156
 109795472.594 8  85555027.91046  20893368.227                    20893376.160
 114231919.907 8  89012026.95945  21737597.047                    21737605.676
 115333298.766 7  89870184.038 7  21947190.336                    21947198.859
 112297077.037 7  87504300.402 7  21369425.109                    21369432.043
 11  8 15  0 43 30.0000000  0  9G30G25G09G02G17G10G04G05G12
 122006879.108 6  95070379.49744  23217149.977                    23217158.617
 126210267.611 6  98345746.376 6  24017023.602                    24017034.398
 124838303.654 6  97276558.06144  23755924.789                    23755935.070
 108261297.006 8  84359566.28746  20601419.148                    20601424.945
 122008623.132 7  95071744.923 6  23217464.344                    23217473.063
 109796682.680 8  85555970.83146  20893599.109                    20893606.855
 114309167.752 8  89072220.06045  21752296.695                    21752305.453
 115244114.048 7  89800689.492 7  21930219.398                    21930227.672
 112239751.578 7  87459631.222 7  21358516.047                    21358523.906
 11  8 15  0 44  0.0000000  0  9G30G25G09G02G17G10G04G05G12
 121914488.551 6  94998386.88944  23199568.039                    23199576.988
 126111828.871 7  98269040.916 6  23998291.055                    23998302.645
 124918292.165 6  97338886.65444  23771146.523                    23771156.703
 108262210.623 8  84360278.19546  20601593.289                    20601598.305
 122062747.251 7  95113919.520 7  23227763.859                    23227772.988
 109798524.771 8  85557406.22946  20893949.375                    20893957.227
 114386549.300 8  89132517.34245  21767021.672                    21767030.367
 115155242.200 7  89731438.757 7  21913307.477                    21913315.641
 112182868.650 8  87415306.866 7  21347691.984                    21347699.203
 11  8 15  0 44 30.0000000  0  9G30G25G09G02G17G10G04G05G12
 121822416.862 7  94926642.74744  23182048.094                    23182056.816
 126013580.095 6  98192483.478 6  23979594.945                    23979606.527
 124998425.830 6  97401328.40543  23786395.047                    23786405.734
 108263411.283 8  84361213.77346  20601821.586                    20601827.109
 122117030.824 7  95156218.364 6  23238093.828                    23238102.621
 109800999.076 8  85559334.26346  20894420.492                    20894428.016
 114464062.748 8  89192917.40845  21781772.539                    21781781.086
 115066686.029 7  89662433.993 7  21896455.906                    21896464.039
 112126430.555 7  87371329.121 7  21336951.711                    21336959.141
 11  8 15  0 45  0.0000000  0  9G30G25G09G02G17G10G04G05G12
 121730666.820 6  94855149.23444  23164588.359                    23164597.191
 125915523.806 6  98116076.048 6  23960935.719                    23960946.891
 125078701.227 6  97463880.57343  23801670.758                    23801681.930
 108264897.568 7  84362371.91746  20602103.992                    20602110.180
 122171473.921 7  95198641.530 6  23248453.672                    23248462.199
 109804105.213 7  85561754.62646  20895011.055                    20895019.375
 114541706.392 8  89253418.92445  21796547.523                    21796555.898
 114978448.423 7  89593677.456 7  21879664.594                    21879672.965
 112070439.649 7  87327699.843 7  21326297.383                    21326304.648
 11  8 15  0 45 30.0000000  0  9G30G25G09G02G17G10G04G05G12
 121639241.308 6  94783908.61844  23147191.109                    23147200.090
 125817662.797 7  98039820.781 6  23942313.180                    23942324.637
 125159115.214 6  97526540.73843  23816973.656                    23816984.422
 108266668.907 8  84363752.18346  20602441.750                    20602446.805
 122226077.296 7  95241189.566 6  23258844.469                    23258852.891
 109807843.823 8  85564667.83646  20895722.641                    20895730.410
 114619478.092 8  89314020.21545  21811346.938                    21811355.293
 114890532.377 7  89525171.499 7  21862934.766                    21862943.148
 112014897.905 8  87284420.555 7  21315728.188                    21315735.145
 11  8 15  0 46  0.0000000  0  9G30G25G09G02G17G10G04G05G12
 121548142.835 7  94712922.80744  23129855.453                    23129863.805
 125719999.304 7  97963719.369 6  23923728.453                    23923739.387
 125239664.181 7  97589306.12644  23832301.656                    23832312.492
 108268723.214 7  84365352.93946  20602832.078                    20602837.613
 122280841.399 7  95283862.844 6  23269265.758                    23269274.715
 109812214.325 7  85568073.42245  20896554.469                    20896562.215
 114697375.479 8  89374719.45945  21826170.148                    21826178.664
 114802939.907 7  89456917.672 7  21846266.656                    21846274.816
 111959807.257 8  87241492.768 7  21305244.484                    21305252.004
 11  8 15  0 46 30.0000000  0  9G30G25G09G02G17G10G04G05G12
 121457374.392 7  94642194.19043  23112582.555                    23112590.457
 125622536.165 7  97887774.098 6  23905181.328                    23905192.516
 125320344.672 6  97652173.98643  23847654.266                    23847665.445
 108271059.796 8  84367173.64946  20603276.742                    20603282.430
 122335766.797 7  95326661.825 6  23279718.055                    23279726.270
 109817217.044 8  85571971.64646  20897506.500                    20897513.785
 114775396.944 8  89435515.37045  21841017.156                    21841025.707
 114715674.454 7  89388918.657 7  21829660.422                    21829668.766
 111905170.362 8  87198918.553 7  21294847.836                    21294854.609
 11  8 15  0 47  0.0000000  0  9G30G25G09G02G17G10G04G05G12
 121366939.027 6  94571725.09243  23095373.008                    23095381.902
 125525276.110 7  97811987.111 6  23886673.367                    23886684.883
 125401153.598 6  97715141.90443  23863032.094                    23863042.977
 108273677.583 8  84369213.48146  20603774.945                    20603780.676
 122390853.954 7  95369586.837 6  23290201.281                    23290209.016
 109822852.321 8  85576362.77146  20898578.461                    20898586.590
 114853540.813 7  89496406.67345  21855887.477                    21855896.277
 114628738.811 7  89321176.651 7  21813117.148                    21813125.254
 111850989.792 7  87156699.918 7  21284537.500                    21284544.680
 11  8 15  0 47 30.0000000  0  9G30G25G09G02G17G10G04G05G12
 121276839.143 6  94501517.44943  23078228.008                    23078236.129
 125428221.692 7  97736360.345 6  23868205.125                    23868215.773
 125482087.403 7  97778207.14144  23878433.680                    23878444.102
 108276575.437 8  84371471.55446  20604326.477                    20604332.160
 122446103.393 7  95412638.303 6  23300714.578                    23300723.055
 109829119.907 8  85581246.60246  20899771.633                    20899779.379
 114931804.841 8  89557391.59745  21870780.883                    21870789.383
 114542135.675 7  89253693.733 7  21796636.805                    21796645.512
 111797266.892 8  87114837.912 7  21274314.477                    21274321.379
 11  8 15  0 48  0.0000000  0  9G30G25G09G02G17G10G04G05G12
 121187077.850 6  94431573.56244  23061147.227                    23061155.117
 125331375.636 7  97660895.916 6  23849775.273                    23849786.070
 125563142.810 6  97841367.14744  23893857.609                    23893868.395
 108279752.184 8  84373946.94046  20604931.008                    20604936.609
 122501515.393 7  95455816.449 6  23311258.805                    23311267.488
 109836019.802 8  85586623.14146  20901084.734                    20901092.234
 115010187.249 8  89618468.77045  21885696.219                    21885704.879
 114455867.922 7  89186472.160 7  21780221.031                    21780229.359
 111744003.826 8  87073334.213 7  21264178.461                    21264185.605
 11  8 15  0 48 30.0000000  0  9G30G25G09G02G17G10G04G05G12
 121097657.653 6  94361895.52043  23044130.758                    23044139.129
 125234740.430 7  97585595.787 6  23831386.555                    23831396.754
 125644316.288 7  97904619.14743  23909305.227                    23909315.113
 108283206.510 8  84376638.62246  20605588.336                    20605594.141
 122557090.411 7  95499121.573 6  23321834.898                    23321843.523
 109843551.754 8  85592492.19946  20902517.516                    20902525.426
 115088686.131 8  89679636.70245  21900634.195                    21900642.945
 114369937.985 7  89119513.813 7  21763868.508                    21763876.941
 111691203.143 8  87032190.809 7  21254131.117                    21254138.383
 11  8 15  0 49  0.0000000  0  9G30G25G09G02G17G10G04G05G12
 121008581.733 6  94292485.72444  23027180.008                    23027188.816
 125138318.928 7  97510462.171 6  23813038.625                    23813048.449
 125725604.740 7  97967960.74343  23924773.211                    23924784.125
 108286937.616 8  84379545.98046  20606298.453                    20606303.813
 122612829.150 7  95542554.310 6  23332441.484                    23332450.234
 109851715.751 8  85598853.75046  20904071.344                    20904079.195
 115167299.596 8  89740893.91345  21915594.219                    21915602.383
 114284349.300 7  89052821.373 7  21747581.773                    21747590.059
 111638867.150 8  86991409.521 7  21244171.766                    21244179.016
 11  8 15  0 49 30.0000000  0  9G30G25G09G02G17G10G04G05G12
 120919852.599 6  94223346.14344  23010295.461                    23010304.359
 125042113.629 7  97435497.066 6  23794731.320                    23794741.770
 125807004.456 7  98031389.05044  23940263.148                    23940273.926
 108290944.153 8  84382667.95246  20607060.891                    20607066.102
 122668732.509 7  95586115.324 7  23343079.656                    23343088.496
 109860511.698 8  85605707.73446  20905745.164                    20905752.996
 115246025.823 7  89802238.99545  21930574.789                    21930583.762
 114199103.979 7  88986396.501 7  21731359.742                    21731368.266
 111586997.677 8  86950991.733 7  21234301.516                    21234308.762
 11  8 15  0 50  0.0000000  0  9G30G25G09G02G17G10G04G05G12
 120831473.300 7  94154479.17144  22993477.922                    22993485.898
 124946127.417 7  97360702.663 6  23776465.336                    23776475.977
 125888512.627 7  98094901.87344  23955773.938                    23955784.508
 108295224.982 8  84386003.66546  20607875.539                    20607880.984
 122724800.366 7  95629804.510 6  23353748.555                    23353757.879
 109869939.370 8  85613053.97046  20907539.094                    20907547.391
 115324863.017 8  89863670.54945  21945577.234                    21945586.184
 114114205.603 7  88920241.973 7  21715204.289                    21715212.996
 111535597.103 8  86910939.350 7  21224520.016                    21224527.563
 11  8 15  0 50 30.0000000  0  9G30G25G09G02G17G10G04G05G12
 120743446.647 7  94085886.96044  22976726.688                    22976734.793
 124850362.896 7  97286081.015 7  23758241.500                    23758252.938
 125970125.772 7  98158496.45744  23971304.453                    23971314.727
 108299779.041 8  84389552.27946  20608741.883                    20608747.379
 122781033.159 7  95673622.241 6  23364449.422                    23364458.441
 109879998.510 8  85620892.26446  20909453.281                    20909461.121
 115403809.412 7  89925187.19245  21960600.602                    21960609.215
 114029656.780 7  88854359.815 7  21699115.234                    21699123.324
 111484667.348 8  86871253.820 7  21214828.688                    21214835.910
 11  8 15  0 51  0.0000000  0  9G30G25G09G02G17G10G04G05G12
 120655775.309 7  94017571.62844  22960043.680                    22960051.414
 124754822.677 7  97211634.131 6  23740061.094                    23740072.137
 126051840.444 6  98222170.16344  23986854.094                    23986865.055
 108304605.007 8  84393312.77246  20609660.305                    20609666.129
 122837431.831 7  95717569.199 6  23375181.594                    23375190.770
 109890688.915 8  85629222.44546  20911487.391                    20911495.504
 115482862.934 7  89986787.29945  21975643.711                    21975652.793
 113945459.817 7  88788751.839 7  21683092.992                    21683101.219
 111434210.623 8  86831936.908 7  21205226.852                    21205234.340
 11  8 15  0 51 30.0000000  0  9G30G25G09G02G17G10G04G05G12
 120568462.017 7  93949535.30144  22943428.438                    22943436.422
 124659509.363 7  97137364.058 6  23721923.898                    23721934.582
 126133653.185 6  98285920.27843  24002422.430                    24002433.992
 108309701.840 8  84397284.33046  20610630.266                    20610635.988
 122893996.777 7  95761645.717 6  23385946.117                    23385954.871
 109902010.681 8  85638044.59146  20913642.039                    20913650.063
 115562021.809 7  90048469.50945  21990707.242                    21990716.086
 113861617.509 7  88723420.223 7  21667138.219                    21667146.461
 111384228.888 8  86792990.093 7  21195715.734                    21195722.902
 11  8 15  0 52  0.0000000  0  9G30G25G09G02G17G10G04G05G12
 120481509.580 7  93881780.19044  22926881.898                    22926890.758
 124564425.631 7  97063272.861 6  23703830.117                    23703840.793
 126215560.809 6  98349744.32543  24018009.102                    24018020.453
 108315068.271 8  84401465.96246  20611651.266                    20611656.902
 122950728.356 6  95805852.095 7  23396741.656                    23396750.719
 109913963.282 8  85647358.30346  20915916.617                    20915924.934
 115641284.165 7  90110232.34745  22005790.766                    22005799.105
 113778132.763 8  88658367.214 7  21651251.688                    21651260.148
 111334724.371 7  86754415.157 7  21186295.875                    21186302.984
 11  8 15  0 52 30.0000000  0  9G30G25G09G02G17G10G04G05G12
 120394920.921 6  93814308.53144  22910404.773                    22910413.133
 124469574.241 7  96989362.733 6  23685780.063                    23685790.449
 126297560.191 6  98413639.86843  24033613.242                    24033624.289
 108320703.223 8  84405856.83446  20612723.852                    20612728.887
 123007626.771 6  95850188.456 6  23407568.844                    23407577.855
 109926546.439 8  85657163.36446  20918310.711                    20918318.910
 115720648.484 7  90172074.63845  22020892.945                    22020901.785
 113695008.315 8  88593594.964 7  21635433.133                    21635441.754
 111285698.973 8  86716213.561 7  21176966.219                    21176973.383
 11  8 15  0 53  0.0000000  0  9G30G25G09G02G17G10G04G05G12
 120308698.661 6  93747122.36844  22893996.648                    22894005.777
 124374957.793 7  96915635.645 6  23667775.102                    23667785.883
 126379647.662 6  98477604.04343  24049233.758                    24049244.156
 108326605.323 8  84410455.87846  20613846.898                    20613852.367
 123064692.837 7  95894655.482 6  23418428.680                    23418437.578
 109939759.791 8  85667459.47846  20920826.227                    20920833.344
 115800112.699 8  90233994.76545  22036014.828                    22036023.344
 113612246.625 7  88529105.374 7  21619684.336                    21619692.957
 111237154.836 7  86678386.976 7  21167728.563                    21167735.512
 11  8 15  0 53 30.0000000  0  9G30G25G09G02G17G10G04G05G12
 120222845.607 7  93680223.91744  22877659.250                    22877668.066
 124280578.981 7  96842093.724 6  23649815.555                    23649826.672
 126461819.804 6  98541634.19143  24064871.047                    24064881.602
 108332773.374 8  84415262.14346  20615020.430                    20615026.211
 123121926.807 6  95939253.312 6  23429319.477                    23429329.016
 109953602.875 8  85678246.29646  20923459.367                    20923467.836
 115879675.067 7  90295991.39045  22051155.148                    22051163.016
 113529850.778 7  88464900.867 7  21604005.172                    21604013.055
 111189093.845 8  86640936.862 7  21158582.727                    21158590.266
 11  8 15  0 54  0.0000000  0  9G30G25G09G02G17G10G04G05G12
 120137364.593 6  93613615.33244  22861392.891                    22861401.727
 124186440.566 7  96768739.147 6  23631901.047                    23631912.414
 126544073.485 6  98605727.89143  24080522.500                    24080534.277
 108339206.452 8  84420274.92846  20616244.977                    20616250.551
 123179329.243 6  95983982.444 6  23440243.008                    23440252.445
 109968075.193 7  85689523.42546  20926213.594                    20926221.703
 115959333.813 7  90358063.10645  22066313.336                    22066322.098
 113447823.376 7  88400983.450 7  21588395.922                    21588403.875
 111141518.060 8  86603864.832 7  21149529.594                    21149536.203
 11  8 15  0 54 30.0000000  0  9G30G25G09G02G17G10G04G05G12
 120052258.313 6  93547298.76644  22845197.586                    22845206.426
 124092545.106 7  96695573.871 6  23614034.219                    23614044.629
 126626405.289 6  98669882.47443  24096190.813                    24096202.340
 108345903.306 8  84425493.26146  20617518.750                    20617524.793
 123236900.733 6  96028843.302 6  23451198.672                    23451207.848
 109983176.410 7  85701290.61046  20929087.391                    20929095.734
 116039087.118 7  90420208.49945  22081489.617                    22081498.523
 113366167.012 7  88337355.153 7  21572857.016                    21572865.184
 111094429.502 8  86567172.448 7  21140568.563                    21140575.875
 11  8 15  0 55  0.0000000  0  9G30G25G09G02G17G10G04G05G12
 119967529.217 6  93481276.14244  22829073.883                    22829083.188
 123998895.231 7  96622599.960 6  23596212.594                    23596223.254
 126708812.257 6  98734095.60543  24111871.273                    24111883.051
 108352862.806 8  84430916.24146  20618843.414                    20618848.637
 123294641.566 7  96073836.116 6  23462186.078                    23462195.496
 109998906.176 8  85713547.56746  20932080.906                    20932089.000
 116118933.122 7  90482426.12745  22096684.125                    22096692.758
 113284884.348 8  88274018.059 7  21557389.477                    21557397.516
 111047830.087 8  86530861.223 7  21131701.094                    21131707.973
 11  8 15  0 55 30.0000000  0  9G30G25G09G02G17G10G04G05G12
 119883180.259 7  93415549.70944  22813022.938                    22813032.207
 123905493.589 7  96549819.473 6  23578439.047                    23578450.117
 126791290.842 6  98798364.54043  24127567.422                    24127578.043
 108360083.459 8  84436542.72146  20620217.453                    20620222.871
 123352551.791 6  96118960.925 6  23473206.250                    23473215.039
 110015263.867 7  85726293.83046  20935193.313                    20935201.504
 116198870.222 7  90544714.75545  22111895.203                    22111904.078
 113203977.971 8  88210974.171 7  21541993.320                    21542001.766
 111001721.633 7  86494932.565 7  21122926.891                    21122934.523
 11  8 15  0 56  0.0000000  0  9G30G25G09G02G17G10G04G05G12
 119799214.589 7  93350121.92644  22797045.406                    22797053.609
 123812343.237 7  96477234.793 6  23560712.781                    23560723.977
 126873837.894 6  98862686.83243  24143274.945                    24143286.301
 108367564.694 8  84442372.24246  20621641.086                    20621646.758
 123410632.340 7  96164218.448 6  23484258.625                    23484267.887
 110032249.199 8  85739529.14646  20938425.781                    20938433.934
 116278896.720 7  90607073.02345  22127123.820                    22127132.691
 113123451.131 8  88148226.029 7  21526669.563                    21526677.773
 110956106.829 8  86459388.566 7  21114246.828                    21114254.309
 11  8 15  0 56 30.0000000  0  9G30G25G09G02G17G10G04G05G12
 119715634.216 7  93284994.38144  22781139.867                    22781148.676
 123719446.300 7  96404847.573 6  23543036.047                    23543045.949
 126956449.945 6  98927059.74443  24158995.539                    24159008.168
 108375304.612 8  84448403.35146  20623113.875                    20623119.449
 123468883.386 7  96209608.838 6  23495343.547                    23495352.422
 110049861.251 7  85753252.82146  20941777.227                    20941784.707
 116359010.725 7  90669499.49045  22142369.859                    22142378.113
 113043305.891 8  88085775.240 7  21511418.320                    21511426.477
 110910986.505 8  86424229.861 7  21105660.813                    21105668.297
 11  8 15  0 57  0.0000000  0  9G30G25G09G02G17G10G04G05G12
 119632442.216 7  93220169.47144  22765309.148                    22765317.676
 123626805.778 7  96332660.160 6  23525407.125                    23525416.676
 127039123.686 6  98991480.75243  24174728.266                    24174739.895
 108383302.446 8  84454635.42346  20624635.844                    20624641.598
 123527305.616 7  96255132.602 6  23506460.594                    23506469.457
 110068099.590 7  85767464.52546  20945247.727                    20945255.605
 116439210.480 7  90731992.77045  22157631.047                    22157639.582
 112963544.767 8  88023623.754 7  21496240.336                    21496248.922
 110866363.052 8  86389458.341 7  21097169.164                    21097176.332
 11  8 15  0 57 30.0000000  0  9G30G25G09G02G17G10G04G05G12
 119549641.447 7  93155649.41944  22749552.391                    22749561.223
 123534424.342 7  96260674.640 6  23507826.828                    23507837.645
 127121856.143 6  99055947.49643  24190472.125                    24190483.535
 108391557.027 8  84461067.55346  20626206.703                    20626212.133
 123585899.218 7  96300789.920 6  23517610.758                    23517619.691
 110086963.695 8  85782163.81046  20948837.563                    20948845.652
 116519494.359 7  90794551.60445  22172908.320                    22172916.676
 112884170.822 8  87961773.974 7  21481135.719                    21481143.770
 110822238.437 8  86355075.519 7  21088772.625                    21088779.645
 11  8 15  0 58  0.0000000  0  9G30G25G09G02G17G10G04G05G12
 119467234.583 7  93091436.31144  22733871.734                    22733879.852
 123442304.759 7  96188893.164 6  23490296.773                    23490308.027
 127204643.879 6  99120457.33044  24206226.273                    24206237.148
 108400067.249 8  84467698.88346  20627826.523                    20627831.535
 123644664.824 7  96346581.287 6  23528794.328                    23528802.465
 110106452.699 8  85797350.05346  20952546.055                    20952554.094
 116599860.555 7  90857174.58245  22188201.820                    22188210.371
 112805186.637 8  87900227.897 7  21466105.539                    21466113.652
 110778614.693 8  86321082.985 7  21080470.938                    21080478.566
 11  8 15  0 58 30.0000000  0  9G30G25G09G02G17G10G04G05G12
 119385224.178 7  93027532.13544  22718265.109                    22718273.543
 123350449.599 7  96117317.729 6  23472817.523                    23472828.270
 127287483.653 6  99185007.71643  24221989.773                    24222000.773
 108408831.747 8  84474528.35846  20629493.906                    20629499.746
 123703602.680 7  96392506.840 6  23540009.453                    23540017.895
 110126565.887 8  85813022.66646  20956373.203                    20956381.168
 116680307.563 7  90919860.52545  22203510.172                    22203518.930
 112726594.625 8  87838987.410 7  21451150.016                    21451158.301
 110735493.734 8  86287482.222 7  21072265.828                    21072272.801
 11  8 15  0 59  0.0000000  0  9G30G25G09G02G17G10G04G05G12
 119303613.019 7  92963939.03844  22702735.516                    22702743.496
 123258861.543 7  96045950.443 6  23455388.898                    23455399.918
 127370372.300 6  99249596.14643  24237763.031                    24237774.441
 108417849.366 8  84481555.06446  20631210.023                    20631215.648
 123762713.142 7  96438566.892 6  23551257.461                    23551266.258
 110147302.861 8  85829181.34646  20960319.930                    20960327.598
 116760833.690 7  90982608.11245  22218834.195                    22218842.605
 112648397.092 7  87778054.310 7  21436269.781                    21436278.141
 110692877.433 8  86254274.706 7  21064156.102                    21064163.551
 11  8 15  0 59 30.0000000  0  9G30G25G09G02G17G10G04G05G12
 119222403.500 7  92900658.90844  22687281.898                    22687290.098
 123167543.080 7  95974793.240 6  23438011.547                    23438022.223
 127453306.452 6  99314220.04643  24253545.000                    24253556.016
 108427118.580 8  84488777.82146  20632973.977                    20632979.125
 123821996.475 7  96484761.670 6  23562539.156                    23562547.785
 110168662.751 8  85845825.41946  20964384.328                    20964392.223
 116841436.907 7  91045415.77945  22234172.430                    22234180.918
 112570597.113 8  87717430.994 7  21421464.656                    21421472.770
 110650767.008 8  86221461.381 7  21056142.883                    21056150.164
 11  8 15  1  0  0.0000000  0  9G30G25G09G02G17G10G04G05G12
 119141598.614 7  92837694.07444  22671904.664                    22671912.762
 123076497.140 7  95903848.363 6  23420685.711                    23420696.824
 127536282.801 6  99378876.84043  24269335.484                    24269346.625
 108436638.510 8  84496195.93346  20634785.445                    20634790.949
 123881453.366 7  96531091.677 6  23573852.648                    23573862.348
 110190645.105 8  85862954.51946  20968567.430                    20968575.484
 116922115.926 7  91108282.50645  22249525.195                    22249533.629
 112493197.435 8  87657119.592 7  21406735.852                    21406744.164
 110609164.972 8  86189044.200 7  21048225.656                    21048233.242
 11  8 15  1  0 30.0000000  0  9G30G25G09G02G17G10G04G05G12
 119061200.704 7  92775046.36144  22656605.656                    22656614.086
 122985725.990 7  95833117.628 6  23403412.836                    23403423.465
 127619297.941 6  99443563.85743  24285132.875                    24285143.570
 108446407.561 8  84503808.16846  20636644.539                    20636650.000
 123941084.030 7  96577557.081 6  23585200.383                    23585209.906
 110213248.541 8  85880567.58546  20972868.773                    20972876.520
 117002868.772 7  91171206.76444  22264891.570                    22264900.113
 112416199.944 8  87597121.597 7  21392083.867                    21392092.320
 110568072.179 8  86157023.825 7  21040406.352                    21040413.426
 11  8 15  1  1  0.0000000  0  9G30G25G09G02G17G10G04G05G12
 118981212.862 7  92712718.20645  22641384.234                    22641393.016
 122895232.832 7  95762603.526 6  23386192.813                    23386202.922
 127702349.106 6  99508278.93243  24300937.203                    24300948.598
 108456425.285 8  84511614.16946  20638550.641                    20638556.582
 124000888.928 7  96624158.280 6  23596580.820                    23596589.551
 110236472.874 8  85898664.46746  20977288.305                    20977296.234
 117083694.060 7  91234187.47344  22280272.320                    22280280.801
 112339607.565 8  87537439.259 7  21377508.891                    21377516.973
 110527491.296 8  86125402.347 7  21032684.211                    21032691.637
 11  8 15  1  1 30.0000000  0  9G30G25G09G02G17G10G04G05G12
 118901637.601 7  92650711.53644  22626241.602                    22626250.797
 122805020.233 7  95692307.999 6  23369025.695                    23369036.289
 127785432.879 6  99573019.42443  24316747.008                    24316758.555
 108466690.102 8  84519612.71546  20640504.500                    20640509.813
 124060868.452 6  96670895.524 6  23607994.305                    23608004.086
 110260316.860 8  85917244.19146  20981825.563                    20981833.305
 117164590.120 7  91297223.33144  22295666.297                    22295674.551
 112263423.497 8  87478075.091 7  21363011.641                    21363019.754
 110487423.954 8  86094181.025 7  21025059.586                    21025066.672
 11  8 15  1  2  0.0000000  0  9G30G25G09G02G17G10G04G05G12
 118822477.477 7  92589028.34944  22611178.055                    22611186.184
 122715090.749 7  95622233.092 6  23351912.703                    23351923.543
 127868546.122 6  99637782.88943  24332562.945                    24332575.297
 108477200.932 8  84527802.96246  20642504.484                    20642509.816
 124121022.943 6  96717769.118 6  23619441.289                    23619450.723
 110284779.683 8  85936306.12146  20986480.531                    20986488.250
 117245555.333 7  91360313.07045  22311073.633                    22311082.410
 112187648.974 8  87419030.037 7  21348592.203                    21348600.086
 110447871.642 8  86063361.040 7  21017533.195                    21017540.645
 11  8 15  1  2 30.0000000  0  9G30G25G09G02G17G10G04G05G12
 118743735.113 7  92527670.67444  22596194.172                    22596201.887
 122625447.005 7  95552380.867 6  23334853.625                    23334865.070
 127951685.504 6  99702566.73743  24348384.539                    24348396.004
 108487956.345 8  84536183.79046  20644551.273                    20644556.484
 124181352.668 6  96764779.244 6  23630921.758                    23630931.133
 110309860.505 8  85955849.60846  20991253.523                    20991261.328
 117326587.953 7  91423455.32645  22326493.539                    22326502.211
 112112286.962 8  87360306.435 7  21334251.500                    21334259.500
 110408836.293 8  86032943.876 7  21010104.922                    21010111.984
 11  8 15  1  3  0.0000000  0  9G30G25G09G02G17G10G04G05G12
 118665413.147 7  92466640.57644  22581289.773                    22581298.457
 122536091.702 7  95482753.397 6  23317850.383                    23317861.656
 128034847.819 6  99767368.46943  24364209.469                    24364220.910
 108498955.185 8  84544754.30746  20646644.391                    20646649.582
 124241858.210 6  96811926.406 6  23642435.414                    23642445.766
 110335558.350 8  85975873.89346  20996143.656                    20996151.430
 117407686.310 7  91486648.80445  22341926.023                    22341934.508
 112037340.302 8  87301906.476 7  21319989.305                    21319997.211
 110370319.551 8  86002930.828 7  21002775.406                    21002782.504
 11  8 15  1  3 30.0000000  0  9G30G25G09G02G17G10G04G05G12
 118587514.191 7  92405940.12844  22566465.625                    22566474.883
 122447027.597 7  95413352.813 6  23300901.750                    23300912.543
 128118030.185 6  99832185.80143  24380038.984                    24380049.703
 108510196.431 8  84553513.70346  20648783.203                    20648788.504
 124302539.526 6  96859210.503 6  23653983.648                    23653992.516
 110361872.328 8  85996378.28346  21001151.156                    21001159.195
 117488849.091 7  91549892.49045  22357370.688                    22357379.613
 111962811.337 8  87243832.000 7  21305806.797                    21305814.723
 110332323.153 8  85973323.239 7  20995545.180                    20995552.488
 11  8 15  1  4  0.0000000  0  9G30G25G09G02G17G10G04G05G12
 118510040.916 7  92345571.38544  22551723.172                    22551731.852
 122358257.344 7  95344181.190 6  23284009.953                    23284020.543
 128201228.979 6  99897015.97443  24395870.828                    24395882.000
 108521678.822 8  84562461.00346  20650967.953                    20650973.152
 124363397.334 6  96906632.132 6  23665564.594                    23665573.461
 110388801.642 8  86017362.16446  21006275.453                    21006283.121
 117570074.482 7  91613184.94745  22372827.813                    22372836.371
 111888702.415 8  87186084.826 7  21291704.203                    21291712.219
 110294848.719 8  85944122.387 7  20988413.781                    20988421.121
 11  8 15  1  4 30.0000000  0  9G30G25G09G02G17G10G04G05G12
 118432995.787 7  92285536.24444  22537062.117                    22537069.723
 122269783.453 7  95275240.518 6  23267173.773                    23267184.582
 128284441.279 6  99961856.67243  24411705.469                    24411716.121
 108533401.003 8  84571595.15746  20653199.008                    20653204.039
 124424431.882 6  96954191.511 6  23677178.938                    23677187.523
 110416345.145 8  86038824.62646  21011516.820                    21011524.180
 117651360.882 7  91676524.96045  22388296.336                    22388304.531
 111815016.015 8  87128666.890 7  21277682.570                    21277690.555
 110257897.817 8  85915329.461 7  20981382.078                    20981389.672
 11  8 15  1  5  0.0000000  0  9G30G25G09G02G17G10G04G05G12
 118356381.791 7  92225837.00944  22522483.000                    22522491.027
 122181608.963 7  95206533.141 6  23250394.070                    23250405.035
 128367664.166 6 100026705.58842  24427542.305                    24427552.805
 108545362.108 8  84580915.48846  20655475.289                    20655480.074
 124485643.207 6  97001888.616 6  23688827.102                    23688835.754
 110444501.992 8  86060765.01446  21016874.797                    21016882.813
 117732706.983 7  91739911.48545  22403775.797                    22403784.359
 111741754.782 8  87071580.257 7  21263741.023                    21263749.191
 110221472.349 8  85886945.978 7  20974450.891                    20974457.848
 11  8 15  1  5 30.0000000  0  9G30G25G09G02G17G10G04G05G12
 118280201.067 7  92166475.43644  22507985.508                    22507995.020
 122093736.169 7  95138060.853 7  23233672.609                    23233683.469
 128450893.932 5 100091559.90843  24443380.430                    24443391.684
 108557560.783 8  84590420.93546  20657796.344                    20657801.746
 124547032.040 6  97049724.055 6  23700509.094                    23700517.836
 110473270.979 8  86083182.38946  21022349.695                    21022357.180
 117814111.043 7  91803343.17745  22419266.273                    22419274.934
 111668921.021 8  87014826.714 7  21249881.219                    21249889.156
 110185573.581 8  85858972.909 7  20967619.617                    20967626.727
 11  8 15  1  6  0.0000000  0  9G30G25G09G02G17G10G04G05G12
 118204456.290 7  92107453.59145  22493572.109                    22493581.332
 122006167.836 7  95069825.806 7  23217009.289                    23217019.809
 128534127.740 6 100156417.35942  24459218.961                    24459230.855
 108569995.747 8  84600110.50446  20660162.641                    20660168.535
 124608598.562 6  97097697.969 6  23712224.430                    23712233.027
 110502650.714 8  86106075.68646  21027940.070                    21027947.910
 117895571.354 7  91866818.70044  22434767.789                    22434776.355
 111596517.121 8  86958408.132 7  21236103.078                    21236110.875
 110150203.260 8  85831411.622 7  20960888.625                    20960895.539
 11  8 15  1  6 30.0000000  0  9G30G25G09G02G17G10G04G05G12
 118129150.227 7  92048773.56144  22479242.453                    22479250.492
 121918906.749 7  95001830.176 7  23200403.625                    23200414.676
 128617362.457 5 100221275.52242  24475058.547                    24475070.035
 108582666.103 8  84609983.50346  20662573.938                    20662579.434
 124670343.269 7  97145810.704 6  23723974.828                    23723983.406
 110532640.441 8  86129444.29646  21033646.953                    21033654.918
 117977086.749 7  91930337.15544  22450279.688                    22450288.195
 111524545.698 8  86902326.543 7  21222407.719                    21222415.289
 110115363.689 8  85804263.906 7  20954258.953                    20954266.031
 11  8 15  1  7  0.0000000  0  9G30G25G09G02G17G10G04G05G12
 118054285.084 7  91990437.04644  22464995.898                    22465003.133
 121831955.399 7  94934075.898 7  23183857.164                    23183868.320
 128700594.654 5 100286131.60942  24490896.617                    24490909.027
 108595570.033 8  84620038.50046  20665029.000                    20665034.676
 124732266.111 6  97194062.274 6  23735757.609                    23735766.629
 110563238.804 8  86153287.16946  21039469.836                    21039478.063
 118058655.513 7  91993897.18945  22465801.531                    22465810.191
 111453009.058 8  86846583.736 7  21208794.422                    21208802.875
 110081055.155 8  85777529.984 7  20947730.070                    20947737.355
 11  8 15  1  7 30.0000000  0  9G30G25G09G02G17G10G04G05G12
 117979863.457 7  91932446.20344  22450833.289                    22450842.363
 121745316.431 7  94866565.018 6  23167370.695                    23167381.148
 128783821.330 5 100350983.48242  24506734.672                    24506746.566
 108608706.684 8  84630274.84346  20667529.328                    20667534.477
 124794367.592 6  97242453.032 6  23747575.609                    23747584.395
 110594444.734 8  86177603.47346  21045407.781                    21045415.969
 118140275.885 7  92057497.45244  22481333.766                    22481341.992
 111381909.333 8  86791181.392 7  21195264.469                    21195272.520
 110047279.432 8  85751211.230 7  20941303.000                    20941310.168
 11  8 15  1  8  0.0000000  0  9G30G25G09G02G17G10G04G05G12
 117905888.151 7  91874803.17045  22436756.711                    22436766.254
 121658992.724 7  94799299.818 6  23150943.586                    23150954.488
 128867039.635 5 100415828.75542  24522570.805                    24522582.379
 108622075.085 8  84640691.76646  20670073.180                    20670078.652
 124856647.957 6  97290983.182 6  23759426.789                    23759436.016
 110626257.312 8  86202392.47846  21051461.742                    21051469.504
 118221946.828 7  92121137.11544  22496875.391                    22496883.570
 111311248.840 8  86736121.310 7  21181818.242                    21181826.230
 110014038.689 8  85725309.365 7  20934977.461                    20934984.695
 11  8 15  1  8 30.0000000  0  9G30G25G09G02G17G10G04G05G12
 117832361.454 7  91817509.66245  22422765.352                    22422774.113
 121572986.706 7  94732282.168 6  23134576.813                    23134587.512
 128950246.190 5 100480664.95142  24538404.289                    24538416.254
 108635673.946 8  84651288.27946  20672661.141                    20672666.531
 124919107.667 6  97339653.081 6  23771312.328                    23771321.512
 110658674.928 8  86227652.95046  21057630.695                    21057638.633
 118303666.594 7  92184814.82344  22512426.016                    22512434.777
 111241030.175 8  86681405.493 7  21168456.258                    21168463.984
 109981334.209 8  85699825.355 7  20928753.930                    20928761.234
 11  8 15  1  9  0.0000000  0  9G30G25G09G02G17G10G04G05G12
 117759286.035 7  91760567.78044  22408858.633                    22408867.133
 121487301.182 7  94665514.253 7  23118272.219                    23118282.398
 129033437.897 6 100545489.56643  24554235.055                    24554247.281
 108649501.989 8  84662063.38146  20675292.289                    20675297.699
 124981746.736 6  97388462.740 6  23783232.414                    23783241.168
 110691696.608 8  86253384.11945  21063914.125                    21063922.016
 118385433.846 7  92248529.53344  22527986.211                    22527994.285
 111171255.954 8  86627036.007 7  21155178.344                    21155186.520
 109949167.609 8  85674760.482 7  20922632.805                    20922639.766
 11  8 15  1  9 30.0000000  0  9G30G25G09G02G17G10G04G05G12
 117686664.143 7  91703979.27844  22395039.125                    22395047.730
 121401938.733 7  94598998.078 7  23102028.289                    23102038.566
 129116611.782 6 100610300.27743  24570062.734                    24570074.832
 108663558.103 8  84673016.19446  20677966.930                    20677972.121
 125044565.530 6  97437412.443 6  23795186.875                    23795195.477
 110725320.914 8  86279584.86645  21070313.250                    21070321.047
 118467246.927 7  92312279.97845  22543554.664                    22543563.309
 111101927.867 8  86573014.158 7  21141985.750                    21141993.664
 109917540.047 8  85650115.634 7  20916614.258                    20916621.484
 11  8 15  1 10  0.0000000  0  9G30G25G09G02G17G10G04G05G12
 117614498.545 7  91647746.36045  22381307.336                    22381316.426
 121316901.977 7  94532735.698 6  23085846.070                    23085856.625
 129199764.602 6 100675094.59543  24585886.406                    24585899.195
 108677841.128 8  84684145.82946  20680685.078                    20680690.469
 125107564.437 6  97486502.497 6  23807174.359                    23807183.805
 110759546.613 8  86306254.23846  21076825.617                    21076833.621
 118549104.598 7  92376065.15445  22559131.602                    22559140.449
 111033048.452 8  86519341.919 7  21128878.695                    21128886.484
 109886453.289 8  85625892.191 7  20910698.414                    20910705.770
 11  8 15  1 10 30.0000000  0  9G30G25G09G02G17G10G04G05G12
 117542791.541 7  91591870.78845  22367661.953                    22367670.684
 121232193.577 7  94466729.187 7  23069726.164                    23069736.590
 129282893.276 6 100739870.07543  24601705.367                    24601717.734
 108692349.754 8  84695451.25946  20683445.992                    20683451.535
 125170743.687 6  97535733.057 6  23819197.602                    23819206.609
 110794372.557 8  86333391.32646  21083452.953                    21083461.281
 118631005.245 7  92439883.81444  22574716.352                    22574725.410
 110964620.250 8  86466021.279 7  21115856.773                    21115864.875
 109855908.425 8  85602091.001 7  20904885.750                    20904893.484
 11  8 15  1 11  0.0000000  0  9G30G25G09G02G17G10G04G05G12
 117471545.314 7  91536354.28344  22354103.789                    22354112.500
 121147815.962 7  94400980.432 7  23053670.172                    23053680.574
 129365994.651 6 100804624.27643  24617519.500                    24617531.508
 108707082.588 8  84706931.39746  20686249.516                    20686254.949
 125234103.643 6  97585104.461 6  23831254.195                    23831263.277
 110829797.197 8  86360994.93046  21090194.031                    21090202.246
 118712947.165 7  92503734.63444  22590309.383                    22590318.484
 110896645.070 8  86413053.639 7  21102921.789                    21102930.074
 109825906.526 8  85578712.898 7  20899176.938                    20899184.301
 11  8 15  1 11 30.0000000  0  9G30G25G09G02G17G10G04G05G12
 117400762.785 7  91481199.06544  22340633.914                    22340641.695
 121063772.123 7  94335491.755 7  23037677.094                    23037687.484
 129449066.006 7 100869355.09143  24633327.664                    24633339.438
 108722038.990 8  84718585.74046  20689095.719                    20689101.000
 125297644.422 6  97634616.733 6  23843345.859                    23843354.781
 110865819.522 8  86389064.25846  21097049.250                    21097057.332
 118794929.497 7  92567616.94644  22605909.453                    22605919.098
 110829125.917 8  86360441.351 7  21090073.016                    21090080.836
 109796449.735 8  85555759.564 7  20893571.227                    20893578.734
 11  8 15  1 12  0.0000000  0  9G30G25G09G02G17G10G04G05G12
 117330446.385 7  91426407.00345  22327254.172                    22327261.871
 120980064.636 7  94270265.178 7  23021747.438                    23021758.434
 129532104.263 6 100934060.15044  24649129.250                    24649141.301
 108737217.628 8  84730413.26346  20691983.766                    20691989.500
 125361366.385 6  97684270.206 6  23855471.195                    23855480.465
 110902437.861 8  86417598.02346  21104017.352                    21104025.000
 118876950.562 7  92631529.43744  22621518.328                    22621527.418
 110762064.752 8  86308185.929 7  21077311.898                    21077320.027
 109767539.218 8  85533231.893 7  20888070.297                    20888077.570
 11  8 15  1 12 30.0000000  0  9G30G25G09G02G17G10G04G05G12
 117260598.144 7  91371979.79445  22313962.680                    22313971.254
 120896695.870 7  94205302.513 7  23005883.234                    23005893.816
 129615106.168 7 100998736.83043  24664924.125                    24664935.953
 108752616.939 8  84742412.73046  20694914.180                    20694919.523
 125425269.630 6  97734064.902 6  23867631.336                    23867641.156
 110939650.856 8  86446595.14746  21111098.430                    21111106.777
 118959008.793 7  92695470.89844  22637133.258                    22637142.215
 110695463.252 8  86256288.694 7  21064637.898                    21064645.652
 109739176.025 8  85511130.711 7  20882672.523                    20882679.754
 11  8 15  1 13  0.0000000  0  9G30G25G09G02G17G10G04G05G12
 117191220.531 7  91317919.37745  22300759.422                    22300768.918
 120813668.434 7  94140605.816 7  22990083.781                    22990094.102
 129698068.711 6 101063382.86044  24680711.406                    24680723.316
 108768235.839 8  84754583.31546  20697886.547                    20697892.129
 125489354.340 6  97784001.020 6  23879826.516                    23879836.031
 110977456.937 8  86476054.42446  21118292.688                    21118301.066
 119041102.919 7  92759440.33444  22652755.539                    22652764.355
 110629323.867 8  86204751.540 7  21052052.281                    21052060.223
 109711361.565 8  85489457.110 7  20877379.875                    20877386.848
 11  8 15  1 13 30.0000000  0  9G30G25G09G02G17G10G04G05G12
 117122316.033 7  91264227.58345  22287647.922                    22287656.207
 120730985.049 7  94076177.237 7  22974349.773                    22974360.520
 129780988.940 6 101127995.90544  24696490.891                    24696502.191
 108784073.260 8  84766924.16646  20700900.211                    20700905.574
 125553620.754 6  97834078.721 6  23892056.492                    23892066.172
 111015854.589 8  86505974.65946  21125599.367                    21125607.703
 119123231.298 7  92823436.46244  22668384.172                    22668392.566
 110563649.051 8  86153576.394 7  21039554.508                    21039562.496
 109684097.050 8  85468212.043 7  20872191.508                    20872198.773
 11  8 15  1 14  0.0000000  0  9G30G25G09G02G17G10G04G05G12
 117053887.099 7  91210906.27544  22274626.711                    22274633.734
 120648648.327 7  94012018.779 7  22958681.102                    22958692.246
 129863863.722 6 101192573.55844  24712261.961                    24712272.953
 108800128.291 8  84779434.58646  20703955.219                    20703961.098
 125618069.313 6  97884298.351 6  23904320.836                    23904330.191
 111054842.551 8  86536354.87845  21133018.914                    21133026.988
 119205392.998 7  92887458.55744  22684019.172                    22684027.301
 110498440.800 7  86102764.807 7  21027145.563                    21027153.723
 109657383.940 8  85447396.630 8  20867108.453                    20867115.824
 11  8 15  1 14 30.0000000  0  9G30G25G09G02G17G10G04G05G12
 116985935.979 7  91157957.32745  22261695.188                    22261703.895
 120566660.826 7  93948132.414 6  22943080.266                    22943090.102
 129946690.137 6 101257113.56643  24728022.438                    24728034.488
 108816399.119 8  84792113.16246  20707051.969                    20707057.230
 125682699.798 6  97934659.745 6  23916619.094                    23916628.621
 111094419.106 8  86567193.73645  21140550.227                    21140558.070
 119287586.345 7  92951505.32844  22699659.195                    22699668.449
 110433701.121 8  86052318.347 7  21014826.133                    21014834.188
 109631223.428 8  85427011.827 7  20862130.242                    20862137.645
 11  8 15  1 15  0.0000000  0  9G30G25G09G02G17G10G04G05G12
 116918465.036 7  91105382.61445  22248855.711                    22248865.500
 120485025.142 7  93884520.194 7  22927544.492                    22927555.168
 130029465.090 6 101321613.41743  24743773.867                    24743786.176
 108832885.042 8  84804959.35046  20710188.641                    20710194.570
 125747512.834 7  97985163.384 6  23928953.148                    23928962.051
 111134582.685 8  86598490.01946  21148193.000                    21148200.941
 119369809.936 7  93015575.63244  22715306.594                    22715315.238
 110369432.474 8  86002238.914 7  21002596.391                    21002603.723
 109605616.755 8  85407058.579 7  20857257.055                    20857264.680
 11  8 15  1 15 30.0000000  0  9G30G25G09G02G17G10G04G05G12
 116851476.962 7  91053184.16145  22236108.664                    22236117.816
 120403744.225 7  93821184.414 7  22912077.430                    22912088.047
 130112185.878 6 101386071.09743  24759515.563                    24759527.820
 108849585.285 8  84817972.52746  20713367.148                    20713372.313
 125812508.822 6  98035809.579 6  23941321.141                    23941330.324
 111175332.328 8  86630242.98346  21155947.180                    21155955.590
 119452062.799 7  93079668.78344  22730958.500                    22730967.223
 110305637.248 7  85952528.382 7  20990456.281                    20990464.367
 109580565.854 8  85387538.391 7  20852490.102                    20852497.520
 11  8 15  1 16  0.0000000  0  9G30G25G09G02G17G10G04G05G12
 116784973.642 7  91001363.37045  22223454.148                    22223461.656
 120322820.208 7  93758126.750 7  22896678.070                    22896688.777
 130194849.023 6 101450483.87743  24775245.242                    24775259.219
 108866497.936 8  84831151.22646  20716585.289                    20716590.730
 125877687.421 6  98086598.093 6  23953723.961                    23953733.719
 111216665.781 8  86662450.85845  21163812.445                    21163820.578
 119534343.190 7  93143783.35244  22746616.273                    22746624.918
 110242316.893 8  85903187.884 7  20978406.758                    20978415.074
 109556070.624 8  85368451.206 7  20847828.867                    20847836.391
 11  8 15  1 16 30.0000000  0  9G30G25G09G02G17G10G04G05G12
 116718957.458 7  90949922.16744  22210891.078                    22210899.160
 120242255.783 7  93695349.267 7  22881347.641                    22881357.719
 130277451.764 6 101514849.54043  24790964.617                    24790977.969
 108883621.905 8  84844494.58246  20719843.875                    20719849.496
 125943048.965 7  98137529.133 6  23966162.297                    23966171.262
 111258581.861 8  86695112.72546  21171789.211                    21171797.531
 119616650.060 7  93207918.55344  22762278.461                    22762287.348
 110179473.656 8  85854219.162 7  20966447.836                    20966456.039
 109532132.681 8  85349798.264 7  20843273.703                    20843281.063
 11  8 15  1 17  0.0000000  0  9G30G25G09G02G17G10G04G05G12
 116653430.742 7  90898862.40845  22198421.383                    22198430.688
 120162053.566 7  93632854.065 7  22866085.188                    22866096.047
 130359991.248 6 101579165.94542  24806670.953                    24806684.699
 108900956.365 8  84858001.94746  20723142.477                    20723147.914
 126008593.820 7  98188603.029 6  23978635.406                    23978644.281
 111301078.694 8  86728227.13145  21179876.289                    21179884.352
 119698982.035 7  93272073.29944  22777945.383                    22777954.813
 110117109.816 8  85805624.004 7  20954580.664                    20954588.344
 109508753.305 8  85331580.570 7  20838824.641                    20838831.898
 11  8 15  1 17 30.0000000  0  9G30G25G09G02G17G10G04G05G12
 116588395.828 7  90848185.86545  22186045.961                    22186055.219
 120082216.124 7  93570643.083 6  22850892.680                    22850903.008
 130442464.470 5 101643430.69442  24822365.289                    24822378.711
 108918499.981 8  84871672.29946  20726480.805                    20726486.445
 126074321.904 6  98239819.711 6  23991142.867                    23991151.949
 111344154.553 8  86761792.72846  21188073.414                    21188081.828
 119781337.641 7  93336246.46544  22793617.445                    22793626.121
 110055227.461 8  85757404.012 7  20942805.031                    20942812.699
 109485933.449 8  85313798.859 7  20834481.938                    20834489.535
 11  8 15  1 18  0.0000000  0  9G30G25G09G02G17G10G04G05G12
 116523854.825 7  90797894.19445  22173764.617                    22173773.504
 120002745.894 7  93508718.201 6  22835770.180                    22835780.680
 130524868.690 5 101707641.68042  24838046.148                    24838059.574
 108936251.412 8  84885504.58946  20729858.836                    20729864.340
 126140233.565 6  98291179.437 6  24003685.109                    24003694.363
 111387807.619 8  86795808.09345  21196379.781                    21196387.730
 119863715.608 7  93400437.05744  22809293.766                    22809302.496
 109993828.286 7  85709560.526 7  20931120.961                    20931128.906
 109463674.536 8  85296454.257 7  20830246.547                    20830253.832
 11  8 15  1 18 30.0000000  0  9G30G25G09G02G17G10G04G05G12
 116459809.933 7  90747989.08145  22161577.086                    22161585.477
 119923645.465 7  93447081.513 7  22820717.766                    22820728.926
 130607200.561 5 101771796.32142  24853714.063                    24853726.242
 108954209.631 8  84899498.00346  20733275.953                    20733282.059
 126206328.920 6  98342682.292 6  24016262.438                    24016272.188
 111432036.530 8  86830272.17545  21204796.375                    21204804.531
 119946114.648 7  93464644.06744  22824973.813                    22824982.492
 109932914.462 8  85662095.246 7  20919529.688                    20919537.602
 109441977.186 8  85279547.228 7  20826117.828                    20826124.801
 11  8 15  1 19  0.0000000  0  9G30G25G09G02G17G10G04G05G12
 116396263.958 7  90698472.74444  22149484.031                    22149492.855
 119844917.964 7  93385735.432 7  22805736.008                    22805747.723
 130689457.790 5 101835892.82842  24869367.148                    24869379.445
 108972374.355 8  84913652.33246  20736733.000                    20736738.512
 126272608.567 6  98394328.748 6  24028874.859                    24028884.680
 111476839.883 8  86865183.87145  21213322.344                    21213330.625
 120028534.113 7  93528866.98944  22840657.945                    22840666.281
 109872488.626 8  85615010.212 7  20908030.586                    20908038.527
 109420843.096 8  85263079.103 7  20822095.836                    20822103.277
 11  8 15  1 19 30.0000000  0  8G30G25G02G17G10G04G05G12
 116333218.721 7  90649346.59645  22137487.648                    22137496.633
 119766565.437 7  93324681.516 6  22790826.219                    22790837.176
 108990743.611 8  84927966.03146  20740228.250                    20740233.879
 126339072.435 6  98446118.765 6  24041523.023                    24041532.367
 111522215.835 7  86900541.75145  21221956.711                    21221965.121
 120110972.176 7  93593104.41644  22856345.883                    22856354.211
 109812552.286 8  85568306.604 7  20896624.922                    20896632.992
 109400273.365 8  85247050.727 8  20818181.680                    20818189.117
 11  8 15  1 20  0.0000000  0  8G30G25G02G17G10G04G05G12
 116270676.304 7  90600612.26345  22125586.188                    22125594.848
 119688590.306 7  93263921.668 7  22775988.250                    22775998.324
 109009315.779 8  84942437.84646  20743762.281                    20743768.379
 126405720.111 6  98498052.001 6  24054206.391                    24054215.438
 111568161.990 8  86936343.94745  21230700.109                    21230708.148
 120193427.441 7  93657355.25744  22872036.039                    22872045.063
 109753107.232 8  85521985.816 7  20885312.969                    20885321.043
 109380268.018 8  85231462.129 7  20814374.789                    20814381.977
 11  8 15  1 20 30.0000000  0  8G30G25G02G17G10G04G05G12
 116208639.076 7  90552271.58545  22113780.648                    22113789.527
 119610995.415 7  93203458.114 7  22761222.344                    22761232.910
 109028090.695 8  84957067.64446  20747335.125                    20747340.594
 126472552.033 6  98550128.819 6  24066923.836                    24066932.668
 111614676.729 8  86972589.19345  21239551.797                    21239559.730
 120275899.019 7  93721618.80744  22887729.719                    22887738.527
 109694155.687 8  85476049.583 7  20874095.164                    20874102.770
 109360828.501 8  85216314.444 7  20810675.305                    20810682.977
 11  8 15  1 21  0.0000000  0  8G30G25G02G17G10G04G05G12
 116147108.878 7  90504325.96845  22102072.070                    22102079.746
 119533782.838 7  93143292.528 7  22746528.914                    22746540.707
 109047066.468 8  84971853.95246  20750946.141                    20750952.012
 126539568.240 6  98602349.227 6  24079676.234                    24079685.215
 111661758.330 8  87009276.15045  21248511.359                    21248519.121
 120358385.235 7  93785893.76044  22903426.047                    22903435.000
 109635699.163 8  85430499.078 7  20862971.023                    20862978.742
 109341955.711 8  85201608.364 7  20807084.539                    20807091.285
 11  8 15  1 21 30.0000000  0  8G30G25G02G17G10G04G05G12
 116086087.967 7  90456777.19645  22090460.180                    22090468.207
 119456955.351 7  93083426.976 7  22731909.828                    22731920.531
 109066242.020 8  84986795.92946  20754595.102                    20754600.504
 126606768.879 6  98654713.323 6  24092463.953                    24092473.258
 111709405.173 8  87046403.55945  21257577.922                    21257586.094
 120440885.031 7  93850179.29644  22919125.680                    22919134.398
 109577739.778 8  85385335.947 7  20851941.555                    20851949.563
 109323650.713 8  85187344.711 7  20803600.891                    20803608.031
 11  8 15  1 22  0.0000000  0  8G30G25G02G17G10G04G05G12
 116025578.487 7  90409626.96045  22078945.688                    22078954.117
 119380515.264 7  93023863.282 6  22717363.734                    22717373.766
 109085616.249 8  85001892.72946  20758282.063                    20758287.559
 126674154.116 6  98707221.300 6  24105287.602                    24105296.348
 111757614.886 8  87083969.56745  21266751.789                    21266760.094
 120523397.065 7  93914474.36444  22934826.500                    22934835.754
 109520279.248 8  85340561.551 8  20841007.008                    20841015.215
 109305914.157 8  85173524.012 8  20800226.195                    20800233.281
 11  8 15  1 22 30.0000000  0  8G30G25G02G17G10G04G05G12
 115965582.695 7  90362877.01645  22067528.922                    22067537.207
 119304465.222 7  92964603.511 6  22702891.500                    22702901.609
 109105188.302 8  85017143.67346  20762006.453                    20762012.121
 126741724.145 6  98759873.233 6  24118145.211                    24118154.395
 111806385.861 8  87121972.92345  21276032.844                    21276040.441
 120605920.522 7  93978778.32544  22950530.781                    22950539.477
 109463319.660 8  85296177.499 7  20830168.352                    20830176.195
 109288747.253 8  85160147.194 7  20796959.164                    20796966.176
 11  8 15  1 23  0.0000000  0  8G30G25G02G17G10G04G05G12
 115906102.564 7  90316528.85945  22056210.359                    22056219.004
 119228807.786 7  92905649.677 7  22688494.688                    22688505.758
 109124956.865 8  85032547.74646  20765767.969                    20765773.691
 126809478.903 6  98812669.124 6  24131038.258                    24131047.523
 111855716.518 8  87160412.38945  21285420.273                    21285427.965
 120688454.043 7  94043090.11044  22966236.805                    22966244.969
 109406862.864 8  85252185.225 7  20819424.969                    20819432.805
 109272150.627 8  85147214.749 7  20793800.617                    20793808.270
 11  8 15  1 23 30.0000000  0  8G30G25G02G17G10G04G05G12
 115847140.288 7  90270584.21445  22044990.078                    22044997.953
 119153545.445 7  92847003.721 7  22674172.672                    22674183.859
 109144920.846 8  85048104.08046  20769567.156                    20769572.684
 126877418.616 6  98865609.157 6  24143966.734                    24143976.613
 111905604.757 8  87199286.33645  21294913.250                    21294921.625
 120770996.466 7  94107408.85244  22981943.406                    22981952.719
 109350910.707 8  85208586.178 8  20808777.547                    20808785.605
 109256125.390 8  85134727.543 7  20790751.242                    20790758.598
 11  8 15  1 24  0.0000000  0  8G30G25G02G17G10G04G05G12
 115788697.619 7  90225044.46945  22033868.867                    22033877.031
 119078680.354 7  92788667.321 7  22659925.836                    22659936.938
 109165079.004 8  85063811.74046  20773403.117                    20773409.004
 126945543.262 6  98918693.253 6  24156929.914                    24156940.234
 111956048.377 8  87238593.04745  21304512.602                    21304520.891
 120853546.338 6  94171733.36944  22997652.156                    22997661.629
 109295464.742 8  85165381.564 7  20798226.523                    20798234.301
 109240672.603 8  85122686.395 8  20787810.883                    20787818.539
 11  8 15  1 24 30.0000000  0  8G30G25G02G17G10G04G05G12
 115730776.993 7  90179911.51545  22022846.523                    22022855.395
 119004215.441 7  92730642.752 7  22645756.242                    22645766.691
 109185430.511 8  85079670.05346  20777275.961                    20777281.715
 127013852.940 6  98971921.508 5  24169929.883                    24169938.840
 112007045.827 8  87278331.31245  21314217.172                    21314225.238
 120936102.777 7  94236063.03044  23013362.313                    23013371.270
 109240527.064 8  85122573.018 8  20787772.289                    20787779.727
 109225792.228 8  85111091.292 8  20784978.984                    20784986.340
 11  8 15  1 25  0.0000000  0  8G30G25G02G17G10G04G05G12
 115673380.399 7  90135186.91145  22011924.742                    22011933.574
 118930153.025 8  92672931.756 7  22631662.656                    22631672.250
 109205974.237 8  85095678.14446  20781185.563                    20781190.664
 127082347.670 6  99025294.031 5  24182964.531                    24182972.820
 112058595.186 8  87318499.64545  21324026.617                    21324034.852
 121018664.816 7  94300397.05144  23029073.836                    23029082.406
 109186099.693 8  85080162.116 8  20777414.977                    20777422.777
 109211485.453 8  85099943.163 7  20782256.844                    20782264.266
 11  8 15  1 25 30.0000000  0  8G30G25G02G17G10G04G05G12
 115616509.552 7  90090871.96445  22001102.289                    22001110.227
 118856495.282 7  92615536.111 7  22617645.453                    22617656.832
 109226708.554 8  85111834.74546  20785131.156                    20785136.074
 127151027.406 6  99078810.716 5  24196033.008                    24196041.512
 112110693.926 7  87359096.06545  21333940.344                    21333948.535
 121101230.920 7  94364734.21944  23044785.398                    23044794.156
 109132183.839 7  85038149.796 8  20767154.828                    20767162.609
 109197752.877 8  85089242.448 7  20779643.500                    20779650.945
 11  8 15  1 26  0.0000000  0  8G30G25G02G17G10G04G05G12
 115560166.538 7  90046968.27545  21990380.500                    21990388.641
 118783244.896 7  92558457.934 7  22603706.234                    22603717.957
 109247632.750 8  85128139.30646  20789113.133                    20789118.164
 127219892.431 6  99132471.767 5  24209137.383                    24209146.688
 112163340.226 7  87400119.14145  21343958.969                    21343967.387
 121183800.082 7  94429073.79244  23060498.070                    23060506.520
 109078781.243 8  84996537.423 8  20756992.414                    20757000.246
 109184595.667 8  85078990.064 7  20777139.805                    20777147.129
 11  8 15  1 26 30.0000000  0  8G30G25G02G17G10G04G05G12
 115504353.535 7  90003477.64045  21979759.641                    21979768.301
 118710404.276 7  92501699.045 7  22589845.586                    22589856.227
 109268745.648 8  85144590.90346  20793130.492                    20793135.684
 127288942.729 6  99186277.151 6  24222277.633                    24222286.934
 112216532.468 7  87441567.63545  21354081.305                    21354089.430
 121266371.339 7  94493414.99444  23076210.945                    23076219.262
 109025893.879 8  84955326.522 7  20746928.648                    20746936.082
 109172014.328 8  85069186.416 8  20774745.414                    20774753.441
 11  8 15  1 27  0.0000000  0  8G30G25G02G17G10G04G05G12
 115449072.194 7  89960401.26945  21969239.977                    21969248.480
 118637975.700 8  92445261.155 6  22576063.289                    22576072.227
 109290045.774 8  85161188.39646  20797183.633                    20797189.285
 127358178.106 6  99240226.781 6  24235452.102                    24235462.000
 112270268.133 7  87483439.57345  21364306.836                    21364315.012
 121348943.471 7  94557756.85644  23091923.242                    23091932.406
 108973523.453 8  84914518.422 8  20736962.945                    20736970.480
 109160008.831 8  85059831.481 7  20772461.227                    20772468.559
 11  8 15  1 27 30.0000000  0  8G30G25G02G17G10G04G05G12
 115394324.850 7  89917741.01245  21958821.664                    21958830.160
 118565961.876 7  92389146.434 7  22562359.148                    22562369.449
 109311532.924 8  85177931.62146  20801272.719                    20801278.090
 127427598.922 6  99294320.906 6  24248662.641                    24248672.430
 112324545.403 7  87525733.54245  21374635.156                    21374643.172
 121431515.404 6  94622098.60044  23107636.695                    23107645.555
 108921671.708 8  84874114.494 8  20727095.734                    20727103.609
 109148580.784 8  85050926.509 8  20770286.484                    20770293.805
 11  8 15  1 28  0.0000000  0  8G30G25G02G17G10G04G05G12
 115340113.097 7  89875498.06645  21948505.867                    21948513.500
 118494364.905 7  92333356.625 7  22548733.875                    22548745.488
 109333205.315 8  85194819.19946  20805396.633                    20805402.809
 127497205.093 6  99348559.465 6  24261908.336                    24261917.621
 112379362.004 7  87568447.76745  21385066.742                    21385074.953
 121514086.130 6  94686439.38744  23123349.195                    23123357.926
 108870340.330 8  84834116.054 7  20717327.820                    20717335.883
 109137730.445 8  85042471.690 8  20768221.438                    20768228.941
 11  8 15  1 28 30.0000000  0  9G30G25G29G02G17G10G04G05G12
 115286439.011 7  89833674.11345  21938292.180                    21938300.305
 118423187.416 7  92277893.665 7  22535190.211                    22535201.074
 129575831.08416 100968225.65916  24657465.789                    24657476.301
 109355062.213 8  85211850.54546  20809555.969                    20809561.336
 127566996.585 6  99402942.388 6  24275189.523                    24275198.813
 112434715.940 7  87611580.69045  21395599.891                    21395608.051
 121596654.473 6  94750778.32343  23139061.094                    23139070.023
 108819530.816 8  84794524.254 8  20707659.055                    20707666.879
 109127458.831 8  85034467.827 7  20766266.844                    20766274.688
 11  8 15  1 29  0.0000000  0  9G30G25G29G02G17G10G04G05G12
 115233304.490 8  89792270.59545  21928180.766                    21928189.242
 118352431.830 7  92222759.410 7  22521726.063                    22521736.031
 129496223.879 7 100906194.064 6  24642317.578                    24642327.590
 109377102.344 8  85229024.67146  20813750.195                    20813755.203
 127636973.603 6  99457469.909 6  24288506.445                    24288515.961
 112490605.239 7  87655130.78445  21406235.727                    21406243.609
 121679219.487 6  94815114.63944  23154773.148                    23154781.855
 108769244.811 8  84755340.384 8  20698089.758                    20698097.477
 109117765.772 8  85026914.788 7  20764422.602                    20764429.617
 11  8 15  1 29 30.0000000  0  9G30G25G29G02G17G10G04G05G12
 115180711.494 7  89751289.05845  21918172.391                    21918181.133
 118282100.438 7  92167955.708 7  22508341.531                    22508351.906
 129416541.421 6 100844103.861 5  24627154.023                    24627163.883
 109399324.965 8  85246340.99346  20817978.742                    20817984.102
 127707136.284 6  99512142.124 6  24301857.547                    24301866.984
 112547027.724 7  87699096.34745  21416972.461                    21416980.527
 121761780.112 7  94879447.55443  23170483.664                    23170492.609
 108719483.821 8  84716565.623 8  20688620.648                    20688628.125
 109108652.168 8  85019813.263 7  20762688.305                    20762695.633
 11  8 15  1 30  0.0000000  0  9G30G25G29G02G17G10G04G05G12
 115128661.610 7  89710730.72845  21908267.555                    21908276.148
 118212195.576 7  92113484.383 7  22495039.336                    22495050.168
 129336783.913 6 100781955.075 5  24611977.563                    24611986.211
 109421728.691 8  85263798.43046  20822242.313                    20822247.926
 127777484.390 6  99566958.771 6  24315244.406                    24315253.531
 112603981.246 7  87743475.69445  21427810.344                    21427818.613
 121844335.273 7  94943776.21644  23186193.961                    23186202.148
 108670249.436 8  84678201.194 7  20679251.734                    20679259.234
 109100118.596 8  85013163.707 8  20761064.391                    20761071.836
 11  8 15  1 30 30.0000000  0  9G30G25G29G02G17G10G04G05G12
 115077156.638 7  89670596.99645  21898466.602                    21898475.285
 118142719.479 7  92059347.150 7  22481818.953                    22481829.707
 129256952.185 6 100719748.517 5  24596785.664                    24596794.688
 109444312.091 8  85281395.88246  20826539.641                    20826544.984
 127848017.628 6  99621919.682 6  24328665.602                    24328675.672
 112661463.613 8  87788267.14145  21438748.703                    21438756.969
 121926883.835 7  95008099.73244  23201902.039                    23201911.473
 108621543.285 8  84640248.371 8  20669983.000                    20669991.055
 109092165.479 8  85006966.464 7  20759550.781                    20759558.047
 11  8 15  1 31  0.0000000  0  9G30G25G29G02G17G10G04G05G12
 115026198.285 7  89630889.20345  21888769.711                    21888777.855
 118073674.455 7  92005545.827 7  22468679.836                    22468691.043
 129177046.876 6 100657484.625 5  24581579.953                    24581588.844
 109467074.306 8  85299132.67246  20830871.367                    20830876.633
 127918735.897 6  99677024.821 6  24342124.273                    24342132.859
 112719472.485 7  87833468.84645  21449787.578                    21449795.277
 122009424.828 7  95072417.38644  23217609.602                    23217618.324
 108573366.695 8  84602708.210 8  20660815.383                    20660823.188
 109084793.048 8  85001221.700 8  20758148.164                    20758155.363
 11  8 15  1 31 30.0000000  0  9G30G25G29G02G17G10G04G05G12
 114975788.713 7  89591609.05645  21879176.781                    21879185.656
 118005063.139 7  91952082.477 7  22455623.023                    22455634.109
 129097068.324 6 100595163.666 5  24566360.547                    24566369.699
 109490014.723 8  85317008.32246  20835236.789                    20835242.035
 127989639.549 6  99732274.426 6  24355615.727                    24355625.355
 112778005.562 7  87879079.03145  21460926.273                    21460934.477
 122091957.264 7  95136728.34144  23233314.648                    23233323.758
 108525721.426 8  84565582.060 8  20651748.477                    20651756.469
 109078002.223 8  84995930.129 7  20756855.711                    20756862.891
 11  8 15  1 32  0.0000000  0  9G30G25G29G02G17G10G04G05G12
 114925929.261 7  89552757.56745  21869688.539                    21869697.242
 117936887.438 7  91898958.541 7  22442650.422                    22442660.496
 129017017.111 5 100532786.084 5  24551127.898                    24551136.598
 109513131.663 8  85335021.52246  20839635.398                    20839640.387
 128060728.249 6  99787668.145 6  24369143.523                    24369152.566
 112837060.427 7  87925095.79745  21472164.234                    21472172.039
 122174479.863 7  95201031.63044  23249018.141                    23249027.695
 108478608.513 8  84528870.732 8  20642783.492                    20642791.434
 109071792.807 8  84991091.601 8  20755673.938                    20755681.336
 11  8 15  1 32 30.0000000  0  9G30G25G29G02G17G10G04G05G12
 114876621.566 7  89514336.01545  21860306.516                    21860314.078
 117869149.680 7  91846175.863 7  22429760.695                    22429771.051
 128936893.685 6 100470352.239 5  24535880.125                    24535889.934
 109536423.996 8  85353171.38946  20844067.711                    20844073.188
 128132002.120 6  99843206.164 6  24382706.523                    24382715.969
 112896634.896 7  87971517.45345  21483500.664                    21483508.082
 122256991.729 6  95265326.57144  23264719.367                    23264729.219
 108432029.605 8  84492575.507 8  20633919.859                    20633927.262
 109066165.497 8  84986706.659 8  20754603.195                    20754610.594
 11  8 15  1 33  0.0000000  0  9G30G25G29G02G17G10G04G05G12
 114827867.837 7  89476346.12945  21851028.773                    21851037.137
 117801852.553 7  91793736.557 7  22416953.922                    22416964.711
 128856698.933 6 100407862.784 5  24520619.398                    24520629.492
 109559891.425 8  85371457.69146  20848533.500                    20848538.863
 128203461.016 6  99898888.385 6  24396305.328                    24396314.676
 112956727.271 7  88018342.66245  21494935.813                    21494944.105
 122339492.211 6  95329612.63744  23280418.664                    23280428.125
 108385986.343 8  84456697.664 8  20625157.898                    20625165.602
 109061120.637 8  84982775.577 7  20753643.203                    20753650.938
 11  8 15  1 33 30.0000000  0  9G30G25G29G02G17G10G04G05G12
 114779669.351 7  89438788.92245  21841856.344                    21841865.277
 117734997.904 7  91741642.076 7  22404231.500                    22404242.414
 128776433.156 6 100345317.984 6  24505345.234                    24505355.578
 109583532.181 8  85389879.06446  20853032.406                    20853037.848
 128275104.857 6  99954714.728 6  24409938.547                    24409947.805
 113017334.714 7  88065569.22445  21506469.578                    21506477.051
 122421979.894 6  95393888.74344  23296115.711                    23296125.125
 108340479.840 8  84421238.090 8  20616498.086                    20616505.930
 109056658.379 8  84979298.475 8  20752794.063                    20752801.926
 11  8 15  1 34  0.0000000  0  9G30G25G29G02G17G10G04G05G12
 114732028.143 7  89401665.93445  21832790.797                    21832799.141
 117668588.366 7  91689894.377 7  22391594.828                    22391604.535
 128696096.964 6 100282718.365 6  24490058.469                    24490068.227
 109607345.645 7  85408435.00346  20857563.766                    20857569.449
 128346933.556 6 100010685.078 6  24423606.664                    24423616.098
 113078455.169 7  88113195.54845  21518099.789                    21518107.715
 122504454.218 6  95458154.44344  23311810.289                    23311819.801
 108295512.122 8  84386198.332 8  20607941.195                    20607949.168
 109052779.645 7  84976276.065 7  20752056.078                    20752063.359
 11  8 15  1 34 30.0000000  0  9G30G25G29G02G17G10G04G05G12
 114684945.333 7  89364978.06045  21823831.047                    21823839.594
 117602625.798 7  91638494.988 7  22379042.391                    22379053.078
 128615690.784 6 100220064.244 6  24474757.742                    24474767.836
 109631330.399 8  85427124.41046  20862128.000                    20862133.379
 128418947.291 6 100066799.628 6  24437310.805                    24437320.195
 113140085.901 7  88161219.48645  21529827.500                    21529836.277
 122586913.758 6  95522408.63444  23327501.742                    23327511.078
 108251083.538 8  84351578.686 8  20599486.320                    20599494.391
 109049484.138 8  84973708.135 7  20751428.938                    20751436.566
 11  8 15  1 35  0.0000000  0  9G30G25G29G02G17G10G04G05G12
 114638422.916 7  89328726.85845  21814978.391                    21814986.867
 117537112.741 7  91587445.885 7  22366575.430                    22366586.148
 128535215.591 6 100157356.337 6  24459444.070                    24459453.848
 109655485.871 8  85445946.85246  20866724.867                    20866730.215
 128491145.542 6 100123057.980 6  24451050.094                    24451058.918
 113202225.212 7  88209639.71045  21541652.414                    21541660.660
 122669358.122 7  95586651.00344  23343190.945                    23343200.117
 108207196.353 8  84317380.909 8  20591135.484                    20591143.320
 109046772.371 8  84971595.042 7  20750912.898                    20750920.434
 11  8 15  1 35 30.0000000  0  9G30G25G29G02G17G10G04G05G12
 114592462.219 7  89292913.35845  21806232.094                    21806240.879
 117472051.092 7  91536748.560 7  22354194.383                    22354205.898
 128454671.772 7 100094594.937 6  24444117.102                    24444126.262
 109679810.512 8  85464901.11546  20871353.336                    20871358.879
 128563528.293 6 100179460.077 6  24464823.773                    24464833.313
 113264870.070 7  88258453.87345  21553573.406                    21553581.227
 122751785.753 7  95650880.31744  23358875.617                    23358885.230
 108163851.210 8  84283605.503 8  20582886.836                    20582894.754
 109044644.161 8  84969936.687 8  20750507.773                    20750515.270
 11  8 15  1 36  0.0000000  0  9G30G25G29G02G17G10G04G05G12
 114547065.032 7  89257538.94045  21797593.117                    21797602.051
 117407443.367 7  91486404.895 7  22341900.453                    22341910.883
 128374059.921 7 100031780.532 6  24428776.297                    24428785.922
 109704303.270 8  85483986.38846  20876014.297                    20876019.984
 128636095.461 6 100236005.918 5  24478633.102                    24478641.418
 113328018.553 7  88307660.46345  21565589.680                    21565598.211
 122834196.174 6  95715096.23444  23374558.156                    23374567.113
 108121049.776 7  84250253.767 8  20574742.320                    20574750.074
 109043100.264 8  84968733.643 7  20750214.063                    20750221.477
 11  8 15  1 36 30.0000000  0  9G30G25G29G02G17G10G04G05G12
 114502232.960 7  89222604.88745  21789062.461                    21789069.988
 117343291.840 7  91436416.727 7  22329692.492                    22329702.672
 128293380.853 6  99968913.764 6  24413423.930                    24413433.430
 109728963.470 8  85503202.12046  20880706.891                    20880712.539
 128708846.998 6 100292695.442 5  24492477.234                    24492486.320
 113391668.388 7  88357257.72745  21577702.266                    21577710.133
 122916588.230 7  95779297.86144  23390236.867                    23390245.691
 108078793.282 8  84217326.656 8  20566700.719                    20566708.539
 109042140.520 7  84967985.784 7  20750031.469                    20750039.164
 11  8 15  1 37  0.0000000  0  9G30G25G29G02G17G10G04G05G12
 114457967.421 8  89188112.26145  21780638.594                    21780647.113
 117279598.483 7  91386785.571 7  22317571.867                    22317582.355
 128212635.160 6  99905995.063 6  24398058.844                    24398068.223
 109753790.141 8  85522547.57546  20885431.438                    20885436.918
 128781782.959 6 100349528.609 5  24506356.305                    24506365.727
 113455816.880 7  88407243.54245  21589909.070                    21589917.270
 122998961.267 7  95843484.67144  23405911.688                    23405920.531
 108037082.889 8  84184825.084 8  20558763.734                    20558771.566
 109041765.396 8  84967693.477 7  20749960.203                    20749967.637
 11  8 15  1 37 30.0000000  0  8G30G25G29G02G10G04G05G12
 114414269.836 8  89154062.20445  21772323.586                    21772332.352
 117216365.421 7  91337513.104 7  22305539.555                    22305550.473
 128131823.336 7  99843024.836 6  24382680.344                    24382690.250
 109778781.988 8  85542021.74246  20890186.742                    20890192.449
 113520461.636 7  88457616.06245  21602210.766                    21602219.004
 123081314.068 6  95907655.68344  23421583.070                    23421591.969
 107995919.859 8  84152750.025 8  20550930.602                    20550938.586
 109041974.751 8  84967856.606 7  20749999.781                    20750007.223
 11  8 15  1 38  0.0000000  0  8G30G25G29G02G10G04G05G12
 114371142.024 7  89120456.12045  21764116.492                    21764125.238
 117153595.162 7  91288601.254 7  22293594.594                    22293605.469
 128050946.483 7  99780003.941 6  24367290.664                    24367300.535
 109803938.362 8  85561624.10346  20894974.016                    20894979.816
 113585600.530 7  88508373.63645  21614606.180                    21614614.230
 123163646.097 6  95971810.51843  23437250.445                    23437259.055
 107955305.545 8  84121102.526 8  20543202.234                    20543209.758
 109042769.301 8  84968475.740 7  20750151.188                    20750158.863
 11  8 15  1 38 30.0000000  0  8G30G25G29G02G10G04G05G12
 114328585.114 7  89087294.88745  21756017.984                    21756026.672
 117091289.477 7  91240051.403 7  22281738.031                    22281748.266
 127970004.718 6  99716932.447 6  24351887.742                    24351897.309
 109829257.831 8  85581353.54946  20899792.383                    20899797.613
 113651230.740 7  88559514.04245  21627094.961                    21627103.305
 123245956.204 6  96035948.25243  23452913.195                    23452922.801
 107915241.107 8  84089883.516 8  20535578.023                    20535585.531
 109044148.216 8  84969550.215 7  20750413.633                    20750420.996
 11  8 15  1 39  0.0000000  0  8G30G25G29G02G10G04G05G12
 114286600.891 7  89054579.89745  21748028.898                    21748036.867
 117029450.875 7  91191865.505 7  22269970.203                    22269980.906
 127888999.075 6  99653811.197 6  24336472.367                    24336482.523
 109854739.871 8  85601209.68546  20904641.094                    20904647.238
 113717350.341 7  88611035.79745  21639677.641                    21639685.594
 123328243.843 6  96100068.48944  23468571.883                    23468581.559
 107875727.723 7  84059093.885 8  20528058.609                    20528066.164
 109046111.891 8  84971080.360 8  20750787.547                    20750794.770
 11  8 15  1 39 30.0000000  0  8G30G25G29G02G10G04G05G12
 114245190.663 7  89022312.18145  21740148.422                    21740157.152
 116968081.266 8  91144045.072 7  22258292.352                    22258302.746
 127807930.205 6  99590640.627 6  24321045.375                    24321054.727
 109880383.393 8  85621191.64946  20909520.953                    20909526.809
 113783956.493 7  88662936.68745  21652352.516                    21652360.328
 123410508.088 6  96164170.49243  23484226.227                    23484235.988
 107836766.358 8  84028734.409 8  20520644.391                    20520652.340
 109048660.343 8  84973066.164 7  20751272.125                    20751279.469
 11  8 15  1 40  0.0000000  0  8G30G25G29G02G10G04G05G12
 114204355.858 8  88990492.84145  21732378.336                    21732386.559
 116907182.948 7  91096591.864 7  22246703.664                    22246714.160
 127726798.815 6  99527421.392 6  24305606.391                    24305616.609
 109906187.322 8  85641298.59246  20914431.133                    20914436.871
 113851046.942 7  88715214.94945  21665119.117                    21665126.973
 123492748.029 6  96228253.52643  23499875.844                    23499885.680
 107798358.388 8  83998806.144 8  20513335.906                    20513343.578
 109051794.019 8  84975507.983 8  20751868.477                    20751875.941
 11  8 15  1 40 30.0000000  0  8G30G25G29G02G10G04G05G12
 114164097.812 8  88959122.91845  21724717.000                    21724725.484
 116846757.838 8  91049507.376 7  22235205.383                    22235216.090
 127645605.595 6  99464153.936 6  24290156.203                    24290165.863
 109932150.492 8  85661529.63746  20919372.383                    20919377.566
 113918619.177 7  88767868.62345  21677978.297                    21677985.500
 123574962.801 6  96292316.95743  23515521.445                    23515530.441
 107760504.638 8  83969309.752 8  20506132.297                    20506140.297
 109055512.575 8  84978405.560 7  20752576.039                    20752583.762
 11  8 15  1 41  0.0000000  0  8G30G25G29G02G10G04G05G12
 114124417.629 7  88928203.29045  21717166.180                    21717174.789
 116786807.875 8  91002793.128 7  22223796.750                    22223807.426
 127564351.293 6  99400838.902 6  24274693.953                    24274704.227
 109958271.973 8  85681884.03646  20924343.219                    20924348.586
 113986670.453 7  88820895.58745  21690927.805                    21690935.730
 123657151.450 6  96356360.00644  23531161.008                    23531170.195
 107723206.233 7  83940246.091 8  20499034.797                    20499042.176
 109059816.083 8  84981758.942 7  20753395.023                    20753402.680
 11  8 15  1 41 30.0000000  0  8G30G25G29G02G10G04G05G12
 114085316.970 8  88897735.22045  21709726.344                    21709733.953
 116727335.391 8  90956450.939 7  22212479.836                    22212490.117
 127483036.629 6  99337476.829 6  24259220.164                    24259230.629
 109984551.108 8  85702361.27446  20929343.734                    20929349.113
 114055198.365 7  88874293.95045  21703967.891                    21703976.184
 123739313.482 6  96420382.31343  23546795.578                    23546805.492
 107686464.454 8  83911616.168 8  20492043.039                    20492050.629
 109064704.164 8  84985567.825 7  20754325.398                    20754332.516
 11  8 15  1 42  0.0000000  0  8G30G25G29G02G10G04G05G12
 114046796.957 8  88867719.61545  21702395.305                    21702404.012
 116668342.241 8  90910482.252 7  22201254.133                    22201264.371
 127401662.288 6  99274068.266 6  24243735.664                    24243745.070
 110010986.604 8  85722960.35846  20934374.164                    20934379.227
 114124200.286 7  88928061.66545  21717098.461                    21717106.953
 123821447.849 6  96484383.09743  23562425.742                    23562435.008
 107650280.034 8  83883420.546 8  20485157.344                    20485165.023
 109070176.932 8  84989832.317 7  20755366.641                    20755374.238
 11  8 15  1 42 30.0000000  0  8G30G25G29G02G10G04G05G12
 114008859.007 7  88838157.56945  21695176.563                    21695184.695
 116609830.668 7  90864888.833 7  22190118.906                    22190129.715
 127320229.053 6  99210613.801 6  24228239.148                    24228248.859
 110037577.759 8  85743680.73346  20939434.391                    20939439.945
 114193673.935 7  88982196.97345  21730318.578                    21730327.012
 123903553.751 6  96548361.66843  23578049.789                    23578059.047
 107614654.276 8  83855660.244 8  20478377.875                    20478385.469
 109076234.185 8  84994552.252 7  20756519.344                    20756527.027
 11  8 15  1 43  0.0000000  0  8G30G25G29G02G10G04G05G12
 113971504.564 7  88809050.19245  21688068.289                    21688076.078
 116551802.762 8  90819672.287 7  22179076.570                    22179087.293
 127238737.647 6  99147114.002 6  24212731.859                    24212741.367
 110064323.791 8  85764521.79246  20944523.578                    20944529.359
 114263616.948 7  89036697.99945  21743628.992                    21743636.715
 123985630.779 7  96612317.78744  23593669.141                    23593678.039
 107579588.043 7  83828335.940 8  20471705.164                    20471712.766
 109082875.840 8  84999727.557 7  20757783.344                    20757790.680
 11  8 15  1 43 30.0000000  0  8G30G25G29G02G10G04G05G12
 113934734.234 7  88780397.97745  21681070.797                    21681079.340
 116494260.022 8  90774833.787 7  22168127.273                    22168137.180
 127157188.748 6  99083569.414 6  24197213.852                    24197223.410
 110091222.920 7  85785482.13746  20949642.523                    20949648.141
 114334026.102 7  89091562.25945  21757027.367                    21757035.348
 124067677.525 7  96676250.27544  23609281.906                    23609290.988
 107545081.842 7  83801448.021 8  20465138.555                    20465146.313
 109090101.742 8  85005358.119 7  20759158.141                    20759165.605
 11  8 15  1 44  0.0000000  0  8G30G25G29G02G10G04G05G12
 113898549.449 7  88752202.01645  21674185.055                    21674193.512
 116437204.598 7  90730374.994 7  22157269.453                    22157280.328
 127075583.541 6  99019980.939 6  24181685.117                    24181694.258
 110118274.681 8  85806561.42146  20954790.195                    20954796.133
 114404899.023 7  89146787.89045  21770514.063                    21770522.180
 124149693.491 7  96740158.78743  23624889.180                    23624897.473
 107511136.896 8  83774997.441 8  20458679.109                    20458686.844
 109097911.286 8  85011443.476 8  20760644.563                    20760651.594
 11  8 15  1 44 30.0000000  0  8G30G25G29G02G10G04G05G12
 113862951.489 7  88724463.33845  21667410.836                    21667419.328
 116380638.598 8  90686297.609 7  22146505.188                    22146516.887
 126993922.488 7  98956348.985 6  24166145.313                    24166154.719
 110145478.171 8  85827758.92746  20959966.930                    20959972.547
 114476233.148 7  89202372.91145  21784088.047                    21784096.570
 124231677.980 7  96804042.79043  23640490.523                    23640499.047
 107477754.146 8  83748984.944 8  20452326.875                    20452333.996
 109106304.543 8  85017983.671 7  20762241.617                    20762249.090
 11  8 15  1 45  0.0000000  0  8G30G25G29G02G10G04G05G12
 113827941.229 7  88697182.60445  21660748.398                    21660757.141
 116324563.671 8  90642602.864 7  22135834.953                    22135845.461
 126912206.123 6  98892673.919 5  24150594.938                    24150604.293
 110172831.862 8  85849073.48946  20965172.531                    20965178.199
 114548025.683 7  89258315.12945  21797749.969                    21797758.570
 124313629.794 7  96867901.32743  23656085.625                    23656094.320
 107444934.187 7  83723410.966 8  20446081.023                    20446088.660
 109115280.945 8  85024978.263 7  20763949.766                    20763957.293
 11  8 15  1 45 30.0000000  0  8G30G25G29G02G10G04G05G12
 113793520.402 7  88670361.17045  21654198.766                    21654207.176
 116268982.392 8  90599292.741 7  22125258.273                    22125268.395
 126830435.813 6  98828956.759 6  24135034.328                    24135043.891
 110200336.011 8  85870505.27246  20970406.008                    20970411.637
 114620274.800 7  89314613.12645  21811498.828                    21811507.207
 124395548.968 7  96931734.41643  23671674.063                    23671682.859
 107412678.411 8  83698276.619 8  20439943.086                    20439950.363
 109124840.969 8  85032427.626 8  20765769.000                    20765776.707
 11  8 15  1 46  0.0000000  0  8G30G25G29G02G10G04G05G12
 113759689.725 7  88643999.59245  21647761.023                    21647769.445
 116213896.270 8  90556368.504 7  22114775.313                    22114786.684
 126748612.103 6  98765198.057 6  24119464.016                    24119473.699
 110227989.140 8  85892053.15746  20975668.617                    20975673.805
 114692977.251 7  89371264.36945  21825333.766                    21825341.945
 124477434.595 7  96995541.36543  23687256.305                    23687265.316
 107380987.119 8  83673582.131 8  20433912.375                    20433920.055
 109134983.841 8  85040331.158 7  20767699.133                    20767706.711
 11  8 15  1 46 30.0000000  0  8G30G25G29G02G10G04G05G12
 113726450.532 7  88618098.91245  21641435.773                    21641443.734
 116159307.412 8  90513831.749 7  22104387.672                    22104398.211
 126666735.795 6  98701398.378 6  24103883.508                    24103893.355
 110255790.302 8  85913716.39046  20980958.523                    20980964.590
 114766130.725 7  89428267.04745  21839254.156                    21839262.262
 124559285.857 6  97059321.55143  23702831.203                    23702841.227
 107349861.397 8  83649328.351 8  20427989.414                    20427996.648
 109145709.286 8  85048688.646 7  20769740.125                    20769747.633
 11  8 15  1 47  0.0000000  0  8G30G25G29G02G10G04G05G12
 113693803.771 7  88592659.87345  21635223.000                    21635231.902
 116105217.695 8  90471683.909 7  22094094.906                    22094105.324
 126584807.967 6  98637558.540 6  24088293.336                    24088303.145
 110283738.552 8  85935494.23046  20986277.063                    20986282.844
 114839732.142 7  89485618.78845  21853259.734                    21853268.516
 124641102.045 6  97123074.41843  23718400.805                    23718410.438
 107319302.120 7  83625515.947 8  20422174.234                    20422181.645
 109157017.001 8  85057499.847 7  20771892.055                    20771899.195
 11  8 15  1 47 30.0000000  0  8G30G25G29G02G10G04G05G12
 113661749.936 7  88567682.85545  21629123.469                    21629132.434
 116051628.469 8  90429926.061 7  22083896.766                    22083907.180
 126502829.072 7  98573678.911 6  24072693.523                    24072703.652
 110311832.834 7  85957385.87346  20991623.461                    20991628.785
 114913778.865 7  89543317.51245  21867350.742                    21867358.613
 124722882.228 6  97186799.21943  23733962.992                    23733973.063
 107289309.648 7  83602145.216 8  20416466.992                    20416474.184
 109168906.041 8  85066764.031 7  20774154.547                    20774161.688
 11  8 15  1 48  0.0000000  0  8G30G25G29G02G10G04G05G12
 113630290.727 7  88543169.17845  21623137.398                    21623146.020
 115998542.169 8  90388560.119 7  22073794.961                    22073805.664
 126420800.347 6  98509760.481 6  24057083.820                    24057093.484
 110340072.598 7  85979390.87146  20996997.148                    20997002.824
 114988268.707 7  89601361.53545  21881525.695                    21881533.785
 124804626.019 6  97250495.61843  23749518.703                    23749528.500
 107259885.121 7  83579217.034 8  20410867.508                    20410874.867
 109181376.547 8  85076481.293 7  20776527.414                    20776534.574
 11  8 15  1 48 30.0000000  0  8G30G25G29G02G10G04G05G12
 113599426.726 7  88519119.29745  21617263.992                    21617272.957
 115945960.340 8  90347587.271 7  22063789.227                    22063799.645
 126338722.538 6  98445803.791 6  24041464.969                    24041474.637
 110368456.361 8  86001508.07346  21002398.492                    21002404.539
 115063198.617 7  89659748.45945  21895784.039                    21895792.180
 124886332.348 6  97314162.87043  23765066.656                    23765076.070
 107231028.927 8  83556731.710 8  20405376.156                    20405383.898
 109194427.859 8  85086651.148 7  20779010.789                    20779018.543
 11  8 15  1 49  0.0000000  0  8G30G25G29G02G10G04G05G12
 113569159.265 7  88495534.25845  21611504.242                    21611512.785
 115893885.136 8  90307009.183 7  22053879.367                    22053890.289
 126256596.589 6  98381809.592 6  24025835.813                    24025846.078
 110396984.118 7  86023737.49746  21007827.164                    21007832.934
 115138566.090 7  89718476.35545  21910126.234                    21910134.441
 124968001.046 7  97377800.77943  23780607.688                    23780617.434
 107202742.118 7  83534690.075 8  20399993.102                    20400000.477
 109208060.051 8  85097273.625 8  20781605.328                    20781612.707
 11  8 15  1 49 30.0000000  0  8G30G25G29G02G10G04G05G12
 113539488.956 7  88472414.52945  21605858.164                    21605866.664
 115842318.053 8  90266827.045 7  22044066.328                    22044077.352
 126174423.202 6  98317778.470 6  24010199.313                    24010208.668
 110425654.392 8  86046077.96346  21013282.992                    21013288.477
 115214368.521 7  89777543.17445  21924551.289                    21924559.043
 125049631.204 7  97441408.67743  23796142.117                    23796151.129
 107175025.064 7  83513092.389 8  20394719.266                    20394726.492
 109222272.302 8  85108348.099 7  20784309.477                    20784317.121
 11  8 15  1 50  0.0000000  0  8G30G25G29G02G10G04G05G12
 113510416.659 8  88449760.78845  21600325.789                    21600333.852
 115791260.754 8  90227042.128 7  22034350.906                    22034361.379
 126092203.228 6  98253711.012 6  23994552.844                    23994562.871
 110454466.171 8  86068528.69546  21018765.867                    21018771.590
 115290602.822 7  89836946.51945  21939057.813                    21939065.793
 125131222.038 7  97504985.93143  23811668.148                    23811677.332
 107147878.319 8  83491939.113 8  20389552.977                    20389560.711
 109237063.437 8  85119873.657 8  20787124.172                    20787131.793
 11  8 15  1 50 30.0000000  0  8G30G25G29G02G10G04G05G12
 113481943.568 7  88427573.94945  21594907.695                    21594916.414
 115740715.455 8  90187656.170 7  22024731.938                    22024743.203
 126009937.928 6  98189608.188 6  23978899.406                    23978908.051
 110483419.120 8  86091089.43246  21024274.945                    21024281.008
 115367266.785 7  89896684.67045  21953646.680                    21953654.953
 125212773.294 7  97568532.36343  23827186.359                    23827195.605
 107121302.798 8  83471230.932 8  20384496.141                    20384503.719
 109252433.404 8  85131850.240 7  20790048.758                    20790056.141
 11  8 15  1 51  0.0000000  0  8G30G25G29G02G10G04G05G12
 113454070.397 7  88405854.59645  21589603.305                    21589611.973
 115690683.641 8  90148670.340 7  22015211.258                    22015222.449
 125927627.898 7  98125470.518 6  23963235.484                    23963244.965
 110512512.285 8  86113759.43646  21029811.500                    21029817.547
 115444357.475 7  89956755.31145  21968316.500                    21968324.297
 125294284.221 7  97632047.39343  23842697.469                    23842706.242
 107095298.741 8  83450968.049 8  20379547.508                    20379554.855
 109268381.650 8  85144277.425 7  20793084.055                    20793091.176
 11  8 15  1 51 30.0000000  0  8G30G25G29G02G10G04G05G12
 113426797.738 8  88384603.15445  21584413.883                    21584422.129
 115641166.867 8  90110085.846 7  22005788.336                    22005799.391
 125845274.260 6  98061298.887 6  23947564.227                    23947574.105
 110541744.474 8  86136537.75346  21035374.117                    21035379.691
 115521872.058 7  90017156.28845  21983066.867                    21983074.699
 125375753.867 7  97695530.24543  23858200.875                    23858210.023
 107069866.686 8  83431150.884 8  20374707.977                    20374715.313
 109284907.753 8  85157154.903 7  20796228.750                    20796236.227
 11  8 15  1 52  0.0000000  0  8G30G25G29G02G10G04G05G12
 113400126.289 8  88363820.18845  21579338.523                    21579346.863
 115592166.808 8  90071903.975 7  21996464.383                    21996474.652
 125762877.652 6  97997093.796 6  23931884.109                    23931894.359
 110571114.328 8  86159423.36146  21040963.070                    21040968.855
 115599807.573 7  90077885.25345  21997897.625                    21997906.152
 125457181.597 7  97758980.43043  23873696.156                    23873705.125
 107045007.236 8  83411779.907 8  20369977.078                    20369984.941
 109302011.247 8  85170482.280 7  20799483.414                    20799491.121
 11  8 15  1 52 30.0000000  0  8G30G25G29G02G10G04G05G12
 113374056.958 8  88343506.43045  21574377.570                    21574385.965
 115543685.245 8  90034126.123 7  21987238.195                    21987248.555
 125680439.518 6  97932856.341 6  23916196.977                    23916206.953
 110600621.732 8  86182416.13946  21046577.953                    21046583.973
 115678161.392 7  90138940.17745  22012807.867                    22012815.953
 125538567.055 6  97822397.69043  23889183.227                    23889192.449
 107020720.788 8  83392855.431 8  20365355.844                    20365363.414
 109319690.570 8  85184258.370 7  20802847.813                    20802855.105
 11  8 15  1 53  0.0000000  0  8G30G25G29G02G10G04G05G12
 113348591.054 8  88323662.87145  21569531.422                    21569539.684
 115495724.424 8  89996754.057 7  21978111.969                    21978122.910
 125597960.789 6  97868587.216 6  23900501.844                    23900511.352
 110630266.858 8  86205516.23646  21052219.336                    21052225.211
 115756931.347 7  90200319.35745  22027797.023                    22027805.660
 125619909.950 6  97885781.78643  23904662.156                    23904671.184
 106997008.472 8  83374378.317 8  20360843.820                    20360850.984
 109337946.217 8  85198483.535 7  20806321.625                    20806329.402
 11  8 15  1 53 30.0000000  0  8G30G25G29G02G10G04G05G12
 113323728.678 8  88304289.59945  21564800.922                    21564808.703
 115448285.399 8  89959788.593 7  21969084.844                    21969095.672
 125515441.778 7  97804286.705 6  23884799.133                    23884808.652
 110660047.451 8  86228721.89846  21057886.406                    21057892.660
 115836114.422 7  90262020.43945  22042865.164                    22042873.313
 125701209.362 6  97949132.01143  23920132.516                    23920141.617
 106973870.051 8  83356348.394 8  20356440.289                    20356447.746
 109356776.668 8  85213156.612 7  20809905.555                    20809912.742
 11  8 15  1 54  0.0000000  0  8G30G25G29G02G10G04G05G12
 113299470.531 8  88285387.13145  21560184.625                    21560192.582
 115401369.784 8  89923230.979 7  21960156.891                    21960167.152
 125432884.076 7  97739956.023 6  23869088.656                    23869098.305
 110689962.811 8  86252032.57046  21063579.211                    21063584.852
 115915707.448 7  90324040.97945  22058011.500                    22058019.188
 125782464.650 6  98012447.86343  23935594.805                    23935603.852
 106951306.042 8  83338766.073 8  20352146.766                    20352154.125
 109376181.469 8  85228277.225 7  20813597.609                    20813604.961
 11  8 15  1 54 30.0000000  0  8G30G25G29G02G10G04G05G12
 113275817.435 8  88266956.16145  21555683.031                    21555692.004
 115354979.405 8  89887082.638 7  21951329.070                    21951339.469
 125350288.617 7  97675595.933 6  23853371.859                    23853380.961
 110720012.488 8  86275447.91046  21069297.766                    21069302.898
 115995708.174 7  90386379.19645  22073235.070                    22073243.055
 125863675.214 6  98075728.86542  23951048.578                    23951057.711
 106929316.867 8  83321631.669 8  20347962.344                    20347969.750
 109396159.785 8  85243844.733 7  20817399.367                    20817406.719
 11  8 15  1 55  0.0000000  0  8G30G25G29G02G10G04G05G12
 113252770.035 8  88248997.13845  21551297.617                    21551306.000
 115309115.773 8  89851344.755 7  21942601.680                    21942612.277
 125267656.234 6  97611207.077 6  23837646.766                    23837656.262
 110750195.516 8  86298967.14646  21075041.391                    21075047.008
 116076113.495 7  90449032.67845  22088535.867                    22088543.867
 125944840.658 6  98138974.65043  23966493.992                    23966503.023
 106907902.937 8  83304945.504 8  20343887.367                    20343895.031
 109416710.761 8  85259858.469 7  20821309.914                    20821317.355
 11  8 15  1 55 30.0000000  0  8G30G25G29G02G10G04G05G12
 113230329.037 8  88231510.64945  21547026.867                    21547035.574
 115263780.655 8  89816018.691 7  21933974.523                    21933985.285
 125184987.936 6  97546790.268 6  23821915.570                    23821925.484
 110780511.303 8  86322589.83746  21080810.039                    21080815.668
 116156920.518 7  90511999.18045  22103912.453                    22103920.594
 126025960.606 6  98202185.06243  23981930.578                    23981940.320
 106887064.873 8  83288708.077 8  20339921.703                    20339929.418
 109437833.870 8  85276318.021 7  20825329.984                    20825337.648
 11  8 15  1 56  0.0000000  0  8G30G25G29G02G10G04G05G12
 113208494.717 8  88214496.90845  21542872.008                    21542880.598
 115218975.305 8  89781105.443 7  21925448.344                    21925458.914
 125102284.658 7  97482346.181 6  23806177.203                    23806187.230
 110810958.794 8  86346315.15346  21086604.039                    21086609.859
 116238126.517 7  90575276.57545  22119365.813                    22119374.262
 126107034.308 6  98265359.40343  23997358.953                    23997367.922
 106866802.659 8  83272919.354 8  20336065.984                    20336073.625
 109459528.067 8  85293222.574 7  20829458.055                    20829465.660
 11  8 15  1 56 30.0000000  0  8G30G25G29G02G10G04G05G12
 113187267.966 7  88197956.58645  21538832.672                    21538841.461
 115174701.507 8  89746606.389 7  21917023.383                    21917033.406
 125019547.869 7  97417875.958 6  23790434.000                    23790442.965
 110841537.392 8  86370142.62746  21092422.906                    21092428.969
 116319729.318 7  90638863.15345  22134894.000                    22134902.289
 126188061.176 6  98328497.25143  24012777.172                    24012787.027
 106847116.881 7  83257579.815 8  20332319.898                    20332327.262
 109481792.783 8  85310571.698 7  20833694.984                    20833702.301
 11  8 15  1 57  0.0000000  0  8G30G25G29G02G10G04G05G12
 113166649.243 7  88181890.05845  21534909.109                    21534917.355
 115130960.853 8  89712522.767 7  21908699.664                    21908710.613
 124936777.997 6  97353379.994 6  23774682.938                    23774692.203
 110872246.559 8  86394071.84646  21098266.492                    21098272.449
 116401725.748 7  90702756.46145  22150497.344                    22150505.750
 126269040.994 6  98391598.42843  24028187.922                    24028196.840
 106828007.737 7  83242689.593 8  20328683.594                    20328691.035
 109504626.898 8  85328364.507 7  20838040.430                    20838047.348
 11  8 15  1 57 30.0000000  0  8G30G25G29G02G10G04G05G12
 113146638.607 8  88166297.35845  21531101.695                    21531109.457
 115087754.210 8  89678855.284 7  21900477.898                    21900488.281
 124853976.341 6  97288859.256 6  23758926.055                    23758935.359
 110903084.430 8  86418101.34846  21104134.898                    21104140.949
 116484112.481 7  90766953.91045  22166175.414                    22166183.289
 126349972.511 6  98454662.03243  24043587.617                    24043597.641
 106809475.042 8  83228248.561 8  20325156.727                    20325164.535
 109528029.178 8  85346600.054 7  20842492.930                    20842500.578
 11  8 15  1 58  0.0000000  0  8G30G25G29G02G10G04G05G12
 113127236.762 7  88151179.05245  21527409.102                    21527418.242
 115045083.401 8  89645605.304 7  21892357.977                    21892368.172
 124771144.044 7  97224314.675 6  23743163.828                    23743173.250
 110934051.048 8  86442231.16946  21110028.188                    21110033.621
 116566886.824 7  90831453.38445  22181926.422                    22181935.070
 126430855.706 6  98517687.92343  24058980.156                    24058988.980
 106791519.296 8  83214257.097 8  20321740.297                    20321747.516
 109551999.235 8  85365278.014 7  20847054.820                    20847062.277
 11  8 15  1 58 30.0000000  0  8G30G25G29G02G10G04G05G12
 113108444.302 8  88136535.57745  21523833.516                    21523841.430
 115002950.054 8  89612774.140 7  21884339.961                    21884350.648
 124688282.367 7  97159747.144 6  23727395.508                    23727404.770
 110965145.642 8  86466460.73046  21115944.484                    21115950.402
 116650046.323 7  90896252.98345  22197751.539                    22197759.672
 126511690.156 6  98580675.85243  24074362.172                    24074371.246
 106774140.648 8  83200715.311 8  20318433.000                    20318440.734
 109576535.793 8  85384397.405 7  20851724.250                    20851731.270
 11  8 15  1 59  0.0000000  0  8G30G25G29G02G10G04G05G12
 113090261.719 8  88122367.33745  21520373.391                    21520381.781
 114961355.606 8  89580362.897 7  21876424.797                    21876435.441
 124605392.480 7  97095157.652 6  23711622.445                    23711631.613
 110996367.776 8  86490789.65046  21121885.992                    21121891.965
 116733588.262 7  90961350.59444  22213648.727                    22213656.852
 126592475.365 6  98643625.42943  24089734.914                    24089743.938
 106757339.683 8  83187623.680 8  20315236.250                    20315243.352
 109601637.935 8  85403957.512 7  20856500.484                    20856507.688
 11  8 15  1 59 30.0000000  0  8G30G25G29G02G10G04G05G12
 113072689.168 8  88108674.45146  21517029.352                    21517037.594
 114920301.319 8  89548372.550 7  21868612.383                    21868623.645
 124522474.953 7  97030546.635 6  23695843.977                    23695852.328
 111027716.356 8  86515217.10846  21127851.344                    21127857.414
 116817509.249 7  91026743.55845  22229618.625                    22229626.441
 126673210.765 6  98706536.17543  24105097.969                    24105107.641
 106741116.275 8  83174982.083 8  20312148.578                    20312155.863
 109627304.995 8  85423957.823 7  20861385.008                    20861392.461
 11  8 15  2  0  0.0000000  0  8G30G25G29G02G10G04G05G12
 113055727.090 8  88095457.25345  21513801.328                    21513809.559
 114879788.598 8  89516804.217 7  21860902.602                    21860913.797
 124439531.075 7  96965915.068 6  23680059.383                    23680069.297
 111059190.513 8  86539742.42146  21133840.789                    21133846.793
 116901806.911 7  91092430.04144  22245660.250                    22245668.027
 126753896.081 7  98769407.90144  24120452.836                    24120461.965
 106725470.298 8  83162790.434 8  20309171.461                    20309178.879
 109653535.779 8  85444397.391 7  20866376.531                    20866383.805
 11  8 15  2  0 30.0000000  0  8G30G25G29G02G10G04G05G12
 113039375.968 8  88082716.12746  21510689.734                    21510698.332
 114839818.947 8  89485659.049 7  21853297.055                    21853307.547
 124356562.151 7  96901263.994 6  23664271.164                    23664280.840
 111090789.376 8  86564364.90646  21139854.063                    21139860.152
 116986478.329 7  91158407.76044  22261772.281                    22261780.918
 126834530.816 7  98832240.20343  24135797.047                    24135805.992
 106710402.166 8  83151049.063 8  20306303.914                    20306311.371
 109680328.984 8  85465275.210 7  20871474.742                    20871482.508
 11  8 15  2  1  0.0000000  0  8G30G25G29G02G10G04G05G12
 113023636.204 8  88070451.38845  21507694.898                    21507703.441
 114800393.900 8  89454938.250 7  21845795.086                    21845805.488
 124273569.579 7  96836594.494 6  23648478.719                    23648488.133
 111122512.847 8  86589084.49446  21145890.688                    21145896.625
 117071520.922 7  91224674.70045  22277955.625                    22277963.840
 126915114.555 7  98895032.78443  24151130.961                    24151140.234
 106695912.285 8  83139758.271 8  20303546.508                    20303554.145
 109707684.166 8  85486590.937 7  20876680.531                    20876687.996
 11  8 15  2  1 30.0000000  0  8G30G25G29G02G10G04G05G12
 113008507.758 8  88058663.00245  21504815.898                    21504824.301
 114761514.425 8  89424642.591 7  21838396.258                    21838406.539
 124190554.004 7  96771907.070 6  23632681.078                    23632690.613
 111154359.893 8  86613900.37446  21151950.961                    21151957.090
 117156931.613 7  91291228.47044  22294208.586                    22294216.973
 126995646.641 6  98957785.08843  24166455.672                    24166464.523
 106682000.316 8  83128917.803 8  20300899.055                    20300906.918
 109735599.573 8  85508343.201 7  20881992.500                    20882000.656
 11  8 15  2  2  0.0000000  0  8G30G25G29G02G10G04G05G12
 112993990.863 8  88047351.12346  21502053.273                    21502061.809
 114723181.842 8  89394773.052 7  21831101.969                    21831112.328
 124107516.618 7  96707202.645 6  23616879.234                    23616888.949
 111186329.662 8  86638811.87946  21158034.773                    21158040.750
 117242707.520 7  91358066.82445  22310531.109                    22310539.504
 127076126.672 6  99020496.84043  24181770.602                    24181779.379
 106668665.912 8  83118527.383 8  20298361.500                    20298369.285
 109764073.979 8  85530531.045 7  20887411.047                    20887418.703
 11  8 15  2  2 30.0000000  0  8G30G25G29G02G10G04G05G12
 112980085.569 8  88036515.83246  21499407.305                    21499416.000
 114685397.202 8  89365330.509 7  21823911.789                    21823921.922
 124024458.358 7  96642481.964 6  23601074.055                    23601083.570
 111218421.190 8  86663818.27446  21164141.445                    21164147.469
 117328845.518 7  91425187.33245  22326922.953                    22326931.344
 127156554.068 6  99083167.56443  24197075.188                    24197084.508
 106655909.175 8  83108587.088 8  20295934.469                    20295942.160
 109793106.486 8  85553153.771 7  20892935.984                    20892943.172
 11  8 15  2  3  0.0000000  0  8G30G25G29G02G10G04G05G12
 112966792.430 8  88026157.54245  21496877.469                    21496886.410
 114648162.208 8  89336316.239 7  21816826.422                    21816836.422
 123941380.857 7  96577746.304 6  23585264.555                    23585274.242
 111250634.458 7  86688919.51946  21170271.352                    21170277.516
 117415343.024 7  91492587.98045  22343382.906                    22343390.969
 127236928.723 6  99145797.13843  24212369.820                    24212379.508
 106643730.438 8  83099097.193 8  20293616.586                    20293624.086
 109822696.025 7  85576210.549 7  20898566.805                    20898574.387
 11  8 15  2  3 30.0000000  0  8G30G25G29G02G10G04G05G12
 112954111.338 8  88016276.16545  21494464.625                    21494473.027
 114611477.705 8  89307730.939 7  21809845.383                    21809855.902
 123858285.006 7  96512996.324 6  23569452.109                    23569461.762
 111282968.357 8  86714114.76446  21176424.289                    21176430.520
 117502196.808 7  91560266.23745  22359910.578                    22359918.875
 127317249.841 6  99208385.05843  24227654.938                    24227663.840
 106632129.408 8  83090057.443 8  20291408.766                    20291416.707
 109852841.167 8  85599700.276 7  20904303.109                    20904310.523
 11  8 15  2  4  0.0000000  0  8G30G25G29G02G10G04G05G12
 112942042.721 8  88006872.05145  21492167.930                    21492176.477
 114575345.261 8  89279575.813 7  21802969.656                    21802979.879
 123775172.249 7  96448233.166 6  23553636.711                    23553645.820
 111315422.507 8  86739403.71446  21182600.055                    21182605.844
 117589404.481 7  91628220.26045  22376505.727                    22376513.809
 127397517.518 6  99270931.31543  24242929.367                    24242938.137
 106621106.053 8  83081467.843 8  20289311.453                    20289318.703
 109883541.041 8  85623622.248 7  20910145.148                    20910152.816
 11  8 15  2  4 30.0000000  0  8G30G25G29G02G10G04G05G12
 112930586.374 8  87997945.03245  21489987.977                    21489996.238
 114539765.830 8  89251851.593 7  21796198.570                    21796209.250
 123692043.474 7  96383457.544 6  23537817.852                    23537826.688
 111347995.564 8  86764785.32046  21188798.688                    21188803.988
 117676962.773 7  91696447.48244  22393167.398                    22393175.590
 127477730.951 6  99333435.30143  24258194.086                    24258201.988
 106610660.039 8  83073328.115 8  20287323.484                    20287330.961
 109914793.752 8  85647975.013 7  20916092.344                    20916099.473
 11  8 15  2  5  0.0000000  0  8G30G25G29G02G10G04G05G12
 112919742.240 7  87989495.05045  21487924.352                    21487932.555
 114504740.342 8  89224559.030 7  21789533.492                    21789543.992
 123608899.906 7  96318670.377 6  23521995.922                    23522004.836
 111380686.712 8  86790258.95046  21195019.609                    21195025.238
 117764868.901 7  91764945.75144  22409895.039                    22409903.195
 127557889.646 6  99395896.62242  24273446.352                    24273456.035
 106600791.274 8  83065638.199 8  20285445.570                    20285453.000
 109946598.132 8  85672757.641 7  20922144.641                    20922151.352
 11  8 15  2  5 30.0000000  0  8G30G25G29G02G10G04G05G12
 112909510.816 7  87981522.52745  21485977.016                    21485985.813
 114470270.433 8  89197699.374 7  21782974.109                    21782984.852
 123525742.864 7  96253872.707 6  23506171.594                    23506180.848
 111413496.275 8  86815824.84546  21201262.750                    21201268.320
 117853120.254 7  91833713.01844  22426689.109                    22426697.285
 127637993.616 6  99458315.30642  24288690.680                    24288699.004
 106591499.915 8  83058398.201 8  20283677.469                    20283684.445
 109978953.283 8  85697969.446 7  20928301.070                    20928308.707
 11  8 15  2  6  0.0000000  0  9G30G25G29G26G02G10G04G05G12
 112899891.998 8  87974027.34545  21484147.047                    21484155.594
 114436357.043 8  89171273.356 7  21776520.703                    21776531.410
 123442573.504 7  96189065.453 6  23490344.586                    23490353.707
 130454690.90716 101653072.87153  24824709.039                    24824718.594
 111446423.444 8  86841482.38246  21207528.875                    21207534.488
 117941713.842 7  91902746.97944  22443548.109                    22443555.727
 127718042.345 6  99520690.93042  24303923.367                    24303931.961
 106582785.714 8  83051607.938 8  20282018.914                    20282026.383
 110011858.179 8  85723609.618 7  20934562.852                    20934570.430
 11  8 15  2  6 30.0000000  0  9G30G25G29G26G02G10G04G05G12
 112890886.032 8  87967009.71445  21482433.539                    21482441.332
 114403001.610 8  89145282.119 7  21770173.422                    21770183.727
 123359393.499 7  96124249.904 6  23474516.250                    23474525.348
 130361778.142 6 101580673.41743  24807028.219                    24807038.035
 111479467.494 8  86867230.99846  21213817.258                    21213822.898
 118030647.164 7  91972045.67944  22460471.469                    22460478.887
 127798036.011 6  99583023.67243  24319144.984                    24319153.680
 106574648.727 8  83045267.460 8  20280470.484                    20280478.129
 110045311.630 8  85749677.244 7  20940929.266                    20940936.367
 11  8 15  2  7  0.0000000  0  9G30G25G29G26G02G10G04G05G12
 112882492.932 7  87960469.62945  21480836.039                    21480844.273
 114370205.204 8  89119726.486 7  21763932.563                    21763942.941
 123276204.124 7  96059427.037 6  23458686.078                    23458694.711
 130268735.870 6 101508172.95443  24789323.203                    24789333.277
 111512627.941 8  86893070.31446  21220127.273                    21220132.828
 118119917.234 7  92041606.75744  22477459.344                    22477466.875
 127877973.989 6  99645312.98143  24334356.922                    24334365.754
 106567088.532 8  83039376.428 8  20279032.078                    20279039.684
 110079311.672 8  85776170.781 7  20947398.859                    20947405.996
 11  8 15  2  7 30.0000000  0  9G30G25G29G26G02G10G04G05G12
 112874711.966 8  87954406.54645  21479355.156                    21479363.512
 114337968.342 8  89094606.875 7  21757797.859                    21757807.980
 123193006.408 7  95994597.667 6  23442853.617                    23442863.184
 130175566.346 6 101435573.37842  24771592.773                    24771603.164
 111545903.537 8  86918999.34846  21226459.180                    21226465.059
 118209520.733 7  92111427.66244  22494510.023                    22494518.004
 127957855.375 6  99707558.21542  24349558.680                    24349566.695
 106560104.753 8  83033934.546 8  20277702.844                    20277710.668
 110113856.690 8  85803088.968 7  20953972.617                    20953980.055
 11  8 15  2  8  0.0000000  0  9G30G25G29G26G02G10G04G05G12
 112867543.336 8  87948820.60145  21477991.227                    21477999.469
 114306292.170 8  89069924.137 7  21751770.320                    21751780.422
 123109801.081 7  95929762.403 6  23427019.883                    23427030.184
 130082272.749 6 101362877.13742  24753840.195                    24753849.945
 111579293.749 8  86945017.70346  21232813.141                    21232818.793
 118299454.737 7  92181506.09344  22511623.656                    22511631.711
 128037680.070 6  99769759.26243  24364747.891                    24364756.203
 106553696.950 8  83028941.476 8  20276483.516                    20276490.918
 110148945.281 8  85830430.733 7  20960649.797                    20960657.059
 11  8 15  2  8 30.0000000  0  9G30G25G29G26G02G10G04G05G12
 112860986.716 8  87943711.55945  21476743.500                    21476751.707
 114275177.591 8  89045679.036 7  21745849.258                    21745859.867
 123026589.609 7  95864922.346 6  23411185.727                    23411195.574
 129988857.958 5 101290086.42742  24736063.906                    24736073.063
 111612798.172 7  86971125.03446  21239188.961                    21239194.895
 118389716.365 7  92251839.82544  22528799.539                    22528808.137
 128117447.778 6  99831915.91043  24379926.742                    24379935.637
 106547864.828 8  83024396.993 8  20275373.828                    20275381.336
 110184576.107 7  85858195.008 7  20967430.125                    20967437.336
 11  8 15  2  9  0.0000000  0  9G30G25G29G26G02G10G04G05G12
 112855042.038 8  87939079.35545  21475612.008                    21475620.813
 114244625.651 8  89021872.351 7  21740035.516                    21740046.039
 122943373.362 7  95800078.527 6  23395350.648                    23395359.070
 129895324.544 5 101217203.35642  24718264.508                    24718274.645
 111646415.756 8  86997320.55946  21245586.375                    21245591.500
 118480302.647 7  92322426.51744  22546038.313                    22546046.023
 128197158.103 7  99894027.81943  24395095.727                    24395104.613
 106542607.970 8  83020300.765 8  20274373.195                    20274380.684
 110220747.722 8  85886380.685 7  20974313.336                    20974320.715
 11  8 15  2  9 30.0000000  0  9G30G25G29G26G02G10G04G05G12
 112849709.173 8  87934923.88145  21474597.172                    21474605.539
 114214637.323 8  88998504.831 7  21734329.000                    21734339.789
 122860153.651 7  95735232.047 6  23379514.109                    23379523.023
 129801675.742 6 101144230.34542  24700443.984                    24700454.207
 111680146.245 8  87023604.05446  21252005.000                    21252010.711
 118571210.844 7  92393264.07344  22563336.914                    22563345.289
 128276810.793 6  99956094.85843  24410253.172                    24410262.309
 106537926.202 8  83016652.654 8  20273482.305                    20273490.043
 110257458.454 8  85914986.442 7  20981299.164                    20981306.438
 11  8 15  2 10  0.0000000  0  9G30G25G29G26G02G10G04G05G12
 112844987.849 7  87931244.93945  21473698.680                    21473707.320
 114185213.498 8  88975577.196 7  21728729.570                    21728740.609
 122776931.877 6  95670383.961 6  23363676.836                    23363686.254
 129707914.220 6 101071169.49842  24682601.227                    24682610.961
 111713988.835 7  87049974.89946  21258444.977                    21258450.367
 118662438.033 7  92464350.17744  22580696.586                    22580705.344
 128356405.425 6 100018116.61043  24425399.281                    24425408.145
 106533818.925 8  83013452.212 8  20272700.766                    20272708.070
 110294707.424 8  85944011.608 7  20988387.570                    20988394.656
 11  8 15  2 10 30.0000000  0  9G30G25G29G26G02G10G04G05G12
 112840877.933 7  87928042.43445  21472916.633                    21472925.418
 114156355.215 8  88953090.252 7  21723238.219                    21723248.656
 122693709.363 7  95605535.298 6  23347840.633                    23347849.258
 129614043.043 6 100998023.23042  24664738.328                    24664748.090
 111747943.211 7  87076432.86246  21264906.008                    21264912.191
 118753981.475 6  92535682.71344  22598116.453                    22598125.266
 128435941.850 7 100080092.99343  24440534.836                    24440543.824
 106530285.750 8  83010699.107 8  20272028.836                    20272035.746
 110332492.616 8  85973454.621 7  20995577.898                    20995585.289
 11  8 15  2 11  0.0000000  0  9G30G25G29G26G02G10G04G05G12
 112837379.180 8  87925316.13945  21472250.977                    21472259.031
 114128063.344 8  88931044.656 7  21717854.492                    21717864.781
 122610487.285 7  95540686.972 6  23332003.672                    23332012.695
 129520065.182 6 100924793.84742  24646854.703                    24646864.953
 111782008.733 8  87102977.42646  21271388.445                    21271393.949
 118845837.920 7  92607259.13944  22615596.750                    22615605.270
 128515420.087 6 100142024.05743  24455659.031                    24455668.238
 106527326.579 8  83008393.279 8  20271465.633                    20271472.832
 110370812.786 8  86003314.483 7  21002869.547                    21002877.074
 11  8 15  2 11 30.0000000  0  9G30G25G29G26G02G10G04G05G12
 112834491.161 7  87923065.74845  21471701.055                    21471710.043
 114100338.730 8  88909441.082 7  21712578.766                    21712588.836
 122527267.096 6  95475840.117 6  23316167.156                    23316176.422
 129425983.589 6 100851483.63643  24628951.344                    24628961.664
 111816184.784 7  87129608.10846  21277891.984                    21277897.945
 118938004.828 7  92679077.49944  22633135.734                    22633143.508
 128594839.476 6 100203909.26143  24470772.359                    24470781.125
 106524940.791 7  83006534.244 8  20271011.477                    20271018.746
 110409665.889 8  86033589.629 7  21010263.328                    21010270.422
 11  8 15  2 12  0.0000000  0  9G30G25G29G26G02G10G04G05G12
 112832213.448 8  87921290.92045  21471267.758                    21471276.445
 114073182.008 8  88888280.016 7  21707410.742                    21707421.234
 122444050.290 7  95410995.895 6  23300331.563                    23300340.969
 129331801.100 6 100778094.77043  24611029.531                    24611039.680
 111850470.494 8  87156324.24446  21284416.664                    21284422.418
 119030478.896 7  92751135.20544  22650732.820                    22650740.582
 128674199.546 6 100265748.23743  24485874.453                    24485883.445
 106523127.619 8  83005121.404 8  20270666.563                    20270674.098
 110449050.160 8  86064278.671 7  21017757.742                    21017765.297
 11  8 15  2 12 30.0000000  0  9G30G25G29G26G02G10G04G05G12
 112830545.972 8  87919991.59545  21470950.914                    21470959.176
 114046594.204 8  88867562.276 7  21702351.219                    21702361.547
 122360838.037 7  95346155.236 6  23284497.031                    23284506.109
 129237520.762 6 100704629.64443  24593088.164                    24593097.844
 111884865.806 8  87183125.79246  21290961.477                    21290967.309
 119123257.564 7  92823430.26644  22668388.461                    22668395.902
 128753500.409 6 100327541.07543  24500964.516                    24500973.684
 106521887.004 8  83004154.712 8  20270430.273                    20270437.590
 110488964.601 8  86095380.818 7  21025353.125                    21025360.719
 11  8 15  2 13  0.0000000  0  9G30G25G29G26G02G10G04G05G12
 112829488.265 8  87919167.43145  21470749.203                    21470757.965
 114020576.129 8  88847288.470 7  21697400.148                    21697410.617
 122277631.634 7  95281319.106 6  23268663.602                    23268671.930
 129143145.522 6 100631090.53543  24575129.977                    24575139.031
 111919369.828 8  87210012.04446  21297527.406                    21297533.906
 119216337.999 7  92895960.48144  22686100.828                    22686108.504
 128832741.690 6 100389287.47443  24516043.242                    24516053.203
 106521218.132 8  83003633.535 8  20270303.125                    20270310.219
 110529407.476 8  86126894.743 7  21033049.133                    21033056.805
 11  8 15  2 13 30.0000000  0  9G30G25G29G26G02G10G04G05G12
 112829039.852 8  87918818.02446  21470664.039                    21470672.605
 113995128.438 8  88827459.125 7  21692557.680                    21692568.297
 122194432.526 7  95216488.687 6  23252830.609                    23252839.973
 129048678.211 6 100557479.61343  24557152.586                    24557162.512
 111953982.083 8  87236982.63046  21304113.836                    21304119.973
 119309717.285 6  92968723.55744  22703870.469                    22703878.246
 128911923.264 6 100450987.34042  24531111.414                    24531120.703
 106521120.466 8  83003557.453 8  20270284.469                    20270291.508
 110570376.977 8  86158819.029 7  21040845.617                    21040853.059
 11  8 15  2 14  0.0000000  0  9G30G25G29G26G02G10G04G05G12
 112829200.315 8  87918943.08845  21470694.648                    21470703.012
 113970251.896 8  88808074.823 7  21687823.359                    21687834.105
 122111242.204 7  95151665.126 6  23237000.781                    23237010.027
 128954122.014 6 100483799.49943  24539159.195                    24539169.016
 111988702.084 8  87264037.17846  21310721.195                    21310726.402
 119403392.409 6  93041717.15344  22721696.313                    22721704.719
 128991044.776 5 100512640.43042  24546168.008                    24546176.883
 106521593.448 8  83003926.033 8  20270374.422                    20270381.863
 110611871.650 8  86191152.540 7  21048741.883                    21048749.316
 11  8 15  2 14 30.0000000  0  9G30G25G29G26G02G10G04G05G12
 112829969.241 8  87919542.25345  21470840.656                    21470849.547
 113945947.265 8  88789136.176 7  21683198.641                    21683209.453
 122028061.928 7  95086849.375 6  23221171.688                    23221181.043
 128859480.072 6 100410052.58643  24521149.914                    24521159.277
 112023529.204 8  87291175.20146  21317348.195                    21317353.980
 119497360.491 6  93114939.00944  22739577.617                    22739585.941
 129070105.691 6 100574246.28342  24561212.781                    24561221.414
 106522636.490 8  83004738.813 8  20270573.109                    20270580.238
 110653889.421 8  86223893.655 7  21056737.586                    21056745.203
 11  8 15  2 15  0.0000000  0  9G30G25G29G26G02G10G04G05G12
 112831345.970 8  87920615.04245  21471102.891                    21471110.949
 113922215.032 8  88770643.558 7  21678682.633                    21678693.191
 121944893.206 7  95022042.646 6  23205344.672                    23205354.320
 128764755.221 6 100336241.12243  24503124.070                    24503133.742
 112058462.733 7  87318396.13246  21323996.375                    21324001.527
 119591618.453 6  93188386.73544  22757514.406                    22757523.176
 129149106.054 6 100635804.90442  24576245.961                    24576254.668
 106524248.878 8  83005995.239 8  20270879.484                    20270886.973
 110696428.555 8  86257041.021 7  21064832.227                    21064839.738
 11  8 15  2 15 30.0000000  0  9G30G25G29G26G02G10G04G05G12
 112833330.015 7  87922161.06446  21471480.367                    21471488.910
 113899055.962 8  88752597.543 7  21674275.672                    21674286.355
 121861737.355 7  94957245.943 6  23189521.250                    23189529.836
 128669950.491 6 100262367.40843  24485083.594                    24485092.801
 112093502.265 7  87345699.66346  21330663.633                    21330669.805
 119686163.240 6  93262057.97544  22775505.094                    22775513.824
 129228045.636 6 100697316.19142  24591267.352                    24591277.223
 106526430.060 7  83007694.885 8  20271294.563                    20271302.145
 110739487.450 8  86290593.407 7  21073026.172                    21073033.051
 11  8 15  2 16  0.0000000  0  9G30G25G29G26G02G10G04G05G12
 112835921.061 7  87924180.07546  21471973.531                    21471981.949
 113876470.926 8  88734998.837 7  21669977.563                    21669988.375
 121778595.809 6  94892460.378 6  23173699.297                    23173708.727
 128575069.159 6 100188433.99143  24467027.992                    24467036.926
 112128648.003 7  87373085.95246  21337352.383                    21337357.578
 119780992.386 6  93335950.77544  22793551.102                    22793559.910
 129306924.502 6 100758780.19743  24606278.242                    24606287.301
 106529179.443 8  83009837.280 8  20271818.102                    20271825.332
 110783064.621 8  86324549.637 7  21081318.555                    21081325.910
 11  8 15  2 16 30.0000000  0  9G30G25G29G26G02G10G04G05G12
 112839118.340 8  87926671.46845  21472581.805                    21472590.020
 113854460.306 8  88717847.730 7  21665789.234                    21665799.477
 121695470.105 6  94827687.162 6  23157880.734                    23157889.914
 128480114.120 6 100114443.15643  24448958.125                    24448968.164
 112163898.606 7  87400553.95046  21344059.883                    21344065.355
 119876102.729 6  93410062.71944  22811649.719                    22811658.551
 129385742.110 6 100820196.44243  24621276.398                    24621285.535
 106532496.316 8  83012421.873 8  20272449.320                    20272456.355
 110827157.982 8  86358908.095 7  21089709.438                    21089716.789
 11  8 15  2 17  0.0000000  0  9G30G25G29G26G02G10G04G05G12
 112842921.327 7  87929634.84646  21473305.672                    21473314.121
 113833024.756 8  88701144.735 7  21661710.047                    21661720.805
 121612361.923 6  94762927.576 6  23142066.039                    23142075.648
 128385088.315 6 100040397.19543  24430874.891                    24430885.340
 112199253.702 7  87428103.37346  21350787.531                    21350793.680
 119971491.535 6  93484391.64544  22829802.039                    22829810.207
 129464498.407 6 100881564.91542  24636263.313                    24636272.469
 106536379.852 8  83015448.022 8  20273187.672                    20273195.539
 110871765.571 8  86393667.239 7  21098198.055                    21098205.813
 11  8 15  2 17 30.0000000  0  9G30G25G29G26G02G10G04G05G12
 112847329.247 8  87933069.57845  21474144.352                    21474152.652
 113812164.750 8  88684890.202 7  21657740.641                    21657751.137
 121529272.450 7  94698182.580 6  23126255.219                    23126264.309
 128289994.741 6  99966298.40943  24412778.898                    24412789.723
 112234713.043 7  87455734.02346  21357535.258                    21357540.734
 120067155.921 7  93558935.29844  22848006.906                    22848014.746
 129543193.049 6 100942885.35943  24651238.117                    24651247.426
 106540829.163 8  83018915.032 8  20274034.867                    20274042.086
 110916885.416 8  86428825.571 7  21106784.086                    21106791.609
 11  8 15  2 18  0.0000000  0  9G30G25G29G26G02G10G04G05G12
 112852341.781 8  87936975.45646  21475098.047                    21475107.035
 113791881.089 8  88669084.767 7  21653880.688                    21653891.559
 121446203.280 6  94633453.412 6  23110446.750                    23110456.496
 128194836.995 6  99892149.61542  24394671.203                    24394681.402
 112270276.211 8  87483445.57546  21364302.672                    21364308.320
 120163093.317 7  93633691.71244  22866262.531                    22866270.914
 129621826.114 6 101004157.76043  24666202.148                    24666210.727
 106545843.943 8  83022822.669 8  20274988.758                    20274996.164
 110962516.318 8  86464382.121 7  21115467.227                    21115474.938
 11  8 15  2 18 30.0000000  0  8G30G25G29G26G02G10G05G12
 112857958.114 8  87941351.83846  21476167.289                    21476174.773
 113772174.204 8  88653728.774 7  21650130.820                    21650141.207
 121363156.032 7  94568741.347 6  23094643.852                    23094652.863
 128099617.889 6  99817953.00042  24376551.555                    24376561.371
 112305942.414 8  87511237.42746  21371090.242                    21371095.555
 120259300.530 7  93708658.36644  22884570.375                    22884578.105
 106551423.271 8  83027170.218 8  20276050.609                    20276057.785
 111008656.142 8  86500335.221 7  21124247.031                    21124253.996
 11  8 15  2 19  0.0000000  0  8G30G25G29G26G02G10G05G12
 112864177.431 8  87946198.06246  21477350.203                    21477358.453
 113753044.496 8  88638822.528 7  21646490.078                    21646500.977
 121280131.968 7  94504047.335 6  23078844.711                    23078853.844
 128004340.475 6  99743710.96742  24358421.352                    24358430.648
 112341711.403 8  87539109.36046  21377896.438                    21377902.082
 120355774.882 7  93783833.17744  22902928.328                    22902936.887
 106557566.181 8  83031956.921 8  20277219.930                    20277226.438
 111055303.035 8  86536683.449 7  21133123.789                    21133131.313
 11  8 15  2 19 30.0000000  0  8G30G25G29G26G02G10G05G12
 112870998.888 8  87951513.48845  21478648.828                    21478656.813
 113734492.326 8  88624366.311 7  21642959.891                    21642970.418
 121197132.384 7  94439372.412 6  23063050.563                    23063059.738
 127909007.981 6  99669425.97343  24340280.766                    24340289.512
 112377582.670 8  87567060.99446  21384722.391                    21384728.051
 120452513.116 7  93859213.62844  22921337.430                    22921345.047
 106564271.419 8  83037181.795 8  20278495.250                    20278502.805
 111102454.744 8  86573425.041 7  21142096.609                    21142104.035
 11  8 15  2 20  0.0000000  0  8G30G25G29G26G02G10G05G12
 112878421.787 8  87957297.56845  21480061.148                    21480069.512
 113716518.188 8  88610360.496 7  21639539.453                    21639549.758
 121114159.128 7  94374718.018 6  23047260.906                    23047270.305
 127813623.474 7  99595100.43943  24322128.672                    24322137.914
 112413555.676 7  87595091.90646  21391567.805                    21391573.594
 120549512.392 7  93934797.45944  22939795.320                    22939803.527
 106571538.767 8  83042844.675 8  20279878.594                    20279885.934
 111150109.451 8  86610558.586 7  21151164.977                    21151172.262
 11  8 15  2 20 30.0000000  0  8G30G25G29G26G02G10G05G12
 112886445.209 7  87963549.58045  21481587.984                    21481596.039
 113699122.444 8  88596805.396 7  21636229.250                    21636240.051
 121031213.451 7  94310085.078 6  23031477.227                    23031485.469
 127718190.054 7  99520736.80743  24303968.992                    24303977.781
 112449630.000 7  87623201.76245  21398432.719                    21398438.484
 120646769.970 7  94010582.56644  22958303.133                    22958310.801
 106579366.970 8  83048944.591 8  20281367.977                    20281375.203
 111198265.318 8  86648082.645 7  21160328.797                    21160336.348
 11  8 15  2 21  0.0000000  0  8G30G25G29G26G02G10G05G12
 112895068.525 8  87970269.05446  21483228.695                    21483237.145
 113682305.569 8  88583701.359 7  21633028.883                    21633039.184
 120948297.293 7  94245475.174 6  23015698.586                    23015707.980
 127622710.998 7  99446337.70843  24285799.109                    24285808.973
 112485805.060 7  87651390.12346  21405316.438                    21405322.465
 120744282.706 6  94086566.51444  22976858.289                    22976867.043
 106587755.305 8  83055480.981 8  20282964.180                    20282971.781
 111246920.594 8  86685995.846 7  21169587.328                    21169595.113
 11  8 15  2 21 30.0000000  0  8G30G25G29G26G02G10G05G12
 112904290.943 8  87977455.34445  21484983.891                    21484992.227
 113666067.995 8  88571048.711 7  21629939.305                    21629949.305
 120865411.940 7  94180889.258 6  22999926.484                    22999934.672
 127527189.217 6  99371905.28643  24267621.828                    24267631.871
 112522080.847 7  87679656.97746  21412219.734                    21412225.441
 120842047.947 6  94162747.20044  22995463.336                    22995470.793
 106596702.443 8  83062452.800 8  20284666.898                    20284674.309
 111296073.169 8  86724296.560 7  21178940.539                    21178948.461
 11  8 15  2 22  0.0000000  0  8G30G25G29G26G02G10G05G12
 112914111.818 8  87985107.98245  21486852.547                    21486861.047
 113650410.301 8  88558847.927 7  21626959.430                    21626970.016
 120782559.179 7  94116328.734 6  22984159.477                    22984169.070
 127431628.311 7  99297442.34843  24249438.422                    24249446.984
 112558457.002 8  87708002.04146  21419141.844                    21419147.336
 120940063.025 6  94239122.56144  23014115.070                    23014122.691
 106606208.420 8  83069860.070 8  20286476.078                    20286483.199
 111345721.030 8  86762983.214 7  21188389.016                    21188395.898
 11  8 15  2 22 30.0000000  0  8G30G25G29G26G02G10G05G12
 112924530.146 8  87993226.16146  21488835.664                    21488843.609
 113635332.776 8  88547099.225 7  21624090.508                    21624101.063
 120699740.705 7  94051794.941 7  22968399.602                    22968408.695
 127336031.539 6  99222951.47643  24231245.750                    24231255.172
 112594933.242 7  87736425.08745  21426083.102                    21426088.270
 121038325.271 7  94315690.51744  23032813.680                    23032821.855
 106616272.269 8  83077702.041 8  20288390.672                    20288398.113
 111395862.380 8  86802054.390 7  21197930.688                    21197937.348
 11  8 15  2 23  0.0000000  0  8G30G25G29G26G02G10G05G12
 112935544.379 8  88001808.68745  21490931.125                    21490939.469
 113620835.079 8  88535802.320 7  21621331.648                    21621341.977
 120616957.502 7  93987288.656 6  22952647.008                    22952655.672
 127240401.420 6  99148434.61643  24213048.055                    24213057.176
 112631508.185 8  87764925.05946  21433042.898                    21433048.863
 121136831.275 7  94392448.44044  23051558.805                    23051567.137
 106626891.958 8  83085977.142 8  20290411.539                    20290418.922
 111446494.386 8  86841507.904 7  21207565.203                    21207572.496
 11  8 15  2 23 30.0000000  0  8G30G25G29G26G02G10G05G12
 112947153.850 8  88010855.02945  21493140.484                    21493148.906
 113606917.737 8  88524957.650 7  21618683.094                    21618693.867
 120534211.349 7  93922811.205 6  22936900.297                    22936909.414
 127144741.420 6  99073894.42143  24194844.227                    24194853.930
 112668181.913 8  87793502.00046  21440021.422                    21440027.016
 121235578.253 6  94469394.09744  23070349.469                    23070358.309
 106638066.681 8  83094684.736 8  20292538.383                    20292545.676
 111497615.243 8  86881342.341 7  21217293.156                    21217301.070
 11  8 15  2 24  0.0000000  0  8G30G25G29G26G02G10G05G12
 112959357.869 8  88020364.65245  21495462.883                    21495470.840
 113593581.230 8  88514565.586 7  21616145.492                    21616155.762
 120451503.954 7  93858363.972 6  22921161.680                    22921170.289
 127049055.033 6  98999333.70743  24176635.852                    24176645.125
 112704954.717 8  87822156.15446  21447018.898                    21447025.324
 121334563.462 6  94546525.41844  23089186.211                    23089194.719
 106649795.967 8  83103824.453 8  20294770.070                    20294777.230
 111549223.308 8  86921556.417 7  21227113.688                    21227121.598
 11  8 15  2 24 30.0000000  0  8G30G25G29G26G02G10G05G12
 112972155.022 8  88030336.45945  21497897.891                    21497905.969
 113580825.391 8  88504625.980 7  21613718.125                    21613728.410
 120368836.935 7  93793948.199 6  22905430.852                    22905439.426
 126953345.214 6  98924754.71043  24158422.703                    24158432.023
 112741825.252 8  87850886.45946  21454035.781                    21454041.684
 121433784.034 7  94623840.11744  23108067.156                    23108075.148
 106662078.084 8  83113394.955 8  20297107.180                    20297114.719
 111601316.173 8  86962148.261 7  21237026.984                    21237034.527
 11  8 15  2 25  0.0000000  0  8G30G25G29G26G02G10G05G12
 112985544.414 7  88040769.75845  21500446.094                    21500453.895
 113568650.626 8  88495139.166 7  21611401.055                    21611411.523
 120286211.838 7  93729565.076 6  22889707.445                    22889716.086
 126857615.015 6  98850159.79443  24140205.508                    24140215.094
 112778793.388 8  87879692.81146  21461070.656                    21461076.051
 121533237.153 6  94701336.03644  23126992.367                    23127000.492
 106674912.321 8  83123395.672 8  20299549.594                    20299557.031
 111653891.591 8  87003116.124 7  21247031.258                    21247039.105
 11  8 15  2 25 30.0000000  0  8G30G25G29G26G02G10G05G12
 112999524.792 7  88051663.56345  21503106.297                    21503114.410
 113557056.750 8  88486104.997 7  21609195.039                    21609205.090
 120203630.184 7  93665215.797 6  22873992.477                    22874001.223
 126761867.886 6  98775551.73943  24121985.500                    24121994.633
 112815858.770 8  87908574.94145  21468123.859                    21468129.695
 121632919.770 6  94779010.76043  23145961.539                    23145969.523
 106688297.190 8  83133825.455 8  20302096.828                    20302104.160
 111706947.251 8  87044458.192 7  21257127.609                    21257135.129
 11  8 15  2 26  0.0000000  0  8G30G25G29G26G02G10G05G12
 113014095.239 8  88063017.15645  21505878.938                    21505887.305
 113546044.211 8  88477523.802 7  21607099.172                    21607109.848
 120121093.609 7  93600901.656 6  22858286.648                    22858295.359
 126666107.071 6  98700932.98043  24103762.320                    24103772.016
 112853021.059 8  87937532.57846  21475195.273                    21475200.871
 121732829.232 6  94856862.26143  23164972.844                    23164981.754
 106702231.620 8  83144683.465 8  20304748.438                    20304755.469
 111760481.428 8  87086173.138 7  21267314.969                    21267322.586
 11  8 15  2 26 30.0000000  0  8G30G25G29G26G02G10G05G12
 113029254.608 8  88074829.66645  21508763.414                    21508771.906
 113535613.044 8  88469395.641 7  21605114.031                    21605124.582
 120038603.912 7  93536624.036 6  22842589.000                    22842597.910
 126570335.934 6  98626306.20643  24085537.969                    24085547.277
 112890280.069 8  87966565.58646  21482285.656                    21482290.762
 121832962.549 6  94934888.20043  23184028.258                    23184036.559
 106716714.993 8  83155969.226 8  20307504.266                    20307511.727
 111814491.651 8  87128259.033 7  21277592.508                    21277600.109
 11  8 15  2 27  0.0000000  0  8G30G25G29G26G02G10G05G12
 113045001.978 8  88087100.34645  21511760.445                    21511768.645
 113525763.511 8  88461720.700 7  21603240.141                    21603250.313
 119956162.719 7  93472384.219 6  22826900.563                    22826909.656
 126474557.849 6  98551673.99743  24067312.344                    24067321.414
 112927635.668 8  87995673.85246  21489394.078                    21489399.895
 121933317.086 7  95013086.51243  23203124.852                    23203133.508
 106731745.967 8  83167681.693 8  20310364.852                    20310371.672
 111868976.362 8  87170714.657 7  21287960.719                    21287968.352
 11  8 15  2 27 30.0000000  0  8G30G25G29G26G02G10G05G12
 113061335.973 8  88099828.14345  21514868.414                    21514876.859
 113516495.553 8  88454498.926 7  21601476.406                    21601487.109
 119873771.623 7  93408183.442 6  22811222.469                    22811231.043
 126378776.015 6  98477038.89343  24049085.742                    24049094.773
 112965087.118 8  88024856.81746  21496520.852                    21496526.383
 122033890.020 7  95091455.00243  23222263.461                    23222271.707
 106747323.380 8  83179819.962 8  20313328.813                    20313336.266
 111923933.025 8  87213538.031 7  21298418.969                    21298426.309
 11  8 15  2 28  0.0000000  0  8G30G25G29G26G02G10G05G12
 113078255.419 7  88113012.12845  21518088.055                    21518096.094
 113507809.065 8  88447730.256 7  21599823.086                    21599833.629
 119791432.454 7  93344023.111 6  22795554.055                    22795562.477
 126282993.410 6  98402403.11443  24030858.883                    24030867.754
 113002633.987 8  88054114.11746  21503665.859                    21503671.480
 122134678.326 7  95169991.33344  23241443.156                    23241451.461
 106763445.996 8  83192383.053 8  20316396.961                    20316403.910
 111979358.927 8  87256727.044 7  21308965.844                    21308973.336
 11  8 15  2 28 30.0000000  0  8G30G25G29G26G02G10G05G12
 113095758.762 7  88126651.11645  21521418.820                    21521427.262
 113499703.845 8  88441414.502 7  21598281.195                    21598291.492
 119709146.569 7  93279904.298 6  22779895.406                    22779903.977
 126187213.398 6  98327769.36243  24012632.469                    24012641.563
 113040275.926 8  88083445.52045  21510828.719                    21510834.164
 122235679.052 7  95248693.15444  23260662.117                    23260671.848
 106780111.907 8  83205369.487 8  20319568.109                    20319575.496
 112035251.929 7  87300280.042 7  21319601.930                    21319609.574
 11  8 15  2 29  0.0000000  0  8G30G25G29G26G02G10G05G12
 113113844.774 8  88140744.11545  21524860.531                    21524868.465
 113492179.857 8  88435551.671 7  21596849.258                    21596860.188
 119626915.694 7  93215828.368 6  22764247.625                    22764255.668
 126091439.376 6  98253140.30243  23994407.313                    23994415.668
 113078012.470 8  88112850.61445  21518009.852                    21518015.387
 122336889.220 7  95327558.17444  23279922.313                    23279931.652
 106797319.781 8  83218778.248 8  20322842.898                    20322849.746
 112091609.773 8  87344195.233 7  21330326.156                    21330333.660
 11  8 15  2 29 30.0000000  0  8G30G25G29G26G02G10G05G12
 113132512.535 8  88155290.43345  21528412.789                    21528421.219
 113485237.432 8  88430141.995 7  21595528.102                    21595538.656
 119544741.697 7  93151796.735 6  22748610.008                    22748617.816
 125995674.896 6  98178518.68043  23976184.086                    23976192.949
 113115843.727 8  88142329.51545  21525209.109                    21525214.281
 122438306.760 7  95406584.79644  23299221.727                    23299230.445
 106815069.347 8  83232609.098 8  20326220.195                    20326228.086
 112148430.691 8  87388471.271 7  21341139.281                    21341146.277
 11  8 15  2 30  0.0000000  0  8G30G25G29G26G02G10G05G12
 113151760.330 7  88170288.73745  21532075.352                    21532083.918
 113478876.133 8  88425185.154 7  21594317.609                    21594328.406
 119462626.403 7  93087810.849 7  22732983.875                    22732992.793
 125899922.856 6  98103906.76643  23957962.922                    23957971.949
 113153769.118 8  88171881.77745  21532425.898                    21532431.102
 122539928.299 7  95485770.35644  23318558.523                    23318568.738
 106833358.921 8  83246860.732 8  20329700.867                    20329708.313
 112205711.821 8  87433105.924 7  21352039.516                    21352046.848
 11  8 15  2 30 30.0000000  0  8G30G25G29G26G02G10G05G12
 113171587.197 8  88185738.26045  21535848.664                    21535856.426
 113473096.025 8  88420681.188 7  21593217.859                    21593228.496
 119380571.359 7  93023871.957 6  22717369.172                    22717377.879
 125804186.877 6  98029307.35343  23939744.734                    23939753.387
 113191788.697 8  88201507.42645  21539660.445                    21539666.684
 122641751.413 7  95565113.01544  23337936.258                    23337944.305
 106852187.134 8  83261532.086 8  20333283.406                    20333290.578
 112263451.257 7  87478097.695 7  21363026.953                    21363034.660
 11  8 15  2 31  0.0000000  0  8G30G25G29G26G02G10G05G12
 113191991.520 8  88201637.74945  21539731.234                    21539740.094
 113467896.830 8  88416629.884 7  21592228.469                    21592238.465
 119298578.098 7  92959981.177 7  22701766.922                    22701774.852
 125708470.187 6  97954723.03843  23921529.977                    23921539.559
 113229901.918 8  88231206.04546  21546913.328                    21546919.406
 122743772.909 7  95644610.24143  23357350.523                    23357358.371
 106871552.638 8  83276622.105 8  20336968.773                    20336976.285
 112321646.139 7  87523444.350 7  21374100.930                    21374108.457
 11  8 15  2 31 30.0000000  0  8G30G25G29G26G02G10G05G12
 113212972.057 8  88217986.23845  21543723.797                    21543731.801
 113463278.521 8  88413031.224 7  21591349.836                    21591360.051
 119216648.628 7  92896140.108 7  22686175.961                    22686184.902
 125612776.219 6  97880156.42343  23903319.914                    23903329.297
 113268108.501 8  88260977.41946  21554183.961                    21554189.602
 122845990.056 7  95724259.93143  23376802.094                    23376809.867
 106891454.145 8  83292129.793 8  20340755.938                    20340763.582
 112380294.443 7  87569144.330 7  21385261.313                    21385268.676
 11  8 15  2 32  0.0000000  0  8G30G25G29G26G02G10G05G12
 113234527.648 8  88234782.82845  21547825.805                    21547834.309
 113459241.189 8  88409885.265 7  21590581.211                    21590591.496
 119134784.858 7  92832350.258 7  22670596.938                    22670605.738
 125517108.500 6  97805610.23743  23885114.891                    23885124.508
 113306408.646 8  88290821.69046  21561471.953                    21561477.520
 122948400.488 7  95804060.27643  23396289.609                    23396298.387
 106911890.607 8  83308054.323 8  20344645.305                    20344652.199
 112439394.149 7  87615196.047 7  21396507.734                    21396515.074
 11  8 15  2 32 30.0000000  0  8G30G25G29G26G02G10G05G12
 113256656.225 8  88252025.89745  21552036.758                    21552044.723
 113455783.990 8  88407191.364 7  21589923.461                    21589933.293
 119052988.316 7  92768612.771 6  22655032.508                    22655040.230
 125421470.192 6  97731087.02043  23866914.664                    23866925.086
 113344801.298 8  88320738.04445  21568778.016                    21568783.512
 123051000.843 7  95884008.57944  23415814.188                    23415821.980
 106932859.711 8  83324393.904 8  20348635.109                    20348642.473
 112498942.478 8  87661597.346 7  21407839.633                    21407846.992
 11  8 15  2 33  0.0000000  0  8G30G25G29G26G02G10G05G12
 113279356.473 8  88269714.41745  21556356.328                    21556364.566
 113452906.819 8  88404949.424 7  21589376.047                    21589386.000
 118971260.634 7  92704928.954 7  22639479.359                    22639488.648
 125325864.574 6  97656589.22143  23848722.789                    23848731.816
 113383286.275 8  88350726.34346  21576101.367                    21576107.223
 123153788.479 7  95964102.83743  23435373.172                    23435381.863
 106954360.340 8  83341147.657 8  20352726.711                    20352733.605
 112558936.529 7  87708345.956 7  21419255.773                    21419263.457
 11  8 15  2 33 30.0000000  0  8G30G25G29G26G02G10G05G12
 113302627.326 8  88287847.56545  21560784.555                    21560792.910
 113450609.775 8  88403159.547 7  21588938.898                    21588949.309
 118889603.872 7  92641300.423 7  22623941.352                    22623949.305
 125230295.171 6  97582119.64543  23830536.758                    23830545.375
 113421864.008 8  88380786.91245  21583442.813                    21583447.938
 123256761.173 7  96044341.31243  23454967.836                    23454977.094
 106976391.586 8  83358314.878 8  20356918.961                    20356926.531
 112619374.728 7  87755440.661 7  21430756.883                    21430764.336
 11  8 15  2 34  0.0000000  0  8G30G25G29G26G02G10G05G12
 113326466.959 8  88306423.93045  21565320.867                    21565329.172
 113448892.375 8  88401821.338 7  21588611.945                    21588621.977
 118808019.594 7  92577728.319 7  22608415.352                    22608424.508
 125134765.474 6  97507680.99043  23812357.500                    23812366.422
 113460533.776 8  88410919.20046  21590801.313                    21590806.887
 123359915.429 7  96124721.24643  23474597.938                    23474606.898
 106998951.581 8  83375894.110 8  20361212.242                    20361219.102
 112680254.437 7  87802879.395 7  21442341.688                    21442349.258
 11  8 15  2 34 30.0000000  0  8G30G25G29G26G02G10G05G12
 113350873.987 8  88325442.40745  21569965.594                    21569973.500
 113447754.279 8  88400934.541 7  21588394.992                    21588405.344
 118726509.688 7  92514214.222 7  22592904.938                    22592913.250
 125039278.894 6  97433275.93443  23794187.336                    23794195.504
 113499295.682 8  88441123.27745  21598176.945                    21598182.883
 123463248.919 7  96205240.84243  23494261.938                    23494270.398
 107022039.082 8  83393884.382 8  20365605.461                    20365612.465
 112741573.294 7  87850660.319 7  21454010.578                    21454017.934
 11  8 15  2 35  0.0000000  0  8G30G25G29G26G02G10G05G12
 113375846.669 8  88344901.65145  21574717.484                    21574725.828
 113447195.109 8  88400498.850 7  21588288.977                    21588299.215
 118645075.945 7  92450759.434 7  22577408.281                    22577416.613
 124943838.667 7  97358907.00643  23776025.563                    23776034.410
 113538149.160 8  88471398.72046  21605570.641                    21605576.820
 123566758.920 7  96285898.00343  23513958.977                    23513967.590
 107045652.440 8  83412284.419 8  20370099.141                    20370105.887
 112803328.677 7  87898781.406 7  21465762.227                    21465769.969
 11  8 15  2 35 30.0000000  0  8G30G25G29G26G02G10G05G12
 113401383.502 8  88364800.47545  21579577.047                    21579585.180
 113447214.431 8  88400513.939 7  21588292.633                    21588302.348
 118563720.257 7  92387365.476 6  22561926.766                    22561934.770
 124848448.161 7  97284576.82143  23757872.930                    23757881.871
 113577093.938 8  88501745.29745  21612981.625                    21612987.672
 123670442.507 7  96366690.38943  23533689.352                    23533697.629
 107069790.239 8  83431093.107 8  20374692.016                    20374699.293
 112865518.066 7  87947240.675 7  21477596.563                    21477603.828
 11  8 15  2 36  0.0000000  0  8G30G25G29G26G02G10G05G12
 113427482.542 8  88385137.40145  21584543.859                    21584552.234
 113447811.674 8  88400979.339 7  21588406.219                    21588416.445
 118482444.316 7  92324033.636 7  22546460.773                    22546469.488
 124753110.914 7  97210288.12443  23739730.813                    23739739.887
 113616129.703 8  88532162.78046  21620410.078                    21620415.824
 123774296.715 6  96447615.75143  23553451.898                    23553460.855
 107094450.502 8  83450308.903 8  20379384.875                    20379392.152
 112928138.797 7  87996036.049 7  21489512.477                    21489520.164
 11  8 15  2 36 30.0000000  0  8G30G25G29G26G02G10G05G12
 113454142.660 7  88405911.52945  21589616.898                    21589625.340
 113448986.745 8  88401895.015 7  21588629.352                    21588640.031
 118401250.119 7  92260765.512 6  22531009.688                    22531018.164
 124657830.492 7  97136043.70843  23721599.813                    23721608.684
 113655256.560 8  88562651.23445  21627855.742                    21627861.547
 123878319.249 7  96528672.25643  23573247.273                    23573255.316
 107119632.315 8  83469931.104 8  20384176.508                    20384184.031
 112991188.892 7  88045165.987 7  21501510.773                    21501518.277
 11  8 15  2 37  0.0000000  0  9G30G25G29G15G26G02G10G05G12
 113481361.880 7  88427121.30945  21594796.711                    21594804.801
 113450738.926 8  88403260.373 7  21588963.039                    21588973.336
 118320139.368 7  92197562.396 7  22515575.063                    22515583.543
 129412630.15916 100841066.33315  24626409.445                    24626417.543
 124562610.160 6  97061846.11343  23703479.797                    23703488.570
 113694474.155 8  88593210.39445  21635318.656                    21635324.082
 123982507.014 7  96609857.53743  23593073.648                    23593081.797
 107145333.600 7  83489958.092 8  20389067.641                    20389074.809
 113054665.724 7  88094628.458 7  21513590.109                    21513597.637
 11  8 15  2 37 30.0000000  0  9G30G25G29G15G26G02G10G05G12
 113509138.917 8  88448765.74445  21600082.484                    21600090.867
 113453068.149 8  88405075.380 7  21589406.320                    21589416.621
 118239114.171 7  92134425.950 7  22500155.984                    22500164.582
 129319004.376 6 100768111.262 5  24608592.789                    24608601.535
 124467453.745 6  96987698.34243  23685371.828                    23685380.113
 113733782.658 8  88623840.39945  21642798.773                    21642804.188
 124086857.528 7  96691169.64043  23612931.125                    23612938.758
 107171553.359 8  83510389.084 8  20394056.797                    20394064.141
 113118566.472 8  88144421.249 7  21525750.055                    21525757.613
 11  8 15  2 38  0.0000000  0  9G30G25G29G15G26G02G10G05G12
 113537472.410 7  88470843.78845  21605474.023                    21605482.684
 113455974.318 8  88407339.942 7  21589959.273                    21589969.223
 118158176.677 7  92071357.836 7  22484754.273                    22484762.617
 129225252.235 6 100695057.742 6  24590752.227                    24590761.840
 124372365.020 6  96913603.32143  23667276.945                    23667285.820
 113773182.305 8  88654541.41045  21650296.141                    21650301.852
 124191368.677 7  96772606.92743  23632817.914                    23632826.145
 107198290.480 7  83531223.214 8  20399145.047                    20399152.031
 113182889.143 8  88194542.818 7  21537990.398                    21537997.699
 11  8 15  2 38 30.0000000  0  9G30G25G29G15G26G02G10G05G12
 113566359.918 7  88493353.52445  21610971.227                    21610979.680
 113459456.117 8  88410053.048 7  21590621.930                    21590631.914
 118077328.099 7  92008359.010 7  22469369.500                    22469377.539
 129131375.379 6 100621907.065 6  24572887.148                    24572897.422
 124277346.830 6  96839563.23343  23649195.602                    23649204.688
 113812672.043 8  88685312.65245  21657810.977                    21657816.578
 124296037.000 7  96854166.70043  23652736.469                    23652744.047
 107225542.421 8  83552458.502 8  20404330.820                    20404337.766
 113247630.714 7  88244990.789 7  21550309.719                    21550317.305
 11  8 15  2 39  0.0000000  0  9G30G25G29G15G26G02G10G05G12
 113595799.732 8  88516293.63345  21616573.789                    21616582.031
 113463513.004 8  88413214.276 7  21591393.961                    21591404.109
 117996570.461 7  91945431.033 7  22454001.742                    22454009.973
 129037376.413 6 100548661.222 6  24555000.492                    24555009.977
 124182402.609 6  96765580.79043  23631128.469                    23631136.922
 113852251.927 8  88716154.11545  21665342.813                    21665348.414
 124400859.773 7  96935846.79743  23672683.180                    23672691.352
 107253307.386 8  83574093.550 8  20409614.180                    20409621.750
 113312788.829 8  88295763.348 7  21562709.336                    21562716.758
 11  8 15  2 39 30.0000000  0  9G30G25G29G15G26G02G10G05G12
 113625790.030 8  88539662.69245  21622280.406                    21622288.676
 113468144.412 8  88416823.173 7  21592274.773                    21592285.527
 117915905.703 7  91882575.447 7  22438651.734                    22438659.598
 128943257.811 6 100475322.160 6  24537090.695                    24537099.254
 124087535.874 6  96691658.68844  23613075.602                    23613084.707
 113891921.589 8  88747065.54545  21672891.703                    21672897.414
 124505834.260 7  97017645.14043  23692659.039                    23692667.383
 107281583.936 8  83596127.230 8  20414995.094                    20415001.871
 113378360.720 8  88346858.328 7  21575187.320                    21575194.949
 11  8 15  2 40  0.0000000  0  9G30G25G29G15G26G02G10G05G12
 113656328.851 7  88563459.16845  21628091.633                    21628100.141
 113473349.518 8  88420879.106 7  21593265.805                    21593275.953
 117835335.546 7  91819793.560 7  22423319.539                    22423327.750
 128849021.998 6 100401891.763 6  24519157.945                    24519166.777
 123992749.910 6  96617799.58743  23595037.531                    23595046.867
 113931680.658 8  88778046.64245  21680457.031                    21680463.340
 124610957.756 7  97099559.56543  23712663.672                    23712671.605
 107310370.199 8  83618558.092 8  20420473.141                    20420480.211
 113444343.654 8  88398273.599 7  21587743.234                    21587750.426
 11  8 15  2 40 30.0000000  0  9G30G25G29G15G26G02G10G05G12
 113687414.546 8  88587681.79945  21634006.930                    21634015.641
 113479127.897 8  88425381.738 7  21594365.070                    21594375.871
 117754861.935 7  91757086.891 7  22408005.945                    22408014.289
 128754671.860 6 100328372.307 6  24501203.758                    24501212.523
 123898048.497 7  96544006.29143  23577017.422                    23577026.277
 113971529.289 7  88809097.52345  21688040.133                    21688046.309
 124716227.655 6  97181588.08243  23732695.125                    23732704.129
 107339664.644 8  83641384.942 8  20426047.648                    20426054.523
 113510735.196 7  88450007.270 7  21600377.281                    21600384.609
 11  8 15  2 41  0.0000000  0  9G30G25G29G15G26G02G10G05G12
 113719045.196 7  88612329.05445  21640026.258                    21640034.801
 113485478.895 8  88430330.562 7  21595573.852                    21595583.953
 117674486.804 7  91694456.979 7  22392711.063                    22392719.180
 128660209.764 6 100254765.629 6  24483227.406                    24483237.027
 123803435.076 7  96470281.61343  23559013.211                    23559021.895
 114011467.437 7  88840218.16145  21695640.266                    21695646.008
 124821641.203 6  97263728.50443  23752754.750                    23752763.313
 107369465.691 8  83664606.534 8  20431718.383                    20431725.180
 113577532.502 7  88502057.120 7  21613087.914                    21613095.766
 11  8 15  2 41 30.0000000  0  9G30G25G29G15G26G02G10G05G12
 113751219.045 8  88637399.58345  21646148.859                    21646157.012
 113492401.733 8  88435724.976 7  21596891.188                    21596901.418
 117594212.130 7  91631905.333 7  22377435.063                    22377443.301
 128565638.358 7 100181073.732 6  24465231.461                    24465240.332
 123708913.218 7  96396628.25744  23541026.023                    23541034.965
 114051494.886 7  88871408.38745  21703257.195                    21703262.824
 124927195.731 6  97345978.77343  23772840.172                    23772849.633
 107399771.558 8  83688221.504 8  20437485.414                    20437492.313
 113644733.024 8  88554421.160 7  21625875.953                    21625883.414
 11  8 15  2 42  0.0000000  0  9G30G25G29G15G26G02G10G05G12
 113783934.031 8  88662891.77745  21652374.203                    21652382.195
 113499895.641 8  88441564.387 7  21598317.406                    21598327.559
 117514039.647 7  91569433.347 7  22362178.930                    22362187.160
 128470960.034 7 100107298.552 6  24447214.875                    24447223.504
 123614486.303 7  96323048.89044  23523057.625                    23523065.941
 114091611.324 7  88902667.96245  21710891.156                    21710897.156
 125032888.563 6  97428336.79743  23792953.953                    23792962.555
 107430580.269 8  83712228.294 8  20443348.281                    20443355.250
 113712334.252 7  88607097.433 7  21638739.867                    21638747.680
 11  8 15  2 42 30.0000000  0  9G30G25G29G15G26G02G10G05G12
 113817188.578 8  88688804.41345  21658702.477                    21658710.516
 113507960.174 8  88447848.421 7  21599852.320                    21599862.512
 117433971.639 7  91507042.751 7  22346942.453                    22346950.195
 128376177.431 6 100033442.095 6  24429177.664                    24429186.797
 123520158.255 7  96249546.58244  23505107.266                    23505115.855
 114131817.138 7  88933997.16945  21718542.367                    21718547.848
 125138717.159 6  97510800.64243  23813092.750                    23813100.871
 107461890.590 8  83736625.940 8  20449306.125                    20449313.184
 113780333.646 7  88660083.974 7  21651680.094                    21651687.445
 11  8 15  2 43  0.0000000  0  9G30G25G29G15G26G02G10G05G12
 113850980.511 7  88715135.79745  21665132.922                    21665140.965
 113516594.348 8  88454576.347 7  21601494.648                    21601505.098
 117354009.909 7  91444734.972 7  22331726.273                    22331734.477
 128281293.057 6  99959506.353 6  24411122.000                    24411130.676
 123425932.261 7  96176123.78444  23487177.289                    23487184.895
 114172111.828 7  88965395.64245  21726210.133                    21726215.477
 125244678.819 7  97593368.16443  23833256.438                    23833265.004
 107493700.331 8  83761412.755 8  20455359.555                    20455366.406
 113848728.264 7  88713378.469 7  21664695.422                    21664702.543
 11  8 15  2 43 30.0000000  0  9G30G25G29G15G26G02G10G05G12
 113885307.940 8  88741884.44245  21671664.789                    21671673.070
 113525797.447 8  88461747.580 7  21603246.156                    21603256.418
 117274156.368 7  91382511.472 7  22316530.336                    22316539.313
 128186309.640 6  99885493.456 6  24393046.969                    24393056.094
 123331811.868 7  96102783.25643  23469265.906                    23469274.125
 114212495.098 7  88996863.13045  21733895.281                    21733900.348
 125350771.248 7  97676037.58444  23853445.844                    23853453.852
 107526007.947 8  83786587.524 8  20461507.367                    20461514.406
 113917515.672 7  88766979.040 7  21677784.766                    21677792.234
 11  8 15  2 44  0.0000000  0  9G30G25G29G15G26G02G10G05G12
 113920168.435 8  88769048.47645  21678298.797                    21678306.902
 113535568.205 8  88469361.146 7  21605105.461                    21605115.867
 117194412.746 7  91320373.654 7  22301355.992                    22301363.492
 128091229.554 6  99811405.185 6  24374953.242                    24374962.758
 123237800.235 7  96029527.47544  23451376.766                    23451384.395
 114252966.727 8  89028399.48045  21741596.156                    21741601.711
 125456991.378 7  97758806.52643  23873658.898                    23873666.586
 107558811.012 8  83812148.354 8  20467749.648                    20467756.309
 113986692.785 7  88820883.284 7  21690948.820                    21690956.551
 11  8 15  2 44 30.0000000  0  9G30G25G29G15G26G02G10G05G12
 113955560.389 7  88796626.63445  21685033.492                    21685041.949
 113545906.096 8  88477416.631 7  21607072.711                    21607082.875
 117114781.314 7  91258323.246 7  22286202.219                    22286210.770
 127996055.444 6  99737243.641 6  24356842.281                    24356850.563
 123143901.330 6  95956359.54643  23433507.586                    23433516.340
 114293526.906 8  89060004.82645  21749315.281                    21749320.066
 125563336.627 7  97841672.95143  23893895.438                    23893903.055
 107592108.291 8  83838094.284 8  20474085.820                    20474092.941
 114056257.209 7  88875089.319 7  21704186.172                    21704194.352
 11  8 15  2 45  0.0000000  0  9G30G25G29G15G26G02G10G05G12
 113991481.922 7  88824617.45345  21691868.867                    21691877.508
 113556810.492 8  88485913.555 7  21609147.945                    21609157.758
 117035264.218 7  91196361.953 7  22271070.797                    22271078.727
 127900790.102 6  99663011.030 6  24338713.594                    24338722.871
 123050119.007 6  95883282.46343  23415661.266                    23415670.063
 114334175.925 8  89091679.39145  21757049.734                    21757055.238
 125669804.512 7  97924634.92343  23914155.258                    23914163.707
 107625897.978 8  83864423.910 8  20480515.719                    20480522.574
 114126206.097 8  88929594.943 7  21717497.453                    21717504.816
 11  8 15  2 45 30.0000000  0  9G30G25G29G15G26G02G10G05G12
 114027930.675 8  88853019.09345  21698804.984                    21698813.203
 113568280.233 8  88494851.020 7  21611330.648                    21611340.727
 116955863.006 7  91134490.923 7  22255961.305                    22255968.625
 127805436.204 6  99588709.406 5  24320569.055                    24320577.512
 122956456.675 7  95810298.86643  23397837.844                    23397846.801
 114374913.257 7  89123422.78945  21764801.875                    21764807.484
 125776392.209 7  98007690.28243  23934438.023                    23934446.605
 107660178.051 8  83891135.660 8  20487039.281                    20487045.926
 114196536.662 7  88984397.981 7  21730880.883                    21730888.207
 11  8 15  2 46  0.0000000  0  9G30G25G29G15G26G02G10G05G12
 114064904.922 7  88881830.20745  21705841.102                    21705849.422
 113580314.549 8  88504228.414 7  21613620.695                    21613630.785
 116876579.948 7  91072711.987 7  22240874.320                    22240882.625
 127709996.154 6  99514340.648 6  24302407.266                    24302416.281
 122862917.659 7  95737411.37344  23380037.367                    23380047.027
 114415739.069 7  89155235.12245  21772570.344                    21772576.320
 125883097.543 6  98090837.27243  23954744.180                    23954751.605
 107694946.655 7  83918228.072 8  20493655.258                    20493662.313
 114267246.860 7  89039496.832 7  21744336.414                    21744343.957
 11  8 15  2 46 30.0000000  0  9G30G25G29G15G26G02G10G05G12
 114102402.119 7  88911048.81945  21712976.703                    21712984.543
 113592912.256 8  88514044.810 7  21616017.844                    21616028.078
 116797417.019 7  91011026.669 7  22225809.984                    22225817.668
 127614472.574 6  99439906.809 6  24284229.219                    24284238.453
 122769505.390 6  95664622.64644  23362261.719                    23362270.676
 114456652.913 7  89187116.05045  21780355.727                    21780361.715
 125989917.549 6  98174073.60942  23975070.625                    23975078.477
 107730201.754 8  83945699.584 8  20500363.828                    20500370.996
 114338332.964 7  89094888.598 7  21757864.109                    21757871.277
 11  8 15  2 47  0.0000000  0  9G30G25G29G15G26G02G10G05G12
 114140420.267 7  88940673.36245  21720211.133                    21720219.258
 113606072.353 8  88524299.441 7  21618521.953                    21618531.828
 116718376.109 7  90949436.402 7  22210768.453                    22210776.836
 127518868.345 6  99365410.126 6  24266036.438                    24266045.824
 122676223.554 7  95591935.53344  23344511.727                    23344520.355
 114497654.979 7  89219065.72045  21788158.711                    21788164.027
 126096849.805 6  98257397.45643  23995419.250                    23995426.652
 107765941.644 8  83973548.851 8  20507165.281                    20507171.883
 114409792.411 7  89150571.271 7  21771461.852                    21771469.934
 11  8 15  2 47 30.0000000  0  9G30G25G29G15G26G02G10G05G12
 114178957.549 7  88970702.43545  21727544.703                    21727552.758
 113619794.178 8  88534991.781 7  21621133.367                    21621143.145
 116639459.370 7  90887942.897 7  22195751.258                    22195759.578
 127423185.927 6  99290852.497 6  24247829.219                    24247837.152
 122583076.129 7  95519353.16844  23326785.969                    23326794.625
 114538745.371 7  89251084.21945  21795977.617                    21795983.582
 126203891.920 6  98340806.86143  24015788.227                    24015796.051
 107802164.487 8  84001774.446 8  20514058.352                    20514065.363
 114481623.130 7  89206543.266 7  21785130.883                    21785138.758
 11  8 15  2 48  0.0000000  0  9G30G25G29G15G26G02G10G05G12
 114218011.458 7  89001134.05645  21734976.195                    21734984.250
 113634076.384 8  88546120.776 7  21623851.313                    21623861.785
 116560668.767 7  90826547.697 7  22180758.203                    22180765.773
 127327427.974 7  99216236.007 6  24229607.203                    24229615.293
 122490066.548 7  95446878.20844  23309086.961                    23309095.375
 114579923.682 7  89283171.22545  21803814.070                    21803819.172
 126311040.853 6  98424299.47943  24036178.742                    24036186.570
 107838868.019 8  84030374.601 8  20521042.656                    20521049.711
 114553821.572 7  89262801.796 7  21798870.102                    21798877.578
 11  8 15  2 48 30.0000000  0  9G30G25G29G15G26G02G10G05G12
 114257579.928 7  89031966.66245  21742505.805                    21742514.113
 113648917.962 8  88557685.671 7  21626675.531                    21626685.059
 116482006.219 7  90765252.279 7  22165789.281                    22165796.488
 127231597.192 7  99141562.776 6  24211370.617                    24211379.043
 122397197.974 7  95374513.13844  23291415.016                    23291422.941
 114621189.798 7  89315326.66645  21811666.789                    21811671.969
 126418294.282 6  98507873.52943  24056588.500                    24056596.281
 107876050.612 8  84059348.058 8  20528118.484                    20528125.570
 114626385.225 7  89319344.903 7  21812678.234                    21812685.793
 11  8 15  2 49  0.0000000  0  9G30G25G29G15G26G02G10G05G12
 114297660.971 7  89063198.64945  21750133.281                    21750141.375
 113664318.144 8  88569685.830 7  21629605.914                    21629615.844
 116403474.223 7  90704058.567 7  22150844.375                    22150852.895
 127135696.386 6  99066834.980 6  24193121.273                    24193129.949
 122304474.872 7  95302261.45044  23273770.078                    23273778.336
 114662544.346 7  89347551.00645  21819536.242                    21819542.027
 126525649.893 6  98591527.21243  24077016.742                    24077025.422
 107913710.607 7  84088693.515 8  20535284.852                    20535292.184
 114699311.448 7  89376170.522 7  21826555.836                    21826563.305
 11  8 15  2 49 30.0000000  0  9G30G25G29G15G26G02G10G05G12
 114338252.227 8  89094828.21345  21757857.031                    21757865.422
 113680275.581 8  88582120.214 7  21632642.172                    21632652.676
 116325074.347 7  90642967.807 7  22135925.508                    22135933.930
 127039728.477 7  98992054.900 6  24174858.695                    24174867.625
 122211900.236 7  95230125.40344  23256153.656                    23256161.754
 114703986.729 7  89379843.79645  21827422.516                    21827428.215
 126633104.747 6  98675258.22243  24097465.883                    24097474.133
 107951845.601 8  84118409.100 8  20542541.508                    20542548.781
 114772597.359 7  89433276.429 7  21840501.852                    21840509.082
 11  8 15  2 50  0.0000000  0  9G30G25G29G15G26G02G10G05G12
 114379351.080 7  89126853.30945  21765678.203                    21765686.121
 113696788.804 8  88594987.688 7  21635784.430                    21635794.668
 116246808.592 7  90581981.582 7  22121032.391                    22121040.223
 126943695.385 6  98917224.062 6  24156584.375                    24156593.293
 122119477.575 7  95158107.78744  23238566.211                    23238574.184
 114745516.894 7  89412204.97845  21835325.250                    21835330.770
 126740656.256 6  98759064.55443  24117932.008                    24117940.273
 107990453.062 7  84148492.844 8  20549888.477                    20549895.301
 114846239.680 7  89490660.061 7  21854515.305                    21854523.035
 11  8 15  2 50 30.0000000  0  9G30G25G29G15G26G02G10G05G12
 114420955.802 7  89159272.57745  21773594.891                    21773603.469
 113713857.154 8  88608287.713 7  21639032.844                    21639042.980
 116168679.436 7  90521101.781 7  22106164.805                    22106172.355
 126847600.510 7  98842345.073 6  24138297.781                    24138306.250
 122027210.818 7  95086211.64644  23221007.914                    23221016.664
 114787135.272 8  89444634.90145  21843244.930                    21843250.508
 126848302.254 6  98842944.49143  24138416.664                    24138425.145
 108029531.881 8  84178943.884 8  20557324.336                    20557331.828
 114920236.622 7  89548320.019 7  21868596.172                    21868603.867
 11  8 15  2 51  0.0000000  0  9G30G25G29G15G26G02G10G05G12
 114463063.923 8  89192084.10645  21781608.125                    21781616.469
 113731479.365 8  88622019.338 7  21642386.547                    21642396.367
 116090688.553 7  90460329.703 7  22091323.375                    22091331.320
 126751446.447 6  98767419.978 6  24120000.930                    24120008.746
 121935103.496 6  95014439.74144  23203480.727                    23203489.352
 114828841.459 7  89477133.24645  21851181.664                    21851187.082
 126956040.209 6  98926896.10443  24158917.328                    24158926.871
 108069079.862 8  84209760.504 8  20564850.547                    20564857.441
 114994584.375 7  89606253.332 7  21882744.008                    21882751.781
 11  8 15  2 51 30.0000000  0  9G30G25G29G15G26G02G10G05G12
 114505672.906 7  89225285.92145  21789716.547                    21789724.441
 113749653.878 8  88636181.318 7  21645844.555                    21645854.816
 116012838.230 7  90399667.175 7  22076508.961                    22076517.059
 126655235.940 6  98692450.892 6  24101692.531                    24101700.398
 121843158.984 7  94942794.69644  23185984.477                    23185993.168
 114870635.325 7  89509699.92145  21859134.617                    21859140.223
 127063867.229 6  99010917.08643  24179436.828                    24179445.352
 108109094.851 8  84240941.027 8  20572465.266                    20572471.770
 115069280.069 7  89664457.767 7  21896958.266                    21896965.777
 11  8 15  2 52  0.0000000  0  9G30G25G29G15G26G02G10G05G12
 114548780.916 7  89258876.58845  21797919.516                    21797927.875
 113768379.935 8  88650773.068 7  21649408.148                    21649417.844
 115935130.650 7  90339115.876 7  22061721.703                    22061729.660
 126558971.433 6  98617439.760 6  24083372.859                    24083382.227
 121751381.354 7  94871279.69344  23168519.875                    23168528.059
 114912517.217 7  89542335.18345  21867104.563                    21867110.098
 127171781.261 6  99095005.89843  24199971.766                    24199980.191
 108149574.968 8  84272483.985 8  20580168.125                    20580174.953
 115144321.435 7  89722931.559 7  21911238.211                    21911245.672
 11  8 15  2 52 30.0000000  0  9G30G25G29G15G26G02G10G05G12
 114592385.362 7  89292854.09245  21806217.414                    21806224.969
 113787656.083 8  88665793.449 7  21653076.086                    21653086.570
 115857567.891 7  90278677.410 7  22046961.844                    22046969.426
 126462655.677 6  98542388.691 6  24065044.898                    24065053.422
 121659774.006 7  94799897.37544  23151087.734                    23151095.566
 114954487.165 7  89575039.05745  21875091.047                    21875097.000
 127279779.684 6  99179160.42742  24220524.461                    24220532.063
 108190518.074 7  84304387.718 8  20587959.625                    20587966.273
 115219705.272 7  89781672.217 7  21925583.156                    21925590.832
 11  8 15  2 53  0.0000000  0  9G30G25G29G15G26G02G10G05G12
 114636483.871 8  89327216.56845  21814608.922                    21814616.770
 113807480.976 8  88681241.421 7  21656848.828                    21656858.785
 115780151.799 7  90218353.237 7  22032229.805                    22032238.078
 126366291.704 6  98467300.014 6  24046707.477                    24046715.797
 121568340.623 7  94728650.60343  23133688.344                    23133695.949
 114996545.038 8  89607811.45145  21883094.000                    21883100.078
 127387859.776 5  99263378.62142  24241091.023                    24241099.336
 108231921.778 8  84336650.363 8  20595837.945                    20595845.121
 115295428.901 7  89840677.642 7  21939993.109                    21940000.414
 11  8 15  2 53 30.0000000  0  9G30G25G29G15G26G02G10G05G12
 114681074.047 7  89361962.16445  21823094.172                    21823102.324
 113827853.322 8  88697115.999 7  21660725.188                    21660735.613
 115702884.748 7  90158145.206 7  22017526.727                    22017534.574
 126269882.016 6  98392175.687 6  24028360.672                    24028368.789
 121477084.691 7  94657542.08244  23116322.570                    23116330.488
 115038691.006 7  89640652.47345  21891114.156                    21891119.879
 127496019.252 6  99347658.62442  24261673.281                    24261681.430
 108273784.318 8  84369270.533 8  20603804.570                    20603811.535
 115371489.187 7  89899945.396 7  21954466.969                    21954474.055
 11  8 15  2 54  0.0000000  0  9G30G25G29G15G26G02G10G05G12
 114726153.594 7  89397089.09345  21831672.430                    21831680.320
 113848771.826 8  88713416.134 7  21664706.258                    21664716.000
 115625768.916 7  90098054.997 7  22002852.039                    22002859.309
 126173429.398 6  98317017.903 6  24010007.047                    24010015.113
 121386010.097 7  94586574.88444  23098991.938                    23098999.543
 115080924.846 7  89673561.96245  21899151.125                    21899156.762
 127604255.810 6  99431998.75442  24282270.133                    24282278.242
 108316103.848 8  84402246.813 8  20611857.375                    20611864.672
 115447883.496 7  89959473.423 7  21969004.266                    21969011.824
 11  8 15  2 54 30.0000000  0  9G30G25G29G15G26G02G10G05G12
 114771719.931 7  89432595.34445  21840343.188                    21840351.680
 113870235.004 8  88730140.682 7  21668790.539                    21668800.758
 115548805.937 7  90038083.890 7  21988206.391                    21988213.895
 126076936.731 6  98241828.889 6  23991644.313                    23991652.969
 121295120.205 7  94515751.58344  23081696.102                    23081704.133
 115123246.588 7  89706539.96445  21907204.203                    21907210.340
 127712566.542 6  99516396.70042  24302881.047                    24302889.188
 108358877.674 8  84435577.081 8  20619997.258                    20620004.066
 115524608.677 8  90019259.289 7  21983604.648                    21983612.008
 11  8 15  2 55  0.0000000  0  9G30G25G29G15G26G02G10G05G12
 114817770.903 7  89468479.21845  21849106.820                    21849114.871
 113892241.814 8  88747288.850 7  21672977.969                    21672988.785
 115471998.486 7  89978233.993 7  21973589.914                    21973597.832
 125980406.755 6  98166610.786 6  23973276.188                    23973283.730
 121204418.989 7  94445075.30244  23064436.023                    23064444.496
 115165656.506 8  89739586.66045  21915274.734                    21915280.453
 127820949.376 6  99600850.81843  24323505.484                    24323513.781
 108402104.243 7  84469260.129 8  20628222.836                    20628229.898
 115601662.348 7  90079301.115 7  21998267.250                    21998274.730
 11  8 15  2 55 30.0000000  0  9G30G25G29G15G26G02G10G05G12
 114864303.821 7  89504738.64545  21857961.305                    21857969.723
 113914790.533 8  88764859.294 7  21677268.750                    21677279.121
 115395348.411 7  89918506.712 7  21959003.813                    21959011.820
 125883842.168 7  98091365.741 6  23954900.094                    23954907.863
 121113909.820 7  94374548.69544  23047213.078                    23047221.020
 115208154.240 7  89772701.79545  21923361.734                    21923367.574
 127929401.692 6  99685359.04943  24344143.039                    24344151.395
 108445781.319 8  84503294.235 8  20636534.320                    20636541.191
 115679041.138 8  90139596.271 7  22012992.492                    22012999.566
 11  8 15  2 56  0.0000000  0  9G30G25G29G15G26G02G10G05G12
 114911316.531 7  89541371.94445  21866907.578                    21866916.145
 113937880.086 8  88782851.150 7  21681663.117                    21681672.895
 115318858.144 7  89858903.954 7  21944448.383                    21944456.309
 125787246.167 7  98016096.166 6  23936518.352                    23936525.859
 121023596.573 7  94304174.72444  23030026.844                    23030034.539
 115250740.445 7  89805885.87945  21931465.672                    21931471.359
 128037921.249 6  99769919.70343  24364793.438                    24364801.977
 108489906.904 7  84537677.823 8  20644931.656                    20644938.254
 115756742.465 7  90200142.766 7  22027778.477                    22027785.527
 11  8 15  2 56 30.0000000  0  9G30G25G29G15G26G02G10G05G12
 114958806.340 7  89578376.98345  21875944.516                    21875952.770
 113961508.740 8  88801263.086 7  21686159.125                    21686168.965
 115242529.436 7  89799427.104 7  21929923.352                    21929931.445
 125690621.340 7  97940804.170 6  23918131.055                    23918139.145
 120933482.821 7  94233956.22844  23012878.422                    23012886.719
 115293414.654 8  89839138.52045  21939586.992                    21939591.621
 128146505.404 6  99854530.67343  24385456.164                    24385465.195
 108534478.454 8  84572408.921 8  20653413.078                    20653419.676
 115834763.045 7  90260938.019 7  22042624.961                    22042632.270
 11  8 15  2 57  0.0000000  0  9G30G25G29G15G26G02G10G05G12
 115006770.678 7  89615751.79345  21885072.164                    21885080.094
 113985675.067 8  88820093.992 7  21690758.070                    21690767.949
 115166364.656 8  89740077.984 7  21915429.797                    21915437.781
 125593970.330 7  97865491.737 6  23899738.813                    23899747.355
 120843572.417 7  94163896.20044  22995769.180                    22995777.184
 115336177.342 8  89872460.11445  21947724.367                    21947729.301
 128255151.847 7  99939190.16243  24406131.883                    24406140.449
 108579493.998 8  84607485.976 8  20661978.813                    20661986.090
 115913099.766 8  90321979.625 7  22057532.242                    22057539.523
 11  8 15  2 57 30.0000000  0 10G30G25G29G15G26G02G10G21G05G12
 115055207.322 7  89653494.63845  21894289.195                    21894297.074
 114010377.809 8  88839342.885 7  21695458.289                    21695468.844
 115090366.039 7  89680858.329 7  21900967.594                    21900974.949
 125497296.153 6  97790161.256 6  23881342.516                    23881350.988
 120753868.853 7  94093997.32144  22978699.023                    22978707.785
 115379028.593 7  89905850.71145  21955878.242                    21955883.797
 128363858.275 6 100023896.42943  24426817.773                    24426826.492
 132294007.27316                  25174723.109
 108624951.671 7  84642907.545 8  20670629.078                    20670636.406
 115991750.275 8  90383265.735 7  22072498.609                    22072505.922
 11  8 15  2 58  0.0000000  0 10G30G25G29G15G26G02G10G21G05G12
 115104113.427 7  89691603.30245  21903595.766                    21903604.180
 114035615.178 8  88859008.373 7  21700261.125                    21700271.223
 115014535.708 7  89621769.805 7  21886537.938                    21886545.914
 125400601.576 6  97714814.879 6  23862941.563                    23862950.199
 120664375.733 7  94024262.43944  22961668.531                    22961677.668
 115421968.124 8  89939310.10445  21964049.477                    21964054.797
 128472622.383 6 100108647.62043  24447514.867                    24447523.793
 132236888.441 6 103041806.46552  25163853.422                    25163862.160
 108670848.898 7  84678671.641 8  20679363.195                    20679369.969
 116070711.332 8  90444793.838 7  22087524.578                    22087531.484
 11  8 15  2 58 30.0000000  0 10G30G25G29G15G26G02G10G21G05G12
 115153486.996 8  89730076.20445  21912991.563                    21912999.316
 114061386.127 8  88879089.635 7  21705165.148                    21705175.195
 114938876.107 7  89562814.341 7  21872139.914                    21872147.875
 125303889.608 6  97639454.939 6  23844537.641                    23844546.230
 120575097.269 7  93954694.81044  22944679.930                    22944688.414
 115464996.461 8  89972838.70245  21972237.414                    21972243.102
 128581442.053 6 100193442.09243  24468222.273                    24468231.457
 132179781.885 6 102997307.92842  25152986.242                    25152995.934
 108717184.052 8  84714776.957 8  20688180.305                    20688187.414
 116149980.682 8  90506562.168 7  22102609.070                    22102616.109
 11  8 15  2 59  0.0000000  0 10G30G25G29G15G26G02G10G21G05G12
 115203324.881 7  89768910.92845  21922474.695                    21922483.297
 114087688.564 8  88899585.034 7  21710170.070                    21710180.578
 114863388.947 7  89503993.221 7  21857775.227                    21857783.195
 125207162.788 6  97564083.411 6  23826132.016                    23826140.137
 120486036.499 7  93885296.82244  22927732.477                    22927740.574
 115508113.563 7  90006436.46745  21980442.453                    21980447.738
 128690314.335 6 100278277.57043  24488940.344                    24488949.117
 132122686.564 6 102952818.17442  25142122.258                    25142130.914
 108763954.363 7  84751221.358 8  20697080.469                    20697087.418
 116229554.186 8  90568567.490 7  22117751.578                    22117759.043
 11  8 15  2 59 30.0000000  0 10G30G25G29G15G26G02G10G21G05G12
 115253624.587 7  89808105.50645  21932046.672                    21932055.047
 114114520.857 8  88920493.322 7  21715276.336                    21715286.188
 114788076.619 8  89445308.340 7  21843444.008                    21843451.434
 125110423.927 6  97488702.484 6  23807722.836                    23807731.313
 120397197.082 7  93816071.29644  22910826.891                    22910835.105
 115551319.206 8  90040103.22245  21988664.234                    21988669.656
 128799237.003 6 100363152.30443  24509666.711                    24509676.055
 132065601.769 6 102908336.72442  25131258.023                    25131267.324
 108811157.604 8  84788003.114 8  20706063.344                    20706070.016
 116309429.425 7  90630807.939 7  22132950.930                    22132958.695
 11  8 15  3  0  0.0000000  0 10G30G25G29G15G26G02G10G21G05G12
 115304383.422 7  89847657.85445  21941705.984                    21941714.160
 114141881.418 8  88941813.257 7  21720483.266                    21720493.191
 114712941.155 7  89386761.266 7  21829145.977                    21829153.957
 125013675.854 6  97413314.417 6  23789312.336                    23789320.809
 120308582.822 7  93747021.21744  22893963.805                    22893972.168
 115594613.496 7  90073839.06945  21996902.703                    21996908.191
 128908207.660 6 100448064.40643  24530403.000                    24530413.363
 132008527.047 6 102863862.97542  25120396.594                    25120406.762
 108858791.392 8  84825120.365 7  20715127.727                    20715134.645
 116389603.096 7  90693280.926 7  22148207.461                    22148214.707
 11  8 15  3  0 30.0000000  0 10G30G25G29G15G26G02G10G21G05G12
 115355599.010 7  89887566.10945  21951451.641                    21951460.293
 114169768.857 8  88963543.732 7  21725789.688                    21725799.828
 114637984.901 7  89328353.858 7  21814882.305                    21814889.664
 124916921.588 6  97337921.540 6  23770901.086                    23770909.035
 120220197.400 7  93678149.46644  22877144.570                    22877152.781
 115637996.917 7  90107644.35645  22005158.539                    22005163.699
 129017223.943 6 100533012.11142  24551149.914                    24551158.500
 131951461.891 6 102819396.81542  25109538.398                    25109547.723
 108906853.801 8  84862571.593 8  20724273.070                    20724280.719
 116470072.527 7  90755984.369 7  22163520.398                    22163527.848
 11  8 15  3  1  0.0000000  0 10G30G25G29G15G26G02G10G21G05G12
 115407268.648 7  89927828.16445  21961284.453                    21961292.309
 114198181.358 8  88985683.356 7  21731196.430                    21731206.184
 114563210.235 8  89270087.931 7  21800652.977                    21800660.938
 124820164.210 6  97262526.230 6  23752487.750                    23752496.156
 120132044.528 7  93609458.93044  22860369.836                    22860378.273
 115681469.192 8  90141518.89645  22013430.852                    22013436.352
 129126283.642 6 100617993.65942  24571902.398                    24571911.980
 131894405.870 6 102774937.65542  25098681.055                    25098689.988
 108955342.979 8  84900355.369 8  20733500.406                    20733507.629
 116550834.793 7  90818915.998 7  22178888.711                    22178896.324
 11  8 15  3  1 30.0000000  0 10G30G25G29G15G26G02G10G21G05G12
 115459390.506 7  89968442.60345  21971202.367                    21971210.941
 114227118.130 8  89008231.491 7  21736703.234                    21736713.410
 114488619.594 8  89211965.409 7  21786458.391                    21786466.379
 124723407.017 6  97187131.068 6  23734075.938                    23734084.000
 120044128.735 7  93540953.10244  22843640.258                    22843648.070
 115725031.443 8  90175463.55845  22021720.625                    22021725.934
 129235385.105 6 100703007.72242  24592664.000                    24592672.930
 131837359.001 6 102730485.67342  25087824.695                    25087834.910
 109004257.206 8  84938470.350 8  20742808.945                    20742815.871
 116631887.797 7  90882074.183 7  22194312.859                    22194320.367
 11  8 15  3  2  0.0000000  0  9G30G25G29G15G26G02G21G05G12
 115511961.612 7  90009407.10945  21981206.773                    21981214.777
 114256577.158 8  89031186.591 7  21742308.773                    21742318.879
 114414215.265 8  89153988.064 7  21772300.273                    21772307.813
 124626652.901 6  97111738.308 6  23715664.055                    23715672.344
 119956453.385 7  93472634.63944  22826955.898                    22826963.965
 115768683.424 7  90209478.12145  22030027.547                    22030032.477
 131780320.485 6 102686040.18642  25076971.023                    25076980.313
 109053593.669 8  84976914.343 8  20752197.063                    20752203.941
 116713228.048 7  90945456.197 7  22209791.156                    22209798.691
 11  8 15  3  2 30.0000000  0  9G30G25G29G15G26G02G21G05G12
 115564978.545 7  90050719.00145  21991295.758                    21991303.418
 114286555.880 8  89054546.644 7  21748013.578                    21748023.629
 114339998.736 7  89096157.049 7  21758177.039                    21758184.836
 124529903.948 6  97036349.578 6  23697253.945                    23697261.703
 119869021.419 7  93404505.83944  22810318.188                    22810326.137
 115812424.571 7  90243562.18645  22038350.484                    22038356.301
 131723289.027 6 102641600.22043  25066118.172                    25066127.074
 109103349.491 8  85015685.113 7  20761665.430                    20761672.563
 116794851.819 7  91009059.135 7  22225323.773                    22225331.602
 11  8 15  3  3  0.0000000  0  9G30G25G29G15G26G02G21G05G12
 115618438.550 7  90092376.15345  22001468.680                    22001476.805
 114317052.644 8  89078310.360 7  21753817.000                    21753827.156
 114265972.329 8  89038474.184 7  21744090.086                    21744098.137
 124433162.739 6  96960966.854 6  23678844.680                    23678851.930
 119781836.272 7  93336569.38744  22793728.000                    22793735.199
 115856254.931 7  90277715.75145  22046691.289                    22046696.777
 131666264.125 6 102597165.39442  25055265.930                    25055275.379
 109153522.301 8  85054780.811 8  20771212.648                    20771220.012
 116876755.911 7  91072880.500 7  22240910.063                    22240916.996
 11  8 15  3  3 30.0000000  0  9G30G25G29G15G26G02G21G05G12
 115672339.492 8  90134376.90345  22011725.836                    22011733.578
 114348066.102 8  89102476.705 7  21759718.328                    21759728.473
 114192138.627 7  88980941.477 7  21730040.484                    21730048.020
 124336432.858 6  96885592.971 6  23660436.758                    23660444.512
 119694902.281 7  93268828.62744  22777184.102                    22777192.445
 115900175.254 7  90311939.42945  22055048.703                    22055054.063
 131609245.456 6 102552735.38843  25044414.555                    25044425.414
 109204110.677 7  85094200.332 7  20780839.578                    20780846.563
 116958937.951 7  91136918.445 7  22256548.117                    22256555.488
 11  8 15  3  4  0.0000000  0  9G30G25G29G15G26G02G21G05G12
 115726678.154 7  90176718.70945  22022065.859                    22022074.074
 114379594.080 8  89127043.977 7  21765717.898                    21765728.176
 114118499.263 8  88923560.214 7  21716027.258                    21716034.426
 124239716.681 6  96810229.806 6  23642032.047                    23642040.313
 119608222.843 7  93201286.23644  22760689.984                    22760698.367
 115944185.335 7  90346233.04245  22063423.492                    22063429.199
 131552232.378 6 102508309.70942  25033566.195                    25033575.922
 109255111.757 8  85133941.424 7  20790544.742                    20790551.805
 117041394.659 7  91201170.419 7  22272239.258                    22272246.703
 11  8 15  3  4 30.0000000  0  9G30G25G29G15G26G02G21G05G12
 115781452.175 7  90219399.77245  22032489.180                    22032497.313
 114411635.078 8  89152011.003 7  21771815.086                    21771825.328
 114045057.061 8  88866332.550 7  21702051.484                    21702059.008
 124143017.657 6  96734879.976 6  23623631.234                    23623639.078
 119521801.893 7  93133945.28344  22744244.219                    22744252.531
 115988285.258 7  90380596.67645  22071815.367                    22071820.891
 131495224.361 6 102463888.00643  25022718.664                    25022727.371
 109306523.525 8  85174002.538 8  20800328.320                    20800335.316
 117124123.177 7  91265634.197 7  22287982.398                    22287989.449
 11  8 15  3  5  0.0000000  0  9G30G25G29G15G26G02G21G05G12
 115836658.425 7  90262417.63845  22042994.094                    22043002.746
 114444186.909 8  89177376.070 7  21778009.633                    21778019.773
 113971813.767 8  88809259.909 7  21688113.719                    21688121.410
 124046338.311 6  96659545.493 6  23605233.977                    23605242.035
 119435642.832 7  93066808.43344  22727848.859                    22727856.953
 116032475.066 7  90415030.33745  22080224.414                    22080230.027
 131438220.670 6 102419469.69543  25011870.078                    25011879.688
 109358343.186 8  85214381.491 7  20810189.234                    20810196.055
 117207120.223 7  91330307.232 7  22303776.000                    22303783.141
 11  8 15  3  5 30.0000000  0  9G30G25G29G15G26G02G21G05G12
 115892294.459 7  90305770.38945  22053581.352                    22053589.480
 114477247.953 8  89203137.924 7  21784300.914                    21784310.676
 113898771.931 8  88752344.234 7  21674214.305                    21674222.016
 123949681.774 6  96584228.782 6  23586840.516                    23586847.984
 119349749.485 7  92999878.63844  22711504.125                    22711512.504
 116076755.091 7  90449534.30045  22088650.703                    22088656.152
 131381220.614 6 102375054.17043  25001023.047                    25001033.418
 109410568.807 8  85255076.779 7  20820127.305                    20820134.453
 117290382.772 7  91395187.134 7  22319620.227                    22319627.293
 11  8 15  3  6  0.0000000  0  9G30G25G29G15G26G02G21G05G12
 115948357.683 7  90349456.02745  22064250.273                    22064258.063
 114510816.659 8  89229295.367 7  21790688.805                    21790699.105
 113825934.286 8  88695587.674 7  21660353.680                    21660361.246
 123853051.280 6  96508932.380 6  23568452.523                    23568459.578
 119264125.683 7  92933158.88844  22695209.555                    22695218.980
 116121125.878 7  90484108.96545  22097094.086                    22097099.500
 131324224.271 6 102330641.56143  24990177.484                    24990186.578
 109463198.399 8  85296086.846 8  20830142.297                    20830149.262
 117373908.865 7  91460272.384 7  22335514.898                    22335522.148
 11  8 15  3  6 30.0000000  0  9G30G25G29G15G26G02G21G05G12
 116004845.099 7  90393472.19345  22074999.391                    22075007.211
 114544890.804 8  89255846.662 7  21797173.125                    21797182.902
 113753302.741 8  88638991.694 7  21646532.523                    21646539.824
 123756449.194 6  96433658.107 6  23550069.398                    23550076.906
 119178775.020 7  92866651.96644  22678967.477                    22678976.734
 116165587.148 7  90518754.13745  22105554.813                    22105560.230
 131267230.687 6 102286231.09843  24979332.055                    24979341.035
 109516229.116 8  85337409.493 7  20840234.008                    20840240.320
 117457694.155 7  91525559.618 7  22351458.750                    22351466.281
 11  8 15  3  7  0.0000000  0  9G30G25G29G15G26G02G21G05G12
 116061753.480 7  90437816.38645  22085828.797                    22085836.508
 114579468.143 8  89282790.061 7  21803752.844                    21803763.398
 113680879.052 8  88582557.701 7  21632750.461                    21632758.563
 123659878.470 7  96358408.244 6  23531692.336                    23531700.605
 119093700.581 7  92800360.28745  22662778.938                    22662787.574
 116210138.896 7  90553469.80445  22114032.547                    22114038.227
 131210239.133 6 102241822.19343  24968486.305                    24968496.547
 109569658.277 8  85379042.609 7  20850400.828                    20850408.000
 117541735.500 7  91591046.378 7  22367451.203                    22367458.762
 11  8 15  3  7 30.0000000  0  9G30G25G29G15G26G02G21G05G12
 116119080.735 7  90482486.97245  22096737.609                    22096746.234
 114614547.394 8  89310124.549 7  21810428.227                    21810438.547
 113608666.098 8  88526287.912 7  21619009.031                    21619016.422
 123563342.506 7  96283185.485 6  23513321.805                    23513330.277
 119008906.930 7  92734287.38344  22646643.781                    22646652.488
 116254781.827 7  90588256.51945  22122527.445                    22122532.781
 131153249.589 6 102197414.89643  24957641.797                    24957651.301
 109623484.628 7  85420985.222 7  20860643.805                    20860650.746
 117626030.949 7  91656731.143 7  22383491.953                    22383499.883
 11  8 15  3  8  0.0000000  0  9G30G25G29G15G26G02G21G05G12
 116176823.719 7  90527481.50245  22107725.664                    22107733.922
 114650126.264 8  89337848.356 7  21817198.734                    21817208.844
 113536666.025 8  88470184.002 7  21605307.617                    21605315.410
 123466843.705 7  96207991.683 6  23494959.117                    23494967.195
 118924397.325 7  92668435.80944  22630561.563                    22630570.211
 116299516.107 7  90623114.41245  22131041.063                    22131046.070
 131096261.151 6 102153008.40243  24946797.273                    24946806.801
 109677705.132 8  85463234.975 7  20870961.367                    20870968.730
 117710576.793 7  91722611.012 7  22399580.438                    22399587.965
 11  8 15  3  8 30.0000000  0  9G30G25G29G15G26G02G21G05G12
 116234979.509 7  90572797.69545  22118792.758                    22118800.621
 114686202.717 8  89365959.881 7  21824063.453                    21824074.191
 113464880.667 8  88414247.396 7  21591647.242                    21591654.676
 123370385.645 7  96132829.593 6  23476603.742                    23476611.656
 118840175.233 7  92602808.24944  22614534.125                    22614543.066
 116344341.397 7  90658043.23245  22139570.906                    22139575.816
 131039273.202 6 102108602.30143  24935952.727                    24935962.238
 109732317.310 8  85505789.921 8  20881354.102                    20881361.121
 117795369.831 7  91788683.510 7  22415715.641                    22415723.109
 11  8 15  3  9  0.0000000  0  9G30G25G29G15G26G02G21G05G12
 116293545.362 7  90618433.44245  22129937.227                    22129945.445
 114722774.859 8  89394457.665 7  21831023.133                    21831033.266
 113393312.821 8  88358480.285 7  21578028.508                    21578036.199
 123273971.093 7  96057701.422 6  23458256.883                    23458264.730
 118756244.614 7  92537407.80445  22598563.016                    22598571.727
 116389258.338 7  90693043.45545  22148118.219                    22148123.391
 130982285.419 6 102064196.30643  24925108.625                    24925117.648
 109787319.279 8  85548648.612 7  20891820.211                    20891827.219
 117880407.395 7  91854946.525 7  22431898.500                    22431905.445
 11  8 15  3  9 30.0000000  0  9G30G25G29G15G26G02G21G05G12
 116352518.283 7  90664386.35045  22141159.211                    22141167.684
 114759840.549 8  89423340.031 7  21838076.625                    21838086.613
 113321964.636 8  88302884.346 7  21564451.258                    21564458.891
 123177602.576 7  95982609.093 6  23439918.313                    23439926.078
 118672608.867 7  92472237.10545  22582647.844                    22582656.000
 116434266.851 7  90728115.03645  22156683.031                    22156688.449
 130925297.258 6 102019790.04043  24914263.484                    24914272.930
 109842708.233 8  85591808.847 7  20902360.648                    20902367.492
 117965686.162 7  91921397.509 7  22448126.281                    22448133.750
 11  8 15  3 10  0.0000000  0  9G30G25G29G15G26G02G21G05G12
 116411895.514 7  90710654.31945  22152458.328                    22152466.609
 114797397.900 8  89452605.499 7  21845223.516                    21845233.766
 113250838.339 8  88247461.293 7  21550916.453                    21550923.746
 123081283.646 6  95907555.431 6  23421589.992                    23421597.438
 118589271.925 7  92407299.23744  22566789.945                    22566797.559
 116479367.336 7  90763258.28645  22165265.250                    22165270.578
 130868307.978 6 101975382.86843  24903419.328                    24903428.461
 109898481.856 8  85635268.813 7  20912974.445                    20912980.902
 118051203.236 7  91988034.180 7  22464399.828                    22464407.195
 11  8 15  3 10 30.0000000  0  9G30G25G29G15G26G02G21G05G12
 116471674.273 7  90757235.16145  22163833.977                    22163842.063
 114835444.994 8  89482252.587 7  21852463.742                    21852473.980
 113179936.472 8  88192213.138 7  21537424.117                    21537431.699
 122985017.257 6  95832542.734 6  23403270.352                    23403278.008
 118506237.676 7  92342597.19944  22550988.586                    22550996.617
 116524560.152 7  90798473.47845  22173865.391                    22173870.387
 130811317.232 6 101930974.57543  24892573.422                    24892582.512
 109954638.419 8  85679027.184 8  20923660.227                    20923667.191
 118136955.768 7  92054854.319 7  22480717.398                    22480725.582
 11  8 15  3 11  0.0000000  0  9G30G25G29G15G26G02G21G05G12
 116531851.953 7  90804126.85845  22175285.047                    22175293.098
 114873979.879 8  89512279.783 7  21859796.180                    21859806.680
 113109261.423 8  88137141.711 7  21523975.188                    21523982.637
 122888806.603 6  95757573.443 6  23384962.031                    23384970.156
 118423509.687 7  92278133.82344  22535245.430                    22535253.297
 116569845.436 7  90833760.73245  22182482.609                    22182487.926
 130754324.540 6 101886564.84143  24881727.930                    24881737.609
 110011175.267 8  85723081.880 7  20934418.836                    20934426.117
 118222940.758 7  92121855.610 7  22497079.852                    22497087.809
 11  8 15  3 11 30.0000000  0  9G30G25G29G15G26G02G21G05G12
 116592425.254 7  90851326.83145  22186811.938                    22186820.230
 114913000.196 8  89542685.239 7  21867221.641                    21867232.063
 113038815.335 8  88082248.712 7  21510569.578                    21510577.363
 122792654.247 6  95682649.594 6  23366665.094                    23366672.969
 118341091.234 7  92213911.61544  22519561.992                    22519570.074
 116615223.490 7  90869120.28645  22191117.461                    22191122.910
 130697329.303 6 101842153.06843  24870881.906                    24870891.996
 110068089.819 8  85767430.891 7  20945249.484                    20945256.699
 118309155.192 7  92189035.663 7  22513486.063                    22513493.785
 11  8 15  3 12  0.0000000  0  9G30G25G29G15G26G02G21G05G12
 116653391.015 7  90898832.62545  22198413.570                    22198421.508
 114952503.548 8  89573467.069 7  21874739.094                    21874749.566
 112968599.935 8  88027535.467 7  21497208.172                    21497215.523
 122696562.999 6  95607773.336 6  23348379.398                    23348387.180
 118258986.062 7  92149933.55244  22503937.633                    22503946.625
 116660694.161 7  90904552.00245  22199770.789                    22199776.246
 130640330.747 6 101797738.71843  24860035.719                    24860044.785
 110125379.279 8  85812072.046 7  20956151.367                    20956158.340
 118395595.064 7  92256391.383 7  22529935.156                    22529942.688
 11  8 15  3 12 30.0000000  0  9G30G25G29G15G26G02G21G05G12
 116714746.496 7  90946642.08345  22210088.992                    22210097.313
 114992488.031 8  89604623.801 7  21882348.000                    21882357.758
 112898618.197 8  87973004.294 7  21483890.914                    21483898.371
 122600536.159 7  95532947.268 6  23330106.375                    23330113.738
 118177197.915 7  92086202.49644  22488374.711                    22488382.246
 116706257.822 8  90940056.16745  22208441.609                    22208446.227
 130583328.619 6 101753321.55343  24849188.641                    24849197.801
 110183041.942 8  85857003.984 7  20967123.695                    20967130.973
 118482257.806 7  92323920.782 7  22546426.734                    22546434.313
 11  8 15  3 13  0.0000000  0  9G30G25G29G15G26G02G21G05G12
 116776489.167 7  90994753.25145  22221838.094                    22221846.336
 115032951.861 8  89636154.067 7  21890048.148                    21890057.883
 112828872.804 8  87918657.274 7  21470618.859                    21470626.461
 122504576.671 7  95458173.671 6  23311845.141                    23311853.137
 118095730.756 7  92022721.56644  22472871.508                    22472879.723
 116751915.043 8  90975633.25045  22217128.930                    22217134.555
 130526322.454 6 101708901.22943  24838340.758                    24838349.824
 110241075.216 8  85902224.725 7  20978167.422                    20978174.480
 118569140.742 7  92391621.760 7  22562960.227                    22562967.574
 11  8 15  3 13 30.0000000  0  9G30G25G29G15G26G02G21G05G12
 116838615.630 7  91043163.46945  22233660.500                    22233668.508
 115073892.528 8  89668055.888 7  21897838.602                    21897848.664
 112759365.364 8  87864495.689 7  21457392.070                    21457399.344
 122408687.850 7  95383455.147 6  23293597.969                    23293606.105
 118014587.895 7  91959493.31644  22457430.664                    22457438.902
 116797665.938 7  91011283.31445  22225835.523                    22225840.660
 130469311.324 6 101664477.01843  24827492.336                    24827500.109
 110299476.478 8  85947732.208 8  20989280.469                    20989287.789
 118656240.453 7  92459491.644 7  22579534.422                    22579541.969
 11  8 15  3 14  0.0000000  0  9G30G25G29G15G26G02G21G05G12
 116901123.210 7  91091870.68545  22245555.313                    22245563.336
 115115308.019 8  89700327.694 7  21905719.836                    21905729.563
 112690098.501 8  87810521.557 7  21444210.750                    21444218.004
 122312872.294 7  95308793.706 6  23275365.273                    23275372.836
 117933773.155 7  91896520.78144  22442052.391                    22442060.719
 116843510.823 7  91047006.60745  22234559.164                    22234564.754
 130412295.070 6 101620048.87042  24816641.938                    24816650.594
 110358243.592 8  85993524.767 8  21000463.430                    21000470.762
 118743554.265 7  92527528.374 7  22596150.086                    22596156.797
 11  8 15  3 14 30.0000000  0  9G30G25G29G15G26G02G21G05G12
 116964008.967 7  91140872.55645  22257522.047                    22257530.586
 115157196.144 8  89732967.788 7  21913690.867                    21913700.797
 112621074.419 8  87756736.596 7  21431075.813                    21431083.137
 122217133.538 7  95234192.099 6  23257147.219                    23257154.867
 117853290.385 7  91833806.90845  22426736.719                    22426745.047
 116889449.810 7  91082803.23645  22243301.406                    22243306.715
 130355273.108 6 101575616.27443  24805790.055                    24805799.953
 110417374.339 8  86039600.682 7  21011715.938                    21011723.051
 118831079.002 7  92595729.456 7  22612804.961                    22612812.516
 11  8 15  3 15  0.0000000  0  9G30G25G29G15G26G02G21G05G12
 117027269.626 7  91190166.56145  22269560.328                    22269568.234
 115199554.430 8  89765974.242 7  21921751.234                    21921761.137
 112552295.486 8  87703142.666 7  21417987.578                    21417995.109
 122121474.258 7  95159652.443 6  23238944.078                    23238951.129
 117773142.661 7  91771354.12245  22411485.258                    22411493.742
 116935482.948 7  91118673.21645  22252060.789                    22252066.195
 130298244.847 6 101531178.74843  24794939.531                    24794947.746
 110476865.885 8  86085957.740 7  21023036.508                    21023043.969
 118918811.238 7  92664092.209 7  22629499.977                    22629507.340
 11  8 15  3 15 30.0000000  0  9G30G25G29G15G26G02G21G05G12
 117090902.234 7  91239750.40645  22281668.469                    22281676.895
 115242380.761 8  89799345.404 7  21929900.555                    21929910.805
 112483764.138 8  87649741.672 7  21404946.242                    21404953.867
 122025897.579 7  95085177.147 6  23220756.086                    23220764.039
 117693334.093 7  91709165.62145  22396298.367                    22396306.418
 116981610.426 7  91154616.71345  22260838.680                    22260844.328
 130241209.837 6 101486735.97743  24784085.844                    24784094.438
 110536715.805 8  86132594.042 7  21034425.961                    21034432.805
 119006747.952 7  92732614.312 7  22646233.758                    22646241.273
 11  8 15  3 16  0.0000000  0  9G30G25G29G15G26G02G21G05G12
 117154904.069 7  91289621.96245  22293848.242                    22293855.977
 115285672.986 8  89833079.606 7  21938138.945                    21938149.398
 112415482.445 8  87596535.196 7  21391952.914                    21391960.371
 121930406.681 7  95010768.712 6  23202584.195                    23202592.070
 117613868.215 7  91647244.15545  22381176.453                    22381184.816
 117027833.084 7  91190634.36745  22269635.094                    22269640.141
 130184167.186 6 101442287.22642  24773230.945                    24773239.094
 110596921.677 8  86179507.717 7  21045882.680                    21045889.637
 119094886.222 7  92801293.466 7  22663006.359                    22663013.117
 11  8 15  3 16 30.0000000  0  9G30G25G29G15G26G02G21G05G12
 117219271.879 7  91339778.68945  22306096.672                    22306104.859
 115329428.754 8  89867174.999 7  21946465.469                    21946475.516
 112347453.109 8  87543525.377 7  21379007.414                    21379015.070
 121835004.481 7  94936429.375 6  23184429.750                    23184437.555
 117534748.470 7  91585592.42345  22366119.938                    22366129.000
 117074151.054 7  91226726.29745  22278448.609                    22278454.297
 130127116.881 6 101397832.55842  24762373.703                    24762382.492
 110657481.465 8  86226697.169 7  21057406.844                    21057413.684
 119183223.144 7  92870127.423 7  22679815.695                    22679823.938
 11  8 15  3 17  0.0000000  0  9G30G25G29G15G26G02G21G05G12
 117284002.855 7  91390218.40745  22318414.867                    22318422.887
 115373645.810 8  89901629.844 7  21954879.727                    21954889.863
 112279678.355 8  87490713.915 7  21366110.227                    21366117.191
 121739693.830 7  94862161.369 6  23166293.570                    23166300.840
 117455978.781 7  91524213.47345  22351130.945                    22351139.457
 117120564.499 7  91262892.61845  22287280.781                    22287286.273
 130070058.274 6 101353371.35443  24751516.758                    24751524.730
 110718392.488 8  86274160.310 7  21068997.359                    21069004.738
 119271755.478 7  92939113.636 7  22696663.086                    22696670.090
 11  8 15  3 17 30.0000000  0  9G30G25G29G15G26G02G21G05G12
 117349093.914 7  91440938.71245  22330801.375                    22330809.398
 115418321.968 7  89936442.429 7  21963381.352                    21963391.359
 112212160.603 8  87438102.704 7  21353262.102                    21353269.371
 121644478.303 7  94787967.503 6  23148173.953                    23148181.395
 117377562.731 7  91463110.09345  22336209.344                    22336216.875
 117167073.786 7  91299133.63745  22296131.000                    22296136.527
 130012990.851 6 101308903.35343  24740656.469                    24740664.246
 110779652.411 8  86321895.324 7  21080655.398                    21080662.141
 119360480.337 7  93008249.866 7  22713547.195                    22713554.449
 11  8 15  3 18  0.0000000  0  9G30G25G29G15G26G02G21G05G12
 117414541.935 7  91491937.15345  22343255.945                    22343263.941
 115463454.653 8  89971610.747 7  21971969.930                    21971980.078
 112144901.827 8  87385693.317 7  21340462.813                    21340470.441
 121549360.539 7  94713849.826 6  23130073.281                    23130081.480
 117299503.580 7  91402284.81145  22321354.773                    22321362.727
 117213679.080 7  91335449.46245  22304999.570                    22305004.570
 129955913.928 6 101264427.81943  24729794.945                    24729803.465
 110841258.561 8  86369900.117 7  21092378.547                    21092385.574
 119449394.260 7  93077533.434 7  22730467.164                    22730474.195
 11  8 15  3 18 30.0000000  0  9G30G25G29G15G26G02G21G05G12
 117480343.883 7  91543211.39145  22355777.305                    22355785.762
 115509041.600 8  90007133.044 7  21980644.852                    21980654.762
 112077904.686 8  87333487.781 7  21327713.656                    21327721.117
 121454343.644 7  94639810.739 6  23111992.617                    23111999.793
 117221805.231 7  91341740.67745  22306568.766                    22306577.074
 117260380.657 7  91371840.31845  22313886.922                    22313891.969
 129898827.212 6 101219944.81143  24718930.875                    24718940.578
 110903208.788 7  86418173.024 7  21104166.633                    21104174.031
 119538494.430 7  93146962.119 7  22747421.859                    22747429.477
 11  8 15  3 19  0.0000000  0  9G30G25G29G15G26G02G21G05G12
 117546496.787 7  91594759.10345  22368366.188                    22368373.906
 115555080.554 8  90043007.545 7  21989405.711                    21989415.695
 112011171.560 8  87281487.974 7  21315015.391                    21315022.797
 121359430.780 7  94565852.697 6  23093931.180                    23093938.891
 117144471.081 7  91281480.34445  22291852.945                    22291861.020
 117307178.785 7  91408306.40345  22322792.813                    22322797.441
 129841730.229 6 101175453.73443  24708067.039                    24708075.402
 110965500.492 8  86466712.022 7  21116020.672                    21116028.016
 119627777.649 7  93216533.444 7  22764411.594                    22764419.703
 11  8 15  3 19 30.0000000  0  9G30G25G29G15G26G02G21G05G12
 117612997.464 7  91646577.80745  22381020.281                    22381028.582
 115601569.040 8  90079232.328 7  21998251.969                    21998262.297
 111944704.645 8  87229695.612 7  21302366.422                    21302374.137
 121264624.930 7  94491978.068 6  23075889.656                    23075897.684
 117067504.794 7  91221506.66645  22277206.992                    22277214.824
 117354073.777 7  91444847.97845  22331716.242                    22331721.426
 129784622.271 6 101130954.13943  24697199.039                    24697207.344
 111028131.012 7  86515515.030 7  21127939.039                    21127945.809
 119717240.938 7  93286245.074 7  22781436.273                    22781443.867
 11  8 15  3 20  0.0000000  0  9G30G25G29G15G26G02G21G05G12
 117679843.120 7  91698665.33245  22393741.031                    22393749.094
 115648504.825 8  90115805.664 7  22007184.023                    22007193.945
 111878506.482 8  87178112.654 7  21289769.641                    21289776.816
 121169929.417 7  94418189.407 6  23057869.992                    23057877.695
 116990910.143 7  91161822.57745  22262631.148                    22262639.660
 117401066.138 7  91481465.42045  22340658.531                    22340663.480
 129727502.950 6 101086445.68043  24686329.617                    24686338.078
 111091098.532 8  86564580.640 7  21139921.445                    21139928.188
 119806881.348 7  93356094.732 7  22798494.563                    22798502.000
 11  8 15  3 20 30.0000000  0  9G30G25G29G15G26G02G21G05G12
 117747029.999 7  91751018.73445  22406525.922                    22406534.168
 115695884.934 8  90152725.228 7  22016199.656                    22016209.543
 111812578.794 8  87126740.461 7  21277223.727                    21277231.152
 121075346.687 7  94344488.614 6  23039871.469                    23039878.852
 116914690.103 7  91102430.38645  22248127.148                    22248135.176
 117448155.790 7  91518158.67545  22349619.180                    22349624.258
 129670371.518 6 101041927.74643  24675457.867                    24675465.938
 111154399.721 8  86613906.254 7  21151966.953                    21151974.391
 119896695.152 7  93426079.501 7  22815585.125                    22815593.301
 11  8 15  3 21  0.0000000  0  9G30G25G29G15G26G02G21G05G12
 117814555.734 7  91803636.17245  22419376.078                    22419383.969
 115743707.568 8  90189989.608 7  22025300.055                    22025310.121
 111746924.738 8  87075581.490 7  21264730.156                    21264737.828
 120980880.514 7  94270878.665 6  23021895.531                    23021902.496
 116838848.807 7  91043333.34445  22233694.570                    22233702.801
 117495343.346 7  91554928.21645  22358598.656                    22358604.250
 129613227.894 6 100997400.35843  24664583.633                    24664591.449
 111218032.747 8  86663490.435 7  21164076.172                    21164082.891
 119986679.754 7  93496197.350 7  22832708.656                    22832716.004
 11  8 15  3 21 30.0000000  0  9G30G25G29G15G26G02G21G05G12
 117882416.691 7  91856514.82845  22432289.078                    22432297.566
 115791969.772 8  90227596.506 7  22034484.461                    22034494.117
 111681546.054 8  87024637.083 7  21252289.172                    21252296.539
 120886533.475 7  94197361.555 6  23003942.211                    23003949.180
 116763389.516 7  90984533.96344  22219335.172                    22219343.344
 117542628.878 7  91591774.11045  22367596.914                    22367602.066
 129556071.248 6 100952862.82743  24653706.578                    24653714.863
 111281994.601 8  86713330.856 7  21176247.281                    21176254.293
 120076831.769 7  93566445.656 6  22849864.180                    22849871.727
 11  8 15  3 22  0.0000000  0  9G30G25G29G15G26G02G21G05G12
 117950610.003 7  91909652.47945  22445265.875                    22445274.219
 115840669.374 7  90265544.252 7  22043751.547                    22043761.203
 111616445.314 8  86973909.277 7  21239901.156                    21239908.758
 120792308.911 7  94123939.877 6  22986011.031                    22986018.859
 116688315.772 7  90926034.97245  22205049.523                    22205057.313
 117590012.591 7  91628696.49945  22376613.695                    22376619.105
 129498901.368 6 100908314.98643  24642828.852                    24642836.223
 111346283.350 8  86763425.989 7  21188481.578                    21188488.336
 120167148.485 7  93636822.297 7  22867050.602                    22867058.840
 11  8 15  3 22 30.0000000  0 10G30G25G29G15G26G02G21G18G05G12
 118019132.543 7  91963046.65445  22458305.766                    22458313.648
 115889803.822 7  90303830.840 7  22053101.398                    22053111.668
 111551624.897 8  86923399.889 7  21227565.953                    21227573.074
 120698209.773 7  94050615.931 6  22968104.492                    22968112.332
 116613631.319 7  90867839.34345  22190837.133                    22190845.113
 117637494.923 7  91665695.73345  22385648.922                    22385654.859
 129441717.696 6 100863756.38743  24631946.234                    24631954.586
 129688001.18415                  24678784.414
 111410896.363 8  86813773.790 7  21200776.922                    21200783.805
 120257626.596 7  93707324.714 7  22884268.820                    22884275.883
